[[{"header":{"parameterUnit":"m.s-1","parameterCategory":1,"la1":30.6,"la2":29.2853,"lo1":-89.7004,"lo2":-87.6739,"dy":0.0162,"dx":0.0183,"nx":112,"ny":82,"refTime":"2026-03-17T00:00:00:Z","depth":0,"parameterNumber":2,"parameterNumberName":"U-component_of_WINDS"},"data":[0.0,0.0,0.0,0.0,0.0,0.0,0.0,0.0,0.0,0.0,0.0,0.0,0.0,0.0,0.0,0.0,0.0,0.0,0.0,0.0,0.0,0.0,0.0,0.0,0.0,0.0,0.0,0.0,0.0,0.0,0.0,0.0,0.0,0.0,0.0,0.0,0.0,0.0,0.0,0.0,0.0,0.0,0.0,0.0,0.0,0.0,0.0,0.0,0.0,0.0,0.0,0.0,0.0,0.0,0.0,0.0,0.0,0.0,0.0,0.0,0.0,0.0,0.0,0.0,0.0,0.0,0.0,0.0,0.0,0.0,0.0,0.0,0.0,0.0,0.0,0.0,0.0,0.0,0.0,0.0,0.0,0.0,0.0,0.0,0.0,0.0,0.0,0.0,0.0,0.0,0.0,-3.5663,-3.8888,-4.084,-4.0697,-3.9764,-3.7962,-3.5035,0.0,0.0,0.0,0.0,0.0,0.0,0.0,0.0,0.0,0.0,0.0,0.0,0.0,0.0,0.0,0.0,0.0,0.0,0.0,0.0,0.0,0.0,0.0,0.0,0.0,0.0,0.0,0.0,0.0,0.0,0.0,0.0,0.0,0.0,0.0,0.0,0.0,0.0,0.0,0.0,0.0,0.0,0.0,0.0,0.0,0.0,0.0,0.0,0.0,0.0,0.0,0.0,0.0,0.0,0.0,0.0,0.0,0.0,0.0,0.0,0.0,0.0,0.0,0.0,0.0,0.0,0.0,0.0,0.0,0.0,0.0,0.0,0.0,0.0,0.0,0.0,0.0,0.0,0.0,0.0,0.0,0.0,0.0,0.0,0.0,0.0,0.0,0.0,0.0,0.0,0.0,0.0,0.0,0.0,0.0,0.0,0.0,0.0,0.0,0.0,0.0,0.0,0.0,0.0,-3.3783,-3.8508,-4.0036,-4.0697,-4.0697,-3.9221,-3.7546,-3.5776,0.0,0.0,0.0,0.0,0.0,0.0,0.0,0.0,0.0,0.0,0.0,0.0,0.0,0.0,0.0,0.0,0.0,0.0,0.0,0.0,0.0,0.0,0.0,0.0,0.0,0.0,0.0,0.0,0.0,0.0,0.0,0.0,0.0,0.0,0.0,0.0,0.0,0.0,0.0,0.0,0.0,0.0,0.0,0.0,0.0,0.0,0.0,0.0,0.0,0.0,0.0,0.0,0.0,0.0,0.0,0.0,0.0,0.0,0.0,0.0,0.0,0.0,0.0,0.0,0.0,0.0,0.0,0.0,0.0,0.0,0.0,0.0,0.0,0.0,0.0,0.0,0.0,0.0,0.0,0.0,0.0,0.0,0.0,0.0,0.0,0.0,0.0,0.0,0.0,0.0,0.0,0.0,0.0,0.0,0.0,0.0,0.0,0.0,0.0,0.0,0.0,0.0,0.0,-3.321,-3.537,-3.9853,-4.0569,-4.0648,-4.0583,-3.9071,-3.7305,-3.5429,-3.1832,0.0,0.0,0.0,0.0,0.0,0.0,0.0,0.0,0.0,0.0,0.0,0.0,0.0,0.0,0.0,0.0,0.0,0.0,0.0,0.0,0.0,0.0,0.0,0.0,0.0,0.0,0.0,0.0,0.0,0.0,0.0,0.0,0.0,0.0,0.0,0.0,0.0,0.0,0.0,0.0,0.0,0.0,0.0,0.0,0.0,0.0,0.0,0.0,0.0,0.0,0.0,0.0,0.0,0.0,0.0,0.0,0.0,0.0,0.0,0.0,0.0,0.0,0.0,0.0,0.0,0.0,0.0,0.0,0.0,0.0,0.0,0.0,0.0,0.0,0.0,0.0,0.0,0.0,0.0,0.0,0.0,0.0,0.0,0.0,0.0,0.0,0.0,0.0,0.0,0.0,0.0,0.0,0.0,0.0,0.0,0.0,0.0,0.0,0.0,0.0,0.0,0.0,-3.588,-3.7249,-4.0496,-4.0745,-4.06,-4.0485,-3.8635,-3.6709,-3.4775,-3.0516,0.0,0.0,0.0,0.0,0.0,0.0,0.0,0.0,0.0,0.0,0.0,0.0,0.0,0.0,0.0,0.0,0.0,0.0,0.0,0.0,0.0,0.0,0.0,0.0,0.0,0.0,0.0,0.0,0.0,0.0,0.0,0.0,0.0,0.0,0.0,0.0,0.0,0.0,0.0,0.0,0.0,0.0,0.0,0.0,0.0,0.0,0.0,0.0,0.0,0.0,0.0,0.0,0.0,0.0,0.0,0.0,0.0,0.0,0.0,0.0,0.0,0.0,0.0,0.0,0.0,0.0,0.0,0.0,0.0,0.0,0.0,0.0,0.0,0.0,0.0,0.0,0.0,0.0,0.0,0.0,0.0,0.0,0.0,0.0,0.0,0.0,0.0,0.0,0.0,0.0,0.0,0.0,0.0,0.0,0.0,0.0,0.0,0.0,0.0,0.0,0.0,0.0,-3.6646,-3.8963,-4.0573,-4.0583,-4.0436,-4.0355,-3.7543,-3.5239,-3.4039,-2.9052,0.0,0.0,0.0,0.0,0.0,0.0,0.0,0.0,0.0,0.0,0.0,0.0,0.0,0.0,0.0,0.0,0.0,0.0,0.0,0.0,0.0,0.0,0.0,0.0,0.0,0.0,0.0,0.0,0.0,0.0,0.0,0.0,0.0,0.0,0.0,0.0,0.0,0.0,0.0,0.0,0.0,0.0,0.0,0.0,0.0,0.0,0.0,0.0,0.0,0.0,0.0,0.0,0.0,0.0,0.0,0.0,0.0,0.0,0.0,0.0,0.0,0.0,0.0,0.0,0.0,0.0,0.0,0.0,0.0,0.0,0.0,0.0,0.0,0.0,0.0,0.0,0.0,0.0,0.0,0.0,0.0,0.0,0.0,0.0,0.0,0.0,0.0,0.0,0.0,0.0,0.0,0.0,0.0,0.0,0.0,0.0,0.0,0.0,0.0,0.0,0.0,0.0,-3.5694,-3.7815,0.0,-3.9919,-3.9478,-3.8648,-3.6538,-3.4382,-3.2272,0.0,0.0,0.0,0.0,0.0,0.0,0.0,0.0,0.0,0.0,0.0,0.0,0.0,0.0,0.0,0.0,0.0,0.0,0.0,0.0,0.0,0.0,0.0,0.0,0.0,0.0,0.0,0.0,0.0,0.0,0.0,0.0,0.0,0.0,0.0,0.0,0.0,0.0,0.0,0.0,0.0,0.0,0.0,0.0,0.0,0.0,0.0,0.0,0.0,0.0,0.0,0.0,0.0,0.0,0.0,0.0,0.0,0.0,0.0,0.0,0.0,0.0,0.0,0.0,0.0,0.0,0.0,0.0,0.0,0.0,0.0,0.0,0.0,0.0,0.0,0.0,0.0,0.0,0.0,0.0,0.0,0.0,0.0,0.0,0.0,0.0,0.0,0.0,0.0,0.0,0.0,0.0,0.0,0.0,0.0,0.0,0.0,0.0,0.0,0.0,0.0,0.0,-3.2649,-3.4928,-3.6908,0.0,-3.9129,-3.8644,-3.7563,-3.574,-3.3512,-3.0639,0.0,0.0,0.0,0.0,0.0,0.0,0.0,0.0,0.0,0.0,0.0,0.0,0.0,0.0,0.0,0.0,0.0,0.0,0.0,0.0,0.0,0.0,0.0,0.0,0.0,0.0,0.0,0.0,0.0,0.0,0.0,0.0,0.0,0.0,0.0,0.0,0.0,0.0,0.0,0.0,0.0,0.0,0.0,0.0,0.0,0.0,0.0,0.0,0.0,0.0,0.0,0.0,0.0,0.0,0.0,0.0,0.0,0.0,0.0,0.0,0.0,0.0,0.0,0.0,0.0,0.0,0.0,0.0,0.0,0.0,0.0,0.0,0.0,0.0,0.0,0.0,0.0,0.0,0.0,0.0,0.0,0.0,0.0,0.0,0.0,0.0,0.0,0.0,0.0,0.0,0.0,0.0,0.0,0.0,0.0,0.0,0.0,0.0,0.0,0.0,0.0,0.0,-3.1491,-3.4556,-3.6738,-3.7432,-3.8079,-3.8154,-3.7329,-3.5198,-3.2497,0.0,0.0,0.0,0.0,0.0,0.0,0.0,0.0,0.0,0.0,0.0,0.0,0.0,0.0,0.0,0.0,0.0,0.0,0.0,0.0,0.0,0.0,0.0,0.0,0.0,0.0,0.0,0.0,0.0,0.0,0.0,0.0,0.0,0.0,0.0,0.0,0.0,0.0,0.0,0.0,0.0,0.0,0.0,0.0,0.0,0.0,0.0,0.0,0.0,0.0,0.0,0.0,0.0,0.0,0.0,0.0,0.0,0.0,0.0,0.0,0.0,0.0,0.0,0.0,0.0,0.0,0.0,0.0,0.0,0.0,0.0,0.0,0.0,0.0,0.0,0.0,0.0,0.0,0.0,0.0,0.0,0.0,0.0,0.0,0.0,0.0,0.0,0.0,0.0,0.0,0.0,0.0,0.0,0.0,0.0,0.0,0.0,0.0,0.0,0.0,0.0,0.0,0.0,-3.1577,-3.4105,-3.6113,-3.7439,-3.7652,-3.7086,-3.5457,-3.3779,-3.1379,-2.7905,0.0,0.0,0.0,0.0,0.0,0.0,0.0,0.0,0.0,0.0,0.0,0.0,0.0,0.0,0.0,0.0,0.0,0.0,0.0,0.0,0.0,0.0,0.0,0.0,0.0,0.0,0.0,0.0,0.0,0.0,0.0,0.0,0.0,0.0,0.0,0.0,0.0,0.0,0.0,0.0,0.0,0.0,0.0,0.0,0.0,0.0,0.0,0.0,0.0,0.0,0.0,0.0,0.0,0.0,0.0,0.0,0.0,0.0,0.0,0.0,0.0,0.0,0.0,0.0,0.0,0.0,0.0,0.0,0.0,0.0,0.0,0.0,0.0,0.0,0.0,0.0,0.0,0.0,0.0,0.0,0.0,0.0,0.0,0.0,0.0,0.0,0.0,0.0,0.0,0.0,0.0,0.0,0.0,0.0,0.0,0.0,0.0,0.0,0.0,0.0,0.0,0.0,-3.0486,-3.2987,-3.4967,-3.6232,-3.6538,-3.6035,-3.4627,-3.3198,-3.086,-2.7326,0.0,0.0,0.0,0.0,0.0,0.0,0.0,0.0,0.0,0.0,0.0,0.0,0.0,0.0,0.0,0.0,0.0,0.0,0.0,0.0,0.0,0.0,0.0,0.0,0.0,0.0,0.0,0.0,0.0,0.0,0.0,0.0,0.0,0.0,0.0,0.0,0.0,0.0,0.0,0.0,0.0,0.0,0.0,0.0,0.0,0.0,0.0,0.0,0.0,0.0,0.0,0.0,0.0,0.0,0.0,0.0,0.0,0.0,0.0,0.0,0.0,0.0,0.0,0.0,0.0,0.0,0.0,0.0,0.0,0.0,0.0,0.0,0.0,0.0,0.0,0.0,0.0,0.0,0.0,0.0,0.0,0.0,0.0,0.0,0.0,0.0,0.0,0.0,0.0,0.0,0.0,0.0,0.0,0.0,0.0,0.0,0.0,0.0,0.0,0.0,0.0,0.0,-2.8732,-3.1508,-3.3537,-3.4383,-3.5029,-3.5106,-3.4429,-3.309,-3.0814,-2.7418,0.0,0.0,0.0,0.0,0.0,0.0,0.0,0.0,0.0,0.0,0.0,0.0,0.0,0.0,0.0,0.0,0.0,0.0,0.0,0.0,0.0,0.0,0.0,0.0,0.0,0.0,0.0,0.0,0.0,0.0,0.0,0.0,0.0,0.0,0.0,0.0,0.0,0.0,0.0,0.0,0.0,0.0,0.0,0.0,0.0,0.0,0.0,0.0,0.0,0.0,0.0,0.0,0.0,0.0,0.0,0.0,0.0,0.0,0.0,0.0,-3.3542,0.0,0.0,0.0,0.0,0.0,0.0,0.0,0.0,0.0,0.0,0.0,0.0,0.0,0.0,0.0,0.0,0.0,0.0,0.0,0.0,0.0,0.0,0.0,0.0,0.0,0.0,0.0,0.0,0.0,0.0,0.0,0.0,0.0,0.0,0.0,0.0,0.0,0.0,0.0,0.0,0.0,-2.8927,-3.0772,-3.249,-3.4275,-3.4599,-3.4398,-3.369,-3.2382,-3.0508,-2.7963,0.0,0.0,0.0,0.0,0.0,0.0,0.0,0.0,0.0,0.0,0.0,0.0,0.0,0.0,0.0,0.0,0.0,0.0,0.0,0.0,0.0,0.0,0.0,0.0,0.0,0.0,0.0,0.0,0.0,0.0,0.0,0.0,0.0,0.0,0.0,0.0,0.0,0.0,0.0,0.0,0.0,0.0,0.0,0.0,0.0,0.0,0.0,0.0,0.0,0.0,0.0,0.0,0.0,0.0,0.0,0.0,0.0,0.0,0.0,0.0,0.0,-3.5137,0.0,0.0,0.0,0.0,0.0,0.0,0.0,0.0,0.0,0.0,0.0,0.0,0.0,0.0,0.0,0.0,0.0,0.0,0.0,0.0,0.0,0.0,0.0,0.0,0.0,0.0,0.0,0.0,0.0,0.0,0.0,0.0,0.0,0.0,0.0,0.0,0.0,0.0,0.0,0.0,-2.8535,-3.0366,-3.2044,-3.3783,-3.3967,-3.3814,-3.3429,-3.1874,-3.0232,-2.8686,-2.629,0.0,0.0,0.0,0.0,0.0,0.0,0.0,0.0,0.0,0.0,0.0,0.0,0.0,0.0,0.0,0.0,0.0,0.0,0.0,0.0,0.0,0.0,0.0,0.0,0.0,0.0,0.0,0.0,0.0,0.0,0.0,0.0,0.0,0.0,0.0,0.0,0.0,0.0,0.0,0.0,0.0,0.0,0.0,0.0,0.0,0.0,0.0,0.0,0.0,0.0,0.0,0.0,0.0,0.0,-4.2928,-4.2176,-4.2983,-4.3277,-4.3002,-4.0322,-3.9148,-3.8964,0.0,0.0,0.0,0.0,0.0,0.0,0.0,0.0,0.0,0.0,0.0,0.0,0.0,0.0,0.0,0.0,0.0,0.0,0.0,0.0,0.0,0.0,0.0,0.0,0.0,-3.0443,-2.9517,0.0,0.0,0.0,0.0,0.0,0.0,0.0,0.0,0.0,0.0,0.0,0.0,-2.8227,-3.012,-3.1736,-3.3075,-3.3229,-3.3183,-3.3059,-3.1428,-3.0032,-2.9241,-2.7083,-2.5016,0.0,0.0,0.0,0.0,0.0,0.0,0.0,0.0,0.0,0.0,0.0,0.0,0.0,0.0,0.0,0.0,0.0,0.0,0.0,0.0,0.0,0.0,0.0,0.0,0.0,0.0,0.0,0.0,0.0,0.0,0.0,0.0,-3.1231,-3.2326,0.0,0.0,0.0,0.0,0.0,0.0,0.0,0.0,0.0,0.0,0.0,0.0,0.0,0.0,-4.0501,-4.2855,-4.3718,-4.3057,-4.6067,-4.7095,-4.6361,-4.715,-4.7131,-4.6452,-4.603,0.0,-4.0694,-3.9585,0.0,0.0,0.0,0.0,0.0,0.0,0.0,0.0,0.0,0.0,0.0,0.0,0.0,0.0,0.0,0.0,0.0,0.0,0.0,0.0,0.0,0.0,-3.3039,-3.2426,-3.118,-2.999,0.0,-2.6968,-2.4477,-2.3705,0.0,0.0,0.0,0.0,0.0,0.0,0.0,0.0,-2.8919,-3.0027,-3.1059,-3.2382,-3.2521,-3.229,-3.1705,-3.0905,-3.0032,-2.9088,-2.6563,-2.4895,-2.4388,-2.2099,0.0,0.0,0.0,0.0,0.0,0.0,0.0,0.0,0.0,0.0,0.0,0.0,0.0,0.0,0.0,0.0,0.0,0.0,0.0,0.0,0.0,0.0,0.0,0.0,0.0,0.0,0.0,0.0,0.0,-3.0874,-3.3149,-3.348,-3.4266,-3.4304,0.0,0.0,0.0,0.0,0.0,0.0,0.0,0.0,0.0,-4.0953,-4.212,-4.3269,-4.447,-4.6452,-4.7021,-4.6214,-4.8122,-4.8581,-4.781,-4.8141,-4.8122,-4.7774,-4.7774,-4.6526,-4.4288,-4.1794,-3.9567,-3.7533,0.0,0.0,0.0,0.0,0.0,-3.3322,-3.4066,0.0,0.0,0.0,0.0,0.0,0.0,0.0,0.0,0.0,0.0,0.0,0.0,0.0,0.0,-3.3892,-3.3096,-3.2218,-3.146,-2.9515,-2.7426,0.0,-2.523,-2.4671,-2.3117,0.0,0.0,0.0,0.0,0.0,-2.9058,-3.0012,-3.0782,-3.172,-3.1828,-3.1567,-3.0905,-3.0228,-2.9669,-2.9225,-2.7679,-2.6381,-2.544,-2.419,-2.287,0.0,0.0,0.0,0.0,0.0,0.0,0.0,0.0,0.0,0.0,0.0,0.0,0.0,0.0,0.0,0.0,0.0,0.0,0.0,0.0,0.0,0.0,0.0,0.0,0.0,0.0,0.0,0.0,-3.2852,-3.4999,-3.4501,-3.5959,-3.642,0.0,0.0,0.0,0.0,0.0,0.0,-3.94,-4.0902,-4.2544,-4.4377,-4.5424,-4.6526,-4.7737,-4.9169,-4.9462,-4.8636,-4.9499,-4.9554,-4.8948,-4.8948,-4.8838,-4.8636,-4.8636,-4.8082,-4.696,-4.3668,-4.154,-4.0161,-3.7531,-3.6481,0.0,-3.5939,-3.6067,-3.6569,-3.7144,-3.7229,-3.6823,-3.5318,0.0,-3.3423,-3.0429,0.0,0.0,0.0,0.0,-3.3076,-3.3832,0.0,-3.4872,-3.4939,-3.4466,-3.374,-3.2735,-3.1647,-3.0181,0.0,-2.7426,-2.6949,-2.4733,0.0,0.0,0.0,0.0,-2.698,-2.9366,-3.0104,-3.0674,-3.132,-3.1243,-3.0874,-3.0228,-2.9704,-2.9285,-2.9116,-2.8189,-2.7113,-2.5816,-2.5348,-2.4224,-2.2346,0.0,0.0,0.0,0.0,0.0,0.0,0.0,0.0,0.0,0.0,0.0,0.0,0.0,0.0,0.0,0.0,0.0,0.0,0.0,0.0,0.0,0.0,0.0,0.0,0.0,0.0,0.0,0.0,0.0,-3.5528,-3.8908,0.0,0.0,0.0,0.0,-4.0085,-4.0931,-4.1875,-4.29,-4.4476,-4.5811,-4.6874,-4.8489,-4.937,-4.9462,-5.0306,-5.0325,-4.9517,-5.0343,-5.0729,-5.0674,-5.0674,-5.0251,-4.9517,-4.9517,-4.8806,-4.7438,-4.5388,-4.3233,-4.1135,-4.0159,-3.873,-3.7394,-3.874,-3.9071,-3.8819,-3.887,-3.843,-3.7939,-3.8531,-3.7263,-3.5334,-3.4438,-3.3203,0.0,0.0,-3.384,-3.4769,-3.5563,-3.5525,-3.5276,-3.5261,-3.4357,-3.3439,-3.3362,-3.2767,-3.169,0.0,-2.8765,-2.8104,-2.7334,0.0,-2.7211,-2.7242,-2.7811,-2.8765,-3.0181,-3.0397,-3.0674,-3.132,-3.0843,-3.0197,-2.952,-2.9443,-2.9085,-2.8327,-2.7009,-2.5954,-2.5191,-2.3921,-2.2627,-2.1316,-1.9653,0.0,0.0,0.0,0.0,0.0,0.0,0.0,0.0,0.0,0.0,0.0,0.0,0.0,0.0,0.0,0.0,0.0,0.0,0.0,0.0,0.0,0.0,0.0,0.0,0.0,0.0,0.0,0.0,-3.9454,-4.18,0.0,0.0,-4.1646,-4.2626,-4.3667,-4.3711,-4.4488,-4.6326,-4.6651,-4.7379,-4.8655,-4.9279,-4.9829,-5.0362,-5.0655,-5.0398,-4.9591,-4.9884,-4.9719,-4.9187,-4.9187,-4.904,-4.8765,-4.8765,-4.8504,-4.7926,-4.6439,-4.4569,-4.2564,-4.0944,-4.0129,-3.9846,-4.039,-4.0849,-4.1119,-4.1119,-4.0646,-3.9834,-3.8667,-3.6755,-3.4928,-3.5148,-3.4844,-3.4503,-3.4881,-3.5592,-3.6257,-3.6636,-3.6348,-3.5938,-3.5995,-3.5034,-3.3967,-3.3506,-3.2875,-3.2182,-3.1474,-3.0782,-2.9981,-2.8889,-2.8334,-2.8042,-2.8042,-2.8258,-2.8889,-3.0243,-3.0428,-3.0505,-3.0735,-3.0166,-2.9504,-2.8827,-2.8365,-2.8011,-2.7718,-2.6734,-2.5773,-2.4819,-2.4621,-2.3768,-2.2212,-2.084,-1.9403,0.0,0.0,0.0,0.0,0.0,0.0,0.0,0.0,0.0,0.0,0.0,0.0,0.0,0.0,0.0,0.0,0.0,0.0,0.0,0.0,0.0,0.0,0.0,0.0,0.0,0.0,-4.0795,-4.245,-4.4374,-4.5374,-4.4836,-4.5047,-4.5817,-4.7221,-4.6631,-4.6948,-4.857,-4.8506,-4.877,-4.9614,-4.9887,-5.0251,-5.0802,-5.0802,-5.0398,-4.9591,-4.9591,-4.9132,-4.8306,-4.8306,-4.8306,-4.8306,-4.8306,-4.821,-4.798,-4.668,-4.5125,-4.338,-4.2023,-4.1356,-4.1238,-4.1474,-4.188,-4.2286,-4.2286,-4.1644,-4.0595,-3.9123,-3.711,-3.5368,-3.5859,-3.5825,-3.5638,-3.5858,-3.6158,-3.6462,-3.6835,-3.6473,-3.6025,-3.6099,-3.5105,-3.3921,-3.3213,-3.2536,-3.2044,-3.2044,-3.1874,-3.1366,-3.0274,-2.9704,-2.9335,-2.9119,-2.9089,-2.9412,-3.0304,-3.0228,-3.0089,-3.0089,-2.9473,-2.8889,-2.8442,-2.7796,-2.7349,-2.7224,-2.6077,-2.4957,-2.3894,-2.3902,-2.3187,-2.1643,-2.0533,-1.9421,-1.8303,0.0,0.0,0.0,0.0,0.0,0.0,0.0,0.0,0.0,0.0,0.0,0.0,0.0,0.0,0.0,0.0,0.0,0.0,0.0,0.0,0.0,0.0,0.0,-3.8053,-4.0443,-4.2607,-4.4275,-4.6682,-4.8221,-4.8221,-4.8971,-4.9817,-5.0664,-4.9671,-4.92,-4.9626,-5.0022,-5.0059,-4.9691,-5.0383,-5.0765,-5.0802,-5.0802,-5.0398,-4.9591,-4.9591,-4.9132,-4.8306,-4.8306,-4.8306,-4.8306,-4.8306,-4.8035,-4.7476,-4.6255,-4.4827,-4.3485,-4.3353,-4.2496,-4.1288,-4.1999,-4.2269,-4.2286,-4.2269,-4.1305,-4.007,-4.002,-3.8531,-3.6755,-3.6772,-3.6265,-3.5672,-3.5922,-3.5578,-3.532,-3.6181,-3.5907,-3.546,-3.5476,-3.4398,-3.3183,-3.2536,-3.1859,-3.1382,-3.1382,-3.1921,-3.2182,-3.152,-3.1397,-3.1182,-3.0551,-3.0428,0.0,-3.0428,-2.9827,-2.9412,-2.9412,-2.8812,-2.8411,-2.8411,-2.7765,-2.7194,-2.6786,-2.4896,-2.3391,-2.2438,-2.16,-2.0623,-1.9476,-1.8627,-1.8236,-1.8332,0.0,0.0,0.0,0.0,0.0,0.0,0.0,0.0,0.0,0.0,0.0,0.0,0.0,0.0,0.0,0.0,0.0,0.0,0.0,0.0,0.0,0.0,-3.8831,-3.9927,-4.269,-4.5428,-4.7721,-4.9702,-5.0875,-5.0875,-5.1068,-5.1318,-5.1548,-5.0336,-4.983,-5.043,-4.9575,-4.9233,-4.9632,-4.9832,-5.0196,-5.0802,-5.0802,-5.0398,-4.9591,-4.9591,-4.9132,-4.8306,-4.8306,-4.8306,-4.8306,-4.8306,-4.8035,-4.753,-4.6731,-4.5293,-4.3432,-4.2457,-4.1716,-4.1221,-4.1424,-4.183,-4.2219,-4.1694,-4.0544,-3.9208,-3.8684,-3.7347,-3.6045,-3.6603,-3.6637,-3.6417,-3.622,-3.6003,-3.5894,-3.5748,-3.5285,-3.4876,-3.5368,-3.4044,-3.2613,-3.2428,-3.1859,-3.1382,-3.1382,-3.1921,-3.2336,-3.2151,-3.1705,-3.132,-3.1151,0.0,0.0,-3.0428,-2.9827,-2.9412,-2.9412,-2.8812,-2.8411,-2.8411,-2.7069,-2.5985,0.0,-2.3599,-2.2323,-2.1826,-2.095,-2.0326,-1.9974,-1.9016,-1.8679,0.0,0.0,0.0,0.0,0.0,0.0,0.0,0.0,0.0,0.0,0.0,0.0,0.0,0.0,0.0,0.0,0.0,0.0,0.0,0.0,0.0,0.0,-3.9254,-4.1432,-4.2267,-4.4235,-4.6682,-4.9586,-5.0798,-5.1664,-5.2395,-5.2125,-5.1914,-5.1914,-5.0703,-5.01,-5.0355,-4.9393,-4.9066,-4.9691,-4.9651,-5.0141,-5.1279,-5.0967,-5.0563,-5.0086,-4.9738,-4.9132,-4.8306,-4.8306,-4.8306,0.0,-4.8306,-4.8132,-4.7816,-4.7008,-4.5534,0.0,0.0,0.0,0.0,0.0,-4.1204,-4.1779,-4.1356,-4.024,-3.892,-3.8497,-3.7127,-3.5707,-3.6163,-3.6144,-3.5883,-3.5426,-3.5126,-3.4915,-3.4705,-3.4321,-3.406,-3.4168,-3.3044,-3.1828,-3.1259,-3.0843,-3.0643,-3.092,0.0,0.0,-3.1967,-3.1643,-3.1382,-3.1382,-3.0597,-2.9997,0.0,-2.9412,-2.8996,-2.8996,-2.8642,-2.8348,-2.8152,-2.6697,0.0,0.0,0.0,-2.1556,-2.0864,-2.0059,0.0,0.0,0.0,0.0,0.0,0.0,0.0,0.0,-1.794,-1.7889,0.0,0.0,0.0,0.0,0.0,0.0,0.0,0.0,0.0,0.0,0.0,0.0,0.0,0.0,0.0,0.0,-4.2018,-4.385,-4.4762,-4.5467,-4.7028,-5.0183,-5.0721,-5.1414,-5.2914,-5.2356,-5.1875,-5.1779,-5.0801,-5.0087,-4.9784,0.0,0.0,0.0,0.0,-5.0346,-5.1848,-5.1151,-5.0747,-5.0655,-4.9921,-4.9132,-4.8306,-4.8306,-4.8306,-4.8306,-4.8306,-4.8267,-4.8114,-4.7008,-4.5485,-4.3744,-4.2669,-4.1376,-4.007,-4.007,-4.0493,0.0,0.0,0.0,0.0,-3.887,-3.7398,-3.5622,-3.5622,-3.527,-3.4785,-3.4185,-3.3665,-3.3303,-3.3382,-3.3352,-3.3136,-3.2536,-3.1828,-3.0936,-2.9689,-2.9412,-2.9597,-3.0197,-3.0828,-3.1274,-3.1274,-3.1336,-3.1351,-3.1289,-3.0212,0.0,-2.9412,-2.8827,-2.8411,-2.8411,0.0,0.0,-2.784,-2.6567,-2.5379,-2.4474,-2.2552,-2.0962,-1.985,-1.9341,-1.9513,-2.0481,-1.9889,-2.0113,-2.118,-2.1028,-2.0748,-2.0315,-1.8242,-1.8081,0.0,0.0,0.0,0.0,0.0,0.0,0.0,0.0,0.0,0.0,0.0,0.0,0.0,0.0,0.0,-4.1596,-4.3291,-4.4918,-4.6491,-4.7225,-4.8125,-4.949,-5.0837,-5.1798,-5.2125,-5.201,-5.1625,-5.0971,-5.0476,-5.0024,-4.9673,-4.9363,0.0,-4.9711,-4.9691,-5.011,-5.1022,-5.0875,-5.0472,-4.9811,0.0,0.0,-4.8306,-4.8306,-4.8306,-4.8306,-4.8306,-4.8093,-4.762,-4.6186,-4.4078,-4.1715,-4.0883,-4.0375,-4.007,-4.007,-4.0172,-4.029,-4.029,-3.9343,-3.8125,-3.8125,-3.6975,-3.5622,-3.5622,-3.5532,0.0,-3.4284,-3.3935,-3.379,-3.3494,-3.2998,-3.2552,-3.2428,-3.1474,-3.0381,-2.9581,-2.9412,-2.9458,-2.9581,-3.0151,-3.0612,-3.0612,-3.1043,-3.1213,-3.0689,-2.992,-2.9412,-2.9412,-2.8827,-2.8411,-2.8411,-2.8103,-2.789,-2.779,-2.6379,-2.499,-2.3837,-2.1955,-2.0543,-1.9758,-1.9967,-2.0219,-2.0442,-2.0307,-2.053,-2.118,-2.0792,-2.0799,-2.1137,-2.0583,-2.0301,0.0,0.0,0.0,0.0,0.0,0.0,0.0,0.0,0.0,0.0,0.0,-3.6774,0.0,0.0,-4.2181,-4.3489,-4.4577,-4.5714,-4.7015,-4.7728,-4.8413,-4.9298,-5.0529,-5.1298,-5.1298,-5.1298,-5.1125,-5.0721,-5.0544,-5.0294,-4.993,-4.9589,-4.9615,-5.0042,-4.9824,-5.0057,-5.0864,-5.0438,-4.9994,-4.9572,-4.915,-4.8728,-4.8306,-4.8306,-4.8306,-4.8306,-4.8306,-4.7952,-4.7183,-4.5111,-4.3074,-4.1222,-4.0476,-4.0188,-4.007,-4.007,-4.007,-4.007,-4.007,-3.9123,-3.7905,-3.7905,-3.6874,-3.5622,-3.5622,-3.5424,-3.5021,-3.4235,-3.3818,-3.3487,-3.302,-3.2398,-3.1797,-3.149,-3.0643,-2.9735,-2.9058,-2.8904,-2.9012,-2.935,-2.9689,-2.992,-2.992,-2.9904,-2.9904,-2.992,-2.9058,-2.8535,-2.8873,-2.8611,-2.8411,-2.8411,-2.8201,-2.794,-2.7509,-2.592,-2.4418,-2.3119,-2.209,-2.1077,-2.0161,-2.0346,-2.0448,-2.0475,-2.0448,-2.0732,-2.1277,-2.1077,-2.109,-2.1423,-2.1326,-2.1164,0.0,0.0,0.0,0.0,0.0,0.0,0.0,0.0,-3.3768,-3.5174,-3.7536,-3.9546,-4.019,-4.2298,-4.4231,-4.5109,-4.5753,-4.6463,-4.7326,-4.7844,-4.8413,-4.9298,-5.0164,-5.0702,-5.0702,-5.0702,-5.0702,-5.0702,-5.0702,-5.0544,-5.0206,-4.9853,-4.9805,-5.0169,-4.9749,-4.9821,-5.0446,-4.9743,-4.9373,-4.9334,-4.8636,-4.8306,-4.8306,-4.8306,-4.8306,-4.8306,-4.8141,-4.7441,-4.63,-4.4127,-4.2461,-4.1255,-4.0576,-4.0238,-4.007,-4.007,-4.007,-4.007,-4.007,-3.9123,-3.7905,-3.7905,-3.6874,-3.5622,-3.5622,-3.5316,-3.4816,-3.4333,-3.3767,-3.3251,-3.2695,-3.1983,-3.1228,-3.0582,-2.9904,-2.9227,-2.855,-2.8411,-2.8565,-2.9119,-2.9212,-2.9212,-2.9212,-2.855,-2.8242,-2.8919,-2.8088,-2.7596,-2.815,-2.8319,-2.8411,-2.8411,-2.8348,-2.7925,-2.6967,-2.5516,-2.4019,-2.2702,-2.2423,-2.1817,-2.0711,-2.0657,-2.0657,-2.0657,-2.0657,-2.0887,-2.1423,-2.1423,-2.1423,-2.1423,-2.1423,-2.1423,-2.9624,-2.8906,0.0,-3.114,-3.1741,-3.2658,0.0,0.0,-3.7929,-3.8124,-4.019,-4.2006,-4.2084,-4.3606,-4.5148,-4.6007,-4.666,-4.7365,-4.8227,-4.8211,-4.8413,-4.9298,-5.0164,-5.0702,-5.0702,-5.0702,-5.0702,-5.0702,-5.0702,-5.0544,-5.0206,-4.9943,-4.9655,-4.9327,-4.9055,-4.8864,-4.8771,-4.8678,-4.8548,-4.8434,-4.8361,-4.8306,-4.8306,-4.8306,-4.8306,-4.8269,-4.7553,-4.6079,-4.4198,-4.3495,-4.237,-4.1017,-4.0502,-4.0238,-4.007,-4.007,-4.007,-4.007,-4.007,-3.9123,-3.7905,-3.7905,-3.6874,-3.5622,-3.5622,-3.5577,-3.5424,-3.488,-3.4317,-3.3767,-3.3251,-3.2235,-3.1228,-3.0582,-2.9904,-2.9227,-2.855,-2.8411,-2.8427,-2.8504,-2.8519,-2.8519,-2.8519,-2.7457,-2.6842,-2.7519,-2.7503,-2.7426,-2.7503,-2.8042,-2.8411,-2.8411,-2.8103,-2.7408,-2.6336,-2.5196,-2.4159,-2.3173,-2.2603,-2.2007,-2.1355,-2.1328,-2.1328,-2.1328,-2.1328,-2.1355,-2.1423,-2.1423,-2.1423,-2.1423,-2.1423,-2.1423,-3.1113,0.0,0.0,0.0,-3.3615,-3.5023,-3.7499,-3.8336,-3.9022,-4.0508,-4.2053,-4.3303,-4.3813,-4.4928,-4.586,0.0,-4.6804,-4.7367,-4.7643,-4.7948,-4.8277,-4.8662,-4.9432,-4.9933,-4.9933,-4.9933,-5.0144,-5.0644,-5.0702,-5.0624,-5.0504,-5.0202,-4.9891,-4.956,-4.9214,-4.8906,-4.8697,-4.855,-4.8457,-4.8419,-4.8363,-4.8306,-4.8306,-4.8306,-4.8049,-4.7535,-4.6269,-4.5057,-4.3945,-4.33,-4.2299,-4.1139,-4.0972,-4.0676,-4.032,-4.0188,-4.007,-4.002,-3.9597,-3.8768,-3.7838,-3.7398,-3.6518,-3.5622,-3.5622,-3.5622,-3.547,-3.4975,-3.4625,-3.4268,-3.3391,-3.2253,-3.1134,-3.0541,-2.9612,-2.875,-2.8473,-2.8411,-2.8411,-2.8411,-2.8411,-2.8288,-2.7888,-2.6995,-2.6318,-2.6195,-2.6534,-2.6949,-2.7349,-2.7996,-2.8411,-2.8411,-2.7825,-2.6975,-2.6015,-2.5093,-2.4035,-2.2753,-2.2454,-2.2034,-2.1437,-2.1423,-2.1423,-2.1423,-2.1423,-2.1423,-2.1423,-2.1423,-2.1423,-2.1423,-2.1423,-2.1613,-3.2109,0.0,0.0,-3.3932,-3.5242,-3.6825,-3.8559,-3.9125,-3.9808,-4.1668,-4.2722,-4.3525,-4.4171,-4.5188,0.0,-4.5845,-4.6843,-4.7504,-4.7178,-4.777,-4.8137,-4.7906,-4.816,-4.8565,-4.9009,-4.949,-4.9913,-5.0298,-5.0548,-5.0702,-5.0702,-5.038,-5.0087,-4.983,-4.9461,-4.9123,-4.8787,-4.8606,-4.8532,-4.8513,-4.8363,-4.8306,-4.8306,-4.8086,-4.7425,-4.6379,-4.5223,-4.4401,-4.3868,-4.3174,-4.2342,-4.1464,-4.1348,-4.0972,-4.0485,-4.0238,-4.0052,-3.9798,-3.9272,-3.8427,-3.7547,-3.7005,-3.6265,-3.5622,-3.5622,-3.5622,-3.5515,-3.5131,-3.4927,-3.4577,-3.3649,-3.2339,-3.1076,-3.0516,-2.9396,-2.8411,-2.8411,-2.8411,-2.8411,-2.8411,-2.8411,-2.8196,-2.7519,-2.6811,-2.6103,-2.541,-2.5749,-2.6272,-2.6765,-2.758,-2.8148,-2.8235,-2.7395,-2.6513,-2.5676,-2.4836,-2.3733,-2.2373,-2.2305,-2.2034,-2.1437,-2.1423,-2.1423,-2.1423,-2.1423,-2.1423,-2.1423,-2.1423,-2.1423,-2.1423,-2.1586,-2.1785,0.0,0.0,-3.275,-3.5288,-3.6596,-3.7729,-3.9467,-4.0462,-4.1048,-4.1126,-4.1829,-4.2453,-4.2472,-4.388,-4.5024,-4.4943,-4.6921,-4.8165,-4.732,-4.782,-4.7976,-4.713,-4.6317,-4.6455,0.0,-4.972,-5.0317,-4.949,-5.0221,-5.0702,-5.0702,-5.038,-5.0087,-4.983,-4.9529,-4.9193,-4.8787,-4.8642,-4.8569,-4.8513,-4.8363,-4.8306,-4.8269,-4.7498,-4.6287,-4.4782,-4.4727,-4.425,-4.3499,-4.3087,-4.2537,-4.1937,-4.1481,-4.0972,-4.0468,-4.0337,-3.9944,-3.9409,-3.9265,-3.8214,-3.691,-3.6818,-3.6265,-3.5622,-3.5622,-3.5622,-3.5577,-3.5577,-3.5224,-3.4673,-3.4136,-3.259,-3.1076,-3.0516,-2.9396,-2.8411,-2.8411,-2.8411,-2.8411,-2.8411,-2.8411,-2.8196,-2.7519,-2.6842,-2.6149,-2.5426,-2.5333,-2.5349,-2.5379,-2.658,-2.7531,-2.7765,-2.6842,-2.5929,-2.5303,-2.4221,-2.3265,-2.2346,-2.2305,-2.2034,-2.1437,-2.1423,-2.1423,-2.1423,-2.1423,-2.1423,-2.1423,-2.1423,-2.1423,-2.1423,-2.2007,-2.2025,0.0,0.0,-3.5037,-3.65,-3.7946,-3.9313,-4.0443,-4.0912,-4.1265,-4.1832,-4.1735,-4.1892,-4.3046,-4.3236,-4.3564,-4.4663,-4.5966,-4.6713,-4.6331,-4.7438,-4.7561,-4.5576,-4.6565,0.0,0.0,0.0,0.0,-5.0144,-4.999,-5.0087,-5.0664,-5.038,-5.0087,-4.983,-4.9529,-4.9225,-4.8874,-4.8678,-4.8605,-4.8569,-4.7849,-4.7517,-4.748,-4.614,-4.5223,-4.4672,-4.414,-4.3736,-4.3497,-4.3339,-4.3014,-4.2537,-4.2098,-4.1604,-4.1076,-4.022,-3.9473,-3.8809,-3.8452,-3.7695,-3.6791,-3.6209,-3.5825,-3.5622,-3.5622,-3.5622,-3.5622,-3.5622,-3.547,-3.5224,-3.4673,-3.335,-3.1992,-3.1126,-2.9876,-2.8779,-2.8493,-2.8411,-2.8411,-2.8411,-2.8411,-2.8057,-2.6919,-2.6534,-2.5995,-2.4825,-2.5025,-2.5487,-2.5964,-2.6441,-2.6658,-2.6482,-2.5842,-2.5048,-2.4105,-2.3348,-2.256,-2.1762,-2.1708,-2.1627,-2.1423,-2.1423,-2.1423,-2.1423,-2.1423,-2.1423,-2.1423,-2.0982,-2.0996,-2.1423,-2.1627,-2.2042,-3.2733,-3.4472,-3.6366,-3.787,-3.9061,-4.0116,-4.0954,-4.0896,-4.0837,-4.1386,-4.0819,-4.0546,-4.168,-4.1615,-4.1956,-4.3611,-4.4811,-4.5603,-4.578,-4.7008,-4.7163,-4.5196,-4.6418,0.0,0.0,0.0,0.0,-4.9201,-4.9394,-4.9644,-5.0202,-5.0208,-5.0087,-4.983,-4.9529,-4.9257,-4.8909,-4.875,-4.8494,-4.8126,-4.7426,-4.6819,-4.6232,-4.5186,-4.4544,-4.425,-4.3718,-4.3497,-4.3497,-4.3497,-4.3268,-4.2826,-4.2074,-4.1498,-4.0937,-3.9714,-3.8791,-3.8153,-3.7809,-3.7206,-3.6536,-3.5864,-3.5667,-3.5667,-3.5622,-3.5622,-3.5622,-3.5622,-3.5622,-3.5374,-3.4407,-3.331,-3.2112,-3.086,-2.9704,-2.8795,-2.8444,-2.8411,-2.8411,-2.8411,-2.8444,-2.8013,-2.6595,-2.5964,-2.5333,-2.4441,-2.4671,-2.521,-2.5918,-2.601,-2.5938,-2.5787,-2.5174,-2.4345,-2.343,-2.2526,-2.1808,-2.1437,-2.1043,-2.0989,-2.1396,-2.122,-2.1206,-2.1423,-2.122,-2.1063,-2.1063,-2.0514,-2.0495,-2.1063,-2.1328,-2.1861,-3.4316,-3.5469,-3.6797,-3.9277,-3.9922,-4.0176,-4.0957,-4.0488,-3.9883,-3.9844,-3.9101,-3.8496,0.0,0.0,-4.0274,-4.1942,-4.3596,-4.4982,-4.5769,-4.6573,-4.6786,0.0,0.0,0.0,0.0,0.0,0.0,-4.6906,0.0,-4.9375,-4.9452,-4.9939,-5.0087,-4.983,-4.9529,-4.9257,-4.8909,-4.8767,-4.8271,-4.7316,-4.7077,-4.6195,-4.4709,-4.4672,-4.4213,-4.3497,-4.3497,-4.3497,-4.3497,-4.3442,-4.3195,-4.2755,-4.1504,-4.0742,-4.021,-3.8846,-3.8006,-3.7473,-3.7335,-3.681,-3.6182,-3.5905,-3.5817,-3.5773,-3.5667,-3.5622,-3.5622,-3.5622,-3.5622,-3.5211,-3.3547,-3.2592,-3.1643,-2.9933,-2.8987,-2.8493,-2.8444,-2.846,-2.8396,-2.8411,-2.8431,-2.8015,-2.6549,-2.5195,-2.4317,-2.4317,-2.4317,-2.4533,-2.5179,-2.5272,-2.5328,-2.559,-2.4774,-2.399,-2.3345,-2.1806,-2.1052,-2.1342,-2.0324,-2.0188,-2.1287,-2.0738,-2.0711,-2.1328,-2.0738,-2.0441,-2.0441,-1.9931,-1.9958,-2.0495,-2.1063,-2.1504,-3.5195,-3.7246,-3.9062,-3.9726,-4.0391,-4.0762,-4.0332,-4.0059,-3.9726,-3.9062,-3.7715,-3.7031,0.0,0.0,0.0,-4.176,-4.3524,0.0,-4.6568,-4.696,0.0,0.0,0.0,-4.7579,-4.7139,-4.6877,0.0,0.0,-4.8256,-4.899,-5.0298,-5.0265,-5.0087,-4.983,-4.9529,-4.9257,-4.8909,-4.8229,-4.7752,-4.7351,-4.6009,-4.5182,-4.4759,-4.4101,-4.3681,-4.3497,-4.3497,-4.3497,-4.3442,-4.2837,-4.253,-4.23,-4.0793,-4.0107,-3.9784,-3.8269,-3.7646,-3.7404,-3.6758,-3.6405,-3.6165,-3.5975,-3.5932,-3.5932,-3.5888,-3.5888,-3.5888,-3.5773,-3.5773,-3.5497,-3.441,-3.3671,-3.2847,-3.144,-3.0456,-2.9645,-2.912,-2.8826,-2.8573,-2.8444,-2.7674,-2.6901,-2.65,-2.5381,-2.4508,-2.4508,-2.4508,-2.4529,-2.4533,-2.4564,-2.4499,-2.4425,-2.3896,-2.3377,-2.2908,-2.1647,-2.0873,-2.0885,-2.0139,-1.9836,-2.0134,-1.9999,-1.9985,-2.0134,-1.9985,-1.9917,-1.9917,-1.9307,-1.9537,-2.0495,-2.0644,-2.1104,-3.668,-3.8496,-3.998,-4.0371,-4.0547,-4.0391,-3.9531,-3.873,-3.7949,-3.707,-3.5819,0.0,0.0,0.0,0.0,0.0,0.0,0.0,-4.6245,-4.6535,-4.667,0.0,-4.7521,0.0,-4.7676,-4.7318,-4.7442,0.0,-4.8195,-4.872,-5.0048,-5.0169,-5.0087,-4.983,-4.9529,-4.9089,-4.837,-4.784,-4.7178,-4.6334,-4.5289,-4.4593,-4.4209,-4.3734,-4.3497,-4.3461,0.0,-4.2965,-4.291,-4.2121,-4.1772,-4.1614,-4.0203,-3.9514,-3.9162,-3.7767,-3.7109,-3.6904,-3.6456,-3.6276,-3.6251,-3.6122,-3.6079,-3.6079,-3.6019,-3.5753,-3.5497,-3.5428,-3.5172,-3.4644,-3.3592,-3.3102,-3.2471,-3.0948,-3.0272,-2.9733,-2.9074,-2.8842,-2.8716,-2.8621,-2.7503,-2.6616,-2.6676,-2.5508,-2.4589,-2.4589,-2.4589,-2.4549,-2.4426,-2.4302,-2.4135,-2.3925,-2.3494,-2.3083,-2.274,-2.149,-2.0798,-2.0927,-1.9759,-1.9289,-1.9836,-1.9516,-1.9459,-1.97,-1.9429,-1.9293,-1.9293,-1.8725,-1.8859,-1.9754,-1.9754,-2.016,-3.8301,-3.9414,-4.0254,-4.1016,-4.0547,-3.9648,-3.8652,-3.7168,-3.5703,-3.4726,0.0,0.0,-3.3506,0.0,-3.6587,-3.9326,0.0,-4.3053,-4.5606,-4.5858,-4.6167,-4.7154,-4.7173,-4.7444,-4.8314,-4.7608,-4.7438,-4.8234,-4.8133,-4.843,-4.9375,-4.9846,-4.994,-4.966,-4.9276,-4.8584,-4.7553,-4.7392,-4.6546,-4.5038,-4.4789,-4.4297,-4.3532,-4.3513,-4.3458,-4.3296,0.0,0.0,-4.2084,-4.1277,-4.0946,-4.0822,-3.9613,-3.8923,-3.8489,-3.7341,-3.6678,-3.6367,-3.6343,-3.6232,-3.618,-3.6216,-3.6208,-3.6191,-3.5942,-3.5437,-3.4907,-3.4805,-3.4274,-3.3451,-3.2285,-3.2017,-3.1608,-2.9907,-2.9524,-2.9467,-2.892,-2.8826,-2.8811,-2.8748,-2.7653,-2.6717,-2.6726,-2.5587,-2.467,-2.467,-2.467,-2.463,-2.463,-2.4369,-2.4078,-2.3882,-2.348,-2.3039,-2.2684,-2.1341,-2.067,-2.0946,-1.9293,-1.8766,-1.9765,-1.9182,-1.9083,-1.953,-1.9012,-1.8726,-1.8726,-1.8167,-1.8221,-1.8806,-1.8764,-1.9039,-3.9199,-4.0312,-4.1016,-4.1152,-4.0547,-3.9473,-3.7891,-3.6696,0.0,0.0,0.0,-3.2659,-3.405,-3.5076,0.0,-4.0064,0.0,0.0,0.0,0.0,-4.638,0.0,0.0,0.0,0.0,0.0,0.0,0.0,0.0,0.0,-4.9392,-4.951,-4.9324,-4.8806,-4.7862,-4.7142,-4.6698,-4.6048,-4.5533,-4.5254,-4.4453,-4.3948,-4.3719,-4.3634,-4.3198,-4.2506,0.0,0.0,-4.1258,-4.0432,-4.0102,-3.9997,-3.8761,-3.8267,-3.8093,-3.7206,-3.686,-3.6759,-3.6409,-3.5904,-3.549,-3.6111,-3.6259,-3.6155,-3.5535,-3.526,-3.4977,-3.4277,-3.3962,-3.3631,-3.2701,-3.2571,-3.2405,-3.1426,-3.0868,-3.046,-3.0081,-2.938,-2.8623,-2.7999,-2.734,-2.6663,-2.6083,-2.5397,-2.4926,-2.4926,-2.4926,-2.4886,-2.4782,-2.4645,-2.4426,-2.4219,-2.3867,-2.3299,-2.2423,-2.1326,-2.0443,-1.9906,-1.8967,-1.8562,-1.8747,-1.8649,-1.8609,-1.8721,-1.8502,-1.8367,-1.8314,-1.811,-1.8276,-1.8806,-1.8521,-1.8516,-4.0098,-4.0879,-4.1191,-4.1167,-4.015,-3.8703,-3.6914,0.0,0.0,0.0,0.0,-3.1514,-3.231,0.0,0.0,0.0,0.0,0.0,0.0,0.0,0.0,0.0,0.0,0.0,0.0,0.0,0.0,0.0,0.0,0.0,-4.8736,-4.8625,-4.84,-4.8153,-4.7315,-4.6623,-4.6041,-4.5549,-4.5032,-4.4573,-4.4133,-4.3851,-4.3786,-4.3225,-4.2735,-4.2298,0.0,0.0,-4.0414,-3.9606,-3.9276,-3.9239,-3.8629,-3.8285,-3.8034,-3.7432,-3.7094,-3.6808,-3.6,-3.549,-3.5197,-3.5145,-3.5145,-3.5076,-3.4731,-3.4335,-3.3938,-3.3481,-3.3102,-3.2724,-3.2269,-3.2221,-3.2059,-3.1224,-3.046,-2.9881,-2.9793,-2.9335,-2.8747,-2.8041,-2.741,-2.6776,-2.601,-2.5384,-2.5005,-2.5005,-2.5005,-2.4966,-2.4886,-2.4846,-2.4589,-2.3994,-2.3438,-2.2827,-2.2076,-2.1007,-2.0261,-1.9864,-1.9184,-1.8711,-1.8644,-1.862,-1.8556,-1.8517,-1.8425,-1.8386,-1.8361,-1.8307,-1.8287,-1.8289,-1.8123,-1.7962,-4.0487,-4.1034,-4.1168,-4.1104,-3.977,-3.8007,-3.6211,-3.45,0.0,0.0,0.0,-3.0707,0.0,0.0,0.0,0.0,0.0,0.0,0.0,0.0,0.0,0.0,0.0,0.0,0.0,0.0,0.0,0.0,0.0,0.0,0.0,-4.7663,-4.7477,-4.7369,-4.6781,-4.6083,-4.5292,-4.5097,-4.4642,-4.3929,-4.3762,-4.3624,-4.3541,-4.2595,-4.2065,-4.1811,0.0,0.0,0.0,-3.8964,-3.8707,-3.8707,-3.8707,-3.8515,-3.8186,-3.7774,-3.7288,-3.6644,-3.5653,-3.5054,-3.4611,-3.4024,-3.3955,-3.4059,-3.3886,-3.3404,-3.2869,-3.2714,-3.2248,-3.18,-3.18,-3.18,-3.1579,-3.0723,-2.9881,-2.9289,-2.9305,-2.9102,-2.8695,-2.8015,-2.7336,-2.6641,-2.5914,-2.5329,-2.5005,-2.5005,-2.5005,-2.5005,-2.5005,-2.4784,-2.4356,-2.3556,-2.2936,-2.2325,-2.1583,-2.0669,-2.0045,-1.9899,-1.9329,-1.8965,-1.886,-1.8812,-1.875,-1.862,-1.8595,-1.8595,-1.8542,-1.8556,-1.8307,-1.7787,-1.7747,-1.7462,-3.9693,-4.0508,-4.1085,-4.1037,-3.9694,-3.794,-3.6201,0.0,0.0,0.0,-3.0599,-3.1071,-3.26,0.0,0.0,0.0,0.0,0.0,0.0,0.0,0.0,0.0,0.0,0.0,0.0,0.0,0.0,0.0,0.0,0.0,0.0,-4.699,-4.676,-4.6258,-4.5445,-4.4726,-4.416,-4.4116,-4.4079,-4.3986,-4.3262,-4.2866,-4.2754,-4.1822,-4.0953,-4.0228,0.0,0.0,0.0,-3.8726,-3.8707,-3.8707,-3.8707,-3.8676,-3.8596,-3.8186,-3.7359,-3.6381,-3.5907,-3.46,-3.3093,-3.3041,-3.349,-3.3955,-3.3231,-3.2955,-3.2766,-3.2093,-3.1852,-3.18,-3.18,-3.18,-3.1596,-3.0788,-3.0267,-2.981,-2.938,-2.8722,-2.7984,-2.732,-2.6609,-2.5882,-2.5227,-2.5053,-2.5005,-2.5005,-2.5005,-2.5005,-2.5005,-2.4202,-2.3482,-2.3122,-2.298,-2.233,-2.0739,-2.0304,-1.9841,-1.9232,-1.9145,-1.9101,-1.9064,-1.9064,-1.9064,-1.9064,-1.8979,-1.8903,-1.8784,-1.8697,-1.8386,-1.7787,-1.7489,-1.7118,-3.9432,-4.0407,-4.1017,-4.0964,-3.9626,-3.7879,-3.614,0.0,0.0,-3.0942,-3.0606,-3.0791,-3.1468,-3.1313,0.0,0.0,0.0,0.0,0.0,0.0,0.0,0.0,0.0,0.0,0.0,0.0,0.0,0.0,0.0,0.0,0.0,-4.621,-4.6069,-4.5819,-4.5309,-4.4849,-4.4484,-4.4318,-4.3938,-4.3262,-4.2946,-4.2537,-4.1994,-4.1082,-4.0466,-4.0074,0.0,0.0,0.0,-3.878,-3.875,-3.8707,-3.8707,-3.8395,-3.7924,-3.7526,-3.6638,-3.5561,-3.4639,-3.3728,-3.2835,-3.2386,-3.2455,-3.2645,-3.2334,-3.2231,-3.2179,-3.1886,-3.18,-3.18,-3.18,-3.1634,-3.1372,-3.0828,-3.0005,-2.9248,-2.8906,-2.8116,-2.7288,-2.6577,-2.6214,-2.5787,-2.5132,-2.5005,-2.5005,-2.5005,-2.5084,-2.5019,-2.4528,-2.4004,-2.3273,-2.226,-2.1789,-2.1192,-2.0352,-1.9803,-1.9391,-1.9116,-1.9101,-1.9101,-1.9101,-1.9101,-1.9101,-1.9101,-1.9078,-1.9026,-1.8988,-1.895,-1.8669,-1.8226,-1.7774,-1.738,-3.8982,-3.9978,-4.0634,-4.0811,-3.9374,-3.7492,0.0,0.0,-3.2618,-3.0946,-3.0598,-3.0675,-3.0907,-3.0752,-3.0946,0.0,0.0,0.0,0.0,0.0,0.0,0.0,0.0,0.0,0.0,0.0,0.0,0.0,0.0,0.0,0.0,-4.5275,-4.5137,-4.5494,-4.5053,-4.4693,-4.4416,-4.3898,-4.3278,-4.2526,-4.2214,-4.1776,-4.12,-4.0277,-3.9859,0.0,0.0,0.0,0.0,-3.8453,-3.8283,-3.8021,-3.7991,-3.7643,-3.7099,-3.6833,-3.5991,-3.4858,-3.3916,-3.3194,-3.2622,-3.1992,-3.18,-3.18,-3.18,-3.18,-3.18,-3.18,-3.18,-3.18,-3.18,-3.1542,-3.1218,-3.0845,-2.9774,-2.8825,-2.8506,-2.7545,-2.6625,-2.6186,-2.5916,-2.5671,-2.5203,-2.5084,-2.51,-2.5045,-2.4987,-2.4722,-2.4078,-2.3447,-2.2655,-2.1523,-2.0706,-2.0152,-1.9953,-1.9415,-1.9101,-1.9101,-1.9139,-1.9139,-1.9139,-1.9176,-1.9176,-1.9139,-1.9139,-1.9064,-1.8898,-1.8898,-1.863,-1.8108,-1.7787,-1.7393,-3.8194,-3.9004,-3.9801,-4.0595,-3.8837,-3.669,0.0,-3.435,-3.2618,-3.0946,-3.0598,-3.0849,-3.1642,-3.1139,-3.1159,0.0,0.0,0.0,0.0,0.0,0.0,0.0,0.0,0.0,0.0,0.0,0.0,0.0,0.0,0.0,0.0,0.0,-4.3869,-4.5265,-4.44,-4.3776,-4.3526,-4.246,-4.1916,-4.1897,-4.0896,-4.042,-4.0383,-3.9443,0.0,0.0,0.0,0.0,0.0,-3.7642,-3.7135,-3.6435,-3.635,-3.6321,-3.6303,-3.6303,-3.5531,-3.4467,-3.4121,-3.3259,-3.2266,-3.1893,-3.18,-3.18,-3.18,-3.18,-3.18,-3.18,-3.18,-3.18,-3.18,-3.1542,-3.1179,-3.0707,-2.9733,-2.8783,-2.8375,-2.7105,-2.6066,-2.6254,-2.5735,-2.5333,-2.5394,-2.5317,-2.524,-2.5107,-2.4595,-2.4089,-2.3747,-2.2378,-2.1306,-2.094,-1.9998,-1.945,-1.9493,-1.925,-1.9101,-1.9101,-1.9213,-1.9302,-1.9302,-1.9376,-1.9376,-1.9302,-1.9302,-1.9026,-1.85,-1.85,-1.8068,-1.7199,-1.7199,-1.6947,-3.5663,-3.6725,-3.7693,-3.7398,-3.6245,-3.4969,-3.4118,-3.3035,-3.1913,-3.083,-3.0598,-3.0675,-3.0926,-3.0772,-3.1159,-3.2831,0.0,0.0,0.0,0.0,0.0,0.0,0.0,0.0,0.0,0.0,0.0,0.0,0.0,0.0,0.0,0.0,-4.3659,-4.4645,-4.3824,-4.3216,-4.2976,-4.2604,-4.1987,-4.1072,-4.075,-4.0224,-3.9491,-3.9203,0.0,0.0,0.0,0.0,0.0,-3.6925,-3.6731,-3.6454,-3.6454,-3.6095,-3.5616,-3.5616,-3.4862,-3.3782,-3.3545,-3.2977,-3.2335,-3.2091,-3.191,-3.18,-3.18,-3.18,-3.18,-3.18,-3.18,-3.18,-3.18,-3.1347,-3.0751,-3.0224,-2.902,-2.7816,-2.738,-2.6374,-2.5637,-2.5792,-2.5577,-2.5394,-2.553,-2.553,-2.5492,-2.5454,-2.4968,-2.4249,-2.3317,-2.2303,-2.1268,-2.039,-1.9752,-1.9413,-1.9435,-1.9362,-1.9302,-1.9302,-1.9302,-1.9302,-1.9302,-1.9228,-1.9176,-1.9139,-1.9265,-1.9213,-1.9064,-1.8822,-1.8266,-1.7393,-1.7393,-1.7199,0.0,-3.5204,-3.5916,-3.5742,-3.5027,-3.4176,-3.3305,-3.2676,-3.1971,-3.083,-3.0598,-3.0598,-3.0598,-3.0598,-3.0946,-3.199,0.0,0.0,0.0,0.0,0.0,0.0,0.0,0.0,0.0,0.0,0.0,0.0,0.0,0.0,0.0,0.0,-4.2642,-4.3466,-4.2941,-4.2571,-4.241,-4.1876,-4.119,-4.0363,-4.0183,-3.9608,-3.8655,0.0,0.0,0.0,0.0,0.0,0.0,-3.6155,-3.5943,-3.5576,-3.5568,-3.5254,-3.4811,-3.4811,-3.4328,-3.3616,-3.3372,-3.3075,-3.2731,-3.2403,-3.1969,-3.1461,-3.1148,-3.1424,-3.1731,-3.1455,-3.1405,-3.1336,-3.1042,-3.0663,-3.0231,-2.9765,-2.8598,-2.7453,-2.7027,-2.6168,-2.553,-2.568,-2.5659,-2.5605,-2.5717,-2.5733,-2.5598,-2.5269,-2.4726,-2.3905,-2.2604,-2.1802,-2.0964,-1.9985,-1.9654,-1.9523,-1.9523,-1.945,-1.9413,-1.9413,-1.9413,-1.9413,-1.9413,-1.9362,-1.9325,-1.9302,-1.9376,-1.9302,-1.9101,-1.8592,-1.7948,-1.7282,-1.7282,-1.7157,0.0,-3.4216,-3.4389,-3.5143,-3.4717,-3.3924,-3.3112,-3.2908,0.0,-3.0926,-3.0598,-3.0617,-3.0675,-3.0694,-3.0733,-3.0849,0.0,0.0,0.0,0.0,0.0,0.0,0.0,0.0,0.0,0.0,0.0,0.0,0.0,0.0,0.0,0.0,0.0,-4.1898,-4.1846,-4.1817,-4.1801,-4.0502,-3.984,-3.9819,-3.9308,-3.8672,-3.792,0.0,0.0,0.0,0.0,0.0,0.0,-3.5354,-3.4847,-3.4099,-3.4049,-3.4023,-3.4023,-3.4023,-3.3972,-3.3895,-3.3543,-3.3385,-3.3223,-3.267,-3.182,-3.0852,-3.0052,-3.0664,-3.1526,-3.0835,-3.0681,-3.0578,-2.9799,-2.9641,-2.964,-2.93,-2.8388,-2.753,-2.7205,-2.636,-2.5696,-2.5881,-2.5917,-2.5917,-2.599,-2.5954,-2.5635,-2.4759,-2.411,-2.3189,-2.1729,-2.1104,-2.0512,-1.9797,-1.969,-1.9726,-1.969,-1.9523,-1.9413,-1.9413,-1.9538,-1.9611,-1.9611,-1.9669,-1.9632,-1.9538,-1.9538,-1.9265,-1.8745,-1.7908,-1.7323,-1.6918,-1.6918,-1.6918,-3.1497,0.0,-3.2319,-3.1894,-3.1642,-3.1449,0.0,-3.1197,-3.1081,0.0,0.0,0.0,0.0,0.0,0.0,0.0,0.0,0.0,0.0,0.0,0.0,0.0,0.0,0.0,0.0,0.0,0.0,0.0,0.0,0.0,0.0,0.0,0.0,-4.1068,-4.1029,-4.0949,-4.0901,-4.0585,-4.0302,-4.0081,-3.9153,-3.855,-3.819,0.0,0.0,0.0,0.0,0.0,-3.4494,-3.447,-3.4358,-3.4173,-3.4173,-3.4148,-3.4148,-3.4148,-3.4148,-3.4006,-3.3195,-3.2675,-3.2213,-3.0963,-3.0377,-3.0136,-2.9896,-3.0021,-3.023,-3.0056,-3.0004,-3.0003,-2.9812,-2.9308,-2.8791,-2.8408,-2.7641,-2.6928,-2.6507,-2.6158,-2.5954,-2.6096,-2.6043,-2.6026,-2.6115,-2.6132,-2.5884,-2.5106,-2.4397,-2.3407,-2.1903,-2.1205,-2.0512,-1.9797,-1.9762,-1.9762,-1.969,-1.9654,-1.9617,-1.9617,-1.9596,-1.9611,-1.9611,-1.9538,-1.9339,-1.8988,-1.8745,-1.8422,-1.8028,-1.7828,-1.7516,-1.7115,-1.7115,-1.7115,-3.0616,-3.1149,-3.17,-3.1255,-3.1449,-3.1642,-3.1236,0.0,0.0,0.0,0.0,0.0,0.0,0.0,0.0,0.0,0.0,0.0,0.0,0.0,0.0,0.0,0.0,0.0,0.0,0.0,0.0,0.0,0.0,0.0,0.0,0.0,0.0,0.0,-4.0178,-4.0308,-4.0635,-4.0519,-4.0197,-3.9639,-3.8956,-3.8102,-3.7136,0.0,0.0,0.0,0.0,0.0,-3.4197,-3.4197,-3.4197,-3.4197,-3.4197,-3.4197,-3.416,-3.3788,-3.3616,-3.3481,-3.2593,-3.2077,-3.1601,-3.0324,-2.9781,-2.9576,-2.9074,-2.8876,-2.8896,-2.9149,-2.9303,-2.9251,-2.8885,-2.8481,-2.8119,-2.7786,-2.7296,-2.6808,-2.6468,-2.6241,-2.617,-2.6203,-2.6187,-2.617,-2.6203,-2.5938,-2.5407,-2.4544,-2.3786,-2.2785,-2.1376,-2.0881,-2.046,-1.9919,-1.9884,-1.9884,-1.9848,-1.9869,-1.9818,-1.9762,-1.9777,-1.9792,-1.9792,-1.9705,-1.9487,-1.9064,-1.8745,-1.8397,-1.7975,-1.7975,-1.7774,-1.7365,-1.7365,-1.7365,-3.0692,-3.1332,-3.1971,-3.1835,-3.2464,-3.2908,0.0,0.0,0.0,0.0,0.0,0.0,0.0,0.0,0.0,0.0,0.0,0.0,0.0,0.0,0.0,0.0,0.0,0.0,0.0,0.0,0.0,0.0,0.0,0.0,0.0,0.0,0.0,0.0,-3.9359,-3.9637,-4.0314,-4.0081,-3.9588,-3.8848,-3.8461,-3.7406,-3.5829,-3.5694,0.0,0.0,0.0,0.0,-3.4179,-3.4067,-3.4011,-3.3993,-3.3881,-3.3826,-3.3751,-3.3064,-3.2781,-3.2622,-3.1807,-3.132,-3.0925,-2.9937,-2.944,-2.9012,-2.8152,-2.7795,-2.7794,-2.8355,-2.8565,-2.8474,-2.7792,-2.7659,-2.7642,-2.7478,-2.7198,-2.694,-2.6691,-2.6452,-2.6243,-2.6054,-2.6092,-2.6077,-2.5924,-2.5393,-2.4612,-2.3603,-2.2916,-2.2037,-2.0673,-2.0527,-2.0392,-2.0061,-2.0041,-2.0076,-2.0041,-2.0115,-2.008,-1.9904,-1.999,-2.0025,-1.9955,-1.9919,-1.9705,-1.9339,-1.8988,-1.8606,-1.8202,-1.8202,-1.7989,-1.7611,-1.7516,-1.7516,-3.1579,-3.224,-3.2715,-3.199,-3.2464,-3.3063,0.0,0.0,0.0,0.0,0.0,0.0,0.0,0.0,0.0,0.0,0.0,0.0,0.0,0.0,0.0,0.0,0.0,0.0,0.0,0.0,0.0,0.0,0.0,0.0,0.0,0.0,0.0,0.0,0.0,-3.847,-3.8574,-3.8498,-3.8381,-3.8232,-3.722,-3.65,-3.6024,-3.5179,-3.4562,0.0,0.0,-3.4197,-3.4141,-3.3473,-3.3175,-3.312,-3.2414,-3.2154,-3.2135,-3.2024,-3.1968,-3.1811,-3.068,-2.9801,-2.9138,-2.8569,-2.8314,-2.8184,-2.7953,-2.7795,-2.7748,-2.8023,-2.7983,-2.7829,-2.7707,-2.7701,-2.7672,-2.7582,-2.7276,-2.6973,-2.6791,-2.6486,-2.6021,-2.5392,-2.5328,-2.5162,-2.453,-2.4396,-2.3982,-2.2916,-2.2654,-2.2086,-2.0758,-2.0597,-2.0512,-2.027,-2.0304,-2.032,-2.027,-2.0357,-2.0392,-2.0304,-2.027,-2.0115,-1.9839,-1.95,-1.9184,-1.8898,-1.8503,-1.8268,-1.8202,-1.8202,-1.8149,-1.8069,-1.7693,-1.7557,-3.1212,-3.2085,-3.3121,-3.3189,-3.3518,-3.3789,0.0,0.0,0.0,0.0,0.0,0.0,0.0,0.0,0.0,0.0,0.0,0.0,0.0,0.0,0.0,0.0,0.0,0.0,0.0,0.0,0.0,0.0,0.0,0.0,0.0,0.0,0.0,0.0,0.0,-3.729,-3.6845,-3.6779,-3.6986,-3.745,-3.6914,-3.6293,-3.5602,-3.5022,-3.463,0.0,0.0,-3.3547,-3.3491,-3.2674,-3.234,-3.2302,-3.1931,-3.1782,-3.1745,-3.1299,-3.0894,-3.0426,-2.9861,-2.9429,-2.9067,-2.8669,-2.8492,-2.837,-2.8164,-2.8053,-2.7979,-2.8025,-2.7968,-2.7864,-2.7933,-2.795,-2.7864,-2.7701,-2.7369,-2.695,-2.633,-2.6,-2.5581,-2.4763,-2.4712,-2.4628,-2.4228,-2.389,-2.3474,-2.2861,-2.234,-2.1712,-2.0925,-2.0712,-2.0595,-2.0426,-2.0441,-2.0475,-2.0561,-2.0646,-2.0579,-2.0254,-2.022,-2.008,-1.9767,-1.9457,-1.9236,-1.9109,-1.8836,-1.8697,-1.8697,-1.8697,-1.8697,-1.8697,-1.8279,-1.8187,-3.113,-3.2044,-3.3305,-3.4176,0.0,0.0,0.0,0.0,0.0,0.0,0.0,0.0,0.0,0.0,0.0,0.0,0.0,0.0,0.0,0.0,0.0,0.0,0.0,0.0,0.0,0.0,0.0,0.0,0.0,0.0,0.0,0.0,0.0,0.0,0.0,0.0,-3.5704,-3.5643,-3.596,-3.6605,-3.6605,-3.6105,-3.5216,-3.4857,-3.4585,-3.4331,-3.3294,-3.2829,-3.275,-3.1905,-3.157,-3.1511,-3.1325,-3.125,-3.1195,-3.0562,-2.9948,-2.9409,-2.9368,-2.9326,-2.9262,-2.8952,-2.8767,-2.8626,-2.838,-2.8255,-2.8191,-2.8182,-2.8109,-2.8126,-2.8164,-2.8136,-2.8017,-2.7674,-2.7273,-2.673,-2.5785,-2.5399,-2.4975,-2.4188,-2.4115,-2.4113,-2.3818,-2.3358,-2.2942,-2.2687,-2.2038,-2.1462,-2.1087,-2.0893,-2.0777,-2.0695,-2.0695,-2.0712,-2.0827,-2.0909,-2.0745,-2.0185,-2.0204,-2.0115,-1.9797,-1.9632,-1.9545,-1.9479,-1.931,-1.925,-1.925,-1.9176,-1.9176,-1.9139,-1.8822,-1.8745,-3.2344,-3.2805,-3.3305,-3.4176,0.0,0.0,0.0,0.0,0.0,0.0,0.0,0.0,0.0,0.0,0.0,0.0,0.0,0.0,0.0,0.0,0.0,0.0,0.0,0.0,0.0,0.0,0.0,0.0,0.0,0.0,0.0,0.0,0.0,0.0,0.0,0.0,-3.5704,-3.5704,-3.5693,-3.5678,-3.5693,-3.5547,-3.5262,-3.4442,-3.3952,-3.371,-3.2769,-3.2336,-3.2202,-3.1257,-3.0839,-3.0686,-2.9978,-2.9679,-2.966,-2.9604,-2.9548,-2.9472,-2.9291,-2.9141,-2.898,-2.8791,-2.8543,-2.8327,-2.83,-2.8255,-2.8228,-2.8327,-2.8353,-2.8327,-2.8154,-2.8099,-2.7958,-2.7368,-2.6725,-2.6115,-2.5467,-2.4824,-2.42,-2.3583,-2.3536,-2.3328,-2.2666,-2.2552,-2.2417,-2.1953,-2.1831,-2.1648,-2.123,-2.1183,-2.1167,-2.1246,-2.1246,-2.1151,-2.0893,-2.1055,-2.0909,-2.0339,-2.0561,-2.0527,-1.999,-2.001,-1.9925,-1.969,-1.9639,-1.9654,-1.9654,-1.9487,-1.9376,-1.9376,-1.8988,-1.8898,-3.1938,-3.2833,-3.3878,-3.4301,0.0,0.0,0.0,0.0,0.0,0.0,0.0,0.0,0.0,0.0,0.0,0.0,0.0,0.0,0.0,0.0,0.0,0.0,0.0,0.0,0.0,0.0,0.0,0.0,0.0,0.0,0.0,0.0,0.0,0.0,0.0,0.0,0.0,-3.5162,-3.4872,-3.4861,-3.5411,-3.5326,-3.4655,-3.4216,-3.3632,-3.2959,-3.1934,-3.1431,-3.1259,-3.0394,-3.0018,-2.9922,-2.9623,-2.9492,-2.9492,-2.9492,-2.9492,-2.9492,-2.9414,-2.9353,-2.9267,-2.9044,-2.8881,-2.8743,-2.8562,-2.8484,-2.8458,-2.8458,-2.8484,-2.851,-2.8432,-2.8406,-2.8182,-2.7305,-2.6792,-2.6153,-2.4784,-2.4144,-2.365,-2.2966,-2.2897,-2.2811,-2.2417,-2.2432,-2.2405,-2.2089,-2.1928,-2.1781,-2.1587,-2.1511,-2.145,-2.1417,-2.1615,-2.1645,-2.1417,-2.1495,-2.1402,-2.0958,-2.0728,-2.0426,-2.0005,-2.0239,-2.0326,-2.0258,-2.0465,-2.0632,-2.0747,-2.0481,-2.0345,-2.0413,-2.0019,-1.9914,-3.1905,-3.29,-3.4263,0.0,0.0,0.0,0.0,0.0,0.0,0.0,0.0,0.0,0.0,0.0,0.0,0.0,0.0,0.0,0.0,0.0,0.0,0.0,0.0,0.0,0.0,0.0,0.0,0.0,0.0,0.0,0.0,0.0,0.0,0.0,0.0,0.0,0.0,-3.4719,-3.4274,-3.3993,-3.4582,-3.4533,-3.3912,-3.3492,-3.2948,-3.2297,-3.1253,-3.0717,-3.0544,-2.9981,-2.9664,-2.9569,-2.9569,-2.9569,-2.9569,-2.9569,-2.9569,-2.9569,-2.9569,-2.9492,-2.9336,-2.8889,-2.8868,-2.886,-2.8136,-2.8082,-2.8227,-2.7924,-2.7852,-2.7919,-2.7919,-2.8026,-2.7817,-2.6606,-2.6074,-2.5489,-2.4034,-2.3515,-2.3196,-2.2708,-2.2659,-2.2632,-2.246,-2.2515,-2.2487,-2.2265,-2.2118,-2.2032,-2.1945,-2.1873,-2.1814,-2.1751,-2.1982,-2.2039,-2.1768,-2.1869,-2.1794,-2.1417,-2.1119,-2.0763,-2.0361,-2.0648,-2.0845,-2.0878,-2.1086,-2.1275,-2.1448,-2.1087,-2.0958,-2.1023,-2.0797,-2.0731,-3.2487,-3.3176,0.0,0.0,0.0,0.0,0.0,0.0,0.0,0.0,0.0,0.0,0.0,0.0,0.0,0.0,0.0,0.0,0.0,0.0,0.0,0.0,0.0,0.0,0.0,0.0,0.0,0.0,0.0,0.0,0.0,0.0,0.0,0.0,0.0,0.0,0.0,-3.44,-3.3945,-3.3084,-3.3083,-3.3082,-3.3063,-3.2193,-3.1797,-3.1729,-3.0797,-3.0328,-3.0202,-3.0049,-2.9876,-2.9701,-2.9701,-2.9701,-2.9701,-2.9683,-2.9683,-2.9683,-2.9664,-2.9454,-2.9042,-2.8248,-2.8349,-2.8476,-2.6891,-2.6968,-2.7424,-2.6617,-2.6399,-2.6399,-2.6381,-2.6736,-2.6702,-2.517,-2.4435,-2.3929,-2.3252,-2.2876,-2.2738,-2.2893,-2.2902,-2.2868,-2.2738,-2.2712,-2.2605,-2.2338,-2.2366,-2.2349,-2.222,-2.2265,-2.231,-2.231,-2.2419,-2.233,-2.184,-2.2124,-2.2091,-2.1642,-2.1794,-2.1658,-2.1134,-2.1385,-2.1507,-2.1507,-2.1446,-2.1446,-2.1507,-2.1119,-2.0975,-2.1102,-2.107,-2.1101,-3.226,0.0,0.0,0.0,0.0,0.0,0.0,0.0,0.0,0.0,0.0,0.0,0.0,0.0,0.0,0.0,0.0,0.0,0.0,0.0,0.0,0.0,0.0,0.0,0.0,0.0,0.0,0.0,0.0,0.0,0.0,0.0,0.0,0.0,0.0,0.0,0.0,0.0,-3.2501,-3.2249,-3.1631,-3.1632,-3.2184,-3.1932,-3.1438,-3.0797,-3.0524,-3.0273,-3.0056,-2.9853,-2.9754,-2.9701,-2.9701,-2.9719,-2.9716,-2.9077,-2.8904,-2.8915,-2.8275,-2.8018,-2.7876,-2.7546,-2.7438,-2.7352,-2.673,-2.664,-2.6709,-2.6472,-2.6465,-2.6402,-2.5853,-2.5728,-2.5615,-2.5077,-2.4746,-2.4367,-2.3495,-2.3164,-2.3095,-2.3168,-2.3217,-2.3175,-2.301,-2.2902,-2.2747,-2.2483,-2.2371,-2.2349,-2.2388,-2.2579,-2.2659,-2.2542,-2.2773,-2.2712,-2.2243,-2.232,-2.2368,-2.2296,-2.2313,-2.2147,-2.1731,-2.2034,-2.2186,-2.2186,-2.232,-2.2419,-2.2473,-2.201,-2.1803,-2.1852,-1.7447,-1.544,-3.3008,0.0,0.0,0.0,0.0,0.0,0.0,0.0,0.0,0.0,0.0,0.0,0.0,0.0,0.0,0.0,0.0,0.0,0.0,0.0,0.0,0.0,0.0,0.0,0.0,0.0,0.0,0.0,0.0,0.0,0.0,0.0,0.0,0.0,0.0,0.0,0.0,0.0,0.0,-3.1421,-3.0862,-3.0845,-3.1322,-3.1322,-3.1004,-3.0472,-3.0398,-3.0235,-2.9958,-2.9463,-2.9246,-2.9192,-2.8872,-2.8793,-2.8766,-2.8256,-2.8099,-2.8108,-2.7578,-2.7327,-2.7194,-2.6756,-2.6711,-2.6632,-2.5869,-2.5823,-2.596,-2.563,-2.5621,-2.561,-2.5131,-2.4907,-2.4769,-2.4644,-2.4414,-2.4113,-2.3544,-2.3353,-2.3313,-2.3407,-2.3453,-2.3435,-2.3242,-2.3116,-2.2985,-2.273,-2.2624,-2.2659,-2.2825,-2.301,-2.306,-2.2876,-2.3157,-2.3157,-2.2721,-2.2773,-2.2807,-2.2755,-2.2721,-2.2616,-2.2419,-2.259,-2.2643,-2.2537,-2.2677,-2.279,-2.285,-2.0009,-1.874,-1.8765,-1.2576,-0.9717,0.0,0.0,0.0,0.0,0.0,0.0,0.0,0.0,0.0,0.0,0.0,0.0,0.0,0.0,0.0,0.0,0.0,0.0,0.0,0.0,0.0,0.0,0.0,0.0,0.0,0.0,0.0,0.0,0.0,0.0,0.0,0.0,0.0,0.0,0.0,0.0,0.0,0.0,0.0,0.0,-3.0607,-3.0571,-3.0494,-3.0571,-3.0543,-3.0449,-3.0186,-2.9966,-2.9707,-2.885,-2.8466,-2.8336,-2.7584,-2.7346,-2.7403,-2.7327,-2.7308,-2.729,-2.7233,-2.7038,-2.6725,-2.5993,-2.6061,-2.616,-2.4707,-2.4781,-2.5224,-2.4431,-2.4303,-2.4412,-2.443,-2.4321,-2.421,-2.4095,-2.3735,-2.3477,-2.3544,-2.3508,-2.3499,-2.3616,-2.3638,-2.3576,-2.3477,-2.3382,-2.3277,-2.3067,-2.3035,-2.3151,-2.3394,-2.3427,-2.3387,-2.3319,-2.3535,-2.354,-2.3151,-2.3365,-2.3389,-2.3077,-2.3052,-2.2813,-2.2297,-2.277,-2.266,-2.1919,-2.1956,-2.1759,-2.1242,-1.5492,-1.2791,-1.2858,-0.6688,-0.391,0.0,0.0,0.0,0.0,0.0,0.0,0.0,0.0,0.0,0.0,0.0,0.0,0.0,0.0,0.0,0.0,0.0,0.0,0.0,0.0,0.0,0.0,0.0,0.0,0.0,0.0,0.0,0.0,0.0,0.0,0.0,0.0,0.0,0.0,0.0,0.0,-3.0982,-3.0962,-3.0528,0.0,-3.0353,-3.0326,-2.9686,-3.0308,-3.0189,-2.9467,-2.8683,-2.8253,-2.8101,-2.7842,-2.7691,-2.7623,-2.7453,-2.7418,-2.74,-2.6768,-2.6567,-2.6524,-2.5888,-2.5647,-2.5565,-2.5393,-2.5253,-2.5123,-2.4782,-2.4659,-2.4598,-2.4413,-2.4429,-2.4478,-2.4545,-2.4578,-2.4561,-2.4497,-2.4116,-2.3816,-2.3955,-2.3876,-2.3834,-2.3974,-2.3855,-2.3753,-2.3795,-2.3642,-2.3486,-2.3341,-2.3387,-2.3495,-2.354,-2.3649,-2.3628,-2.3387,-2.3584,-2.3602,-2.3365,-2.3535,-2.3642,-2.3549,-2.3491,-2.1451,-1.6922,-2.0856,-2.113,-1.6803,-1.6683,-1.4328,-0.9601,-0.808,-0.7187,-0.6759,-0.0559,0.2254,0.0,0.0,0.0,0.0,0.0,0.0,0.0,0.0,0.0,0.0,0.0,0.0,0.0,0.0,0.0,0.0,0.0,0.0,0.0,0.0,0.0,0.0,0.0,0.0,0.0,0.0,0.0,0.0,0.0,0.0,0.0,0.0,0.0,0.0,-3.1631,-3.1203,-3.0761,-3.0327,-2.9899,-2.9452,-2.9491,-2.9277,-2.8843,-2.9654,-2.9505,-2.8593,-2.8115,-2.7826,-2.7654,-2.7172,-2.6956,-2.6918,-2.6466,-2.6346,-2.6352,-2.5932,-2.5803,-2.578,-2.534,-2.513,-2.5025,-2.5087,-2.4869,-2.462,-2.4666,-2.4626,-2.4549,-2.4513,-2.4578,-2.4704,-2.4734,-2.4734,-2.467,-2.461,-2.4373,-2.4135,-2.4153,-2.4075,-2.4036,-2.4171,-2.4075,-2.4016,-2.4077,-2.3917,-2.3771,-2.3692,-2.3756,-2.3801,-2.3837,-2.3958,-2.3939,-2.3671,-2.3819,-2.3837,-2.3616,-2.3728,-2.3728,-2.3567,-2.3486,-2.0789,-1.4821,-1.7288,-1.6204,-1.0649,-1.0582,-0.8913,-0.5522,-0.2486,-0.0881,-0.0435,0.575,0.8611,0.0,0.0,0.0,0.0,0.0,0.0,0.0,0.0,0.0,0.0,0.0,0.0,0.0,0.0,0.0,0.0,0.0,0.0,0.0,0.0,0.0,0.0,0.0,0.0,0.0,0.0,0.0,0.0,0.0,0.0,0.0,0.0,-3.187,-3.187,-3.1169,-3.0721,-3.0585,-2.9864,-2.9357,-2.9046,-2.8325,-2.7974,-2.7994,-2.8649,-2.8534,-2.7789,-2.7617,-2.7473,-2.7315,-2.6514,-2.6222,-2.6194,-2.5428,-2.5149,-2.5192,-2.5192,-2.5212,-2.5222,-2.5222,-2.508,-2.4929,-2.5031,-2.4809,-2.4538,-2.4651,-2.47,-2.4719,-2.467,-2.4779,-2.4912,-2.494,-2.4847,-2.4741,-2.4682,-2.4591,-2.4441,-2.4302,-2.4229,-2.421,-2.4357,-2.4303,-2.4247,-2.4266,-2.4134,-2.4016,-2.4036,-2.4019,-2.4039,-2.4113,-2.421,-2.421,-2.3978,-2.4096,-2.4096,-2.385,-2.3894,-2.3394,-2.2104,-2.1948,-1.8735,-1.1599,-1.1234,-0.8442,-0.2564,-0.3684,-0.3555,-0.2004,0.3052,0.5604,0.595,1.1094,1.3515,0.0,0.0,0.0,0.0,0.0,0.0,0.0,0.0,0.0,0.0,0.0,0.0,0.0,0.0,0.0,0.0,0.0,0.0,0.0,0.0,0.0,0.0,0.0,0.0,0.0,0.0,0.0,0.0,0.0,0.0,0.0,-3.1451,-3.0974,-3.0974,-3.0857,-3.0429,-2.9669,-2.9552,-2.8734,-2.7258,-2.7125,-2.7071,-2.7071,-2.7184,-2.7138,-2.6915,-2.6093,-2.5696,-2.5618,-2.5437,-2.5365,-2.5357,-2.5239,-2.5182,-2.5192,-2.5192,-2.5241,-2.5282,-2.5282,-2.5302,-2.5322,-2.5341,-2.5201,-2.5012,-2.5024,-2.4955,-2.487,-2.4861,-2.4921,-2.5006,-2.513,-2.5063,-2.4968,-2.4955,-2.4893,-2.4764,-2.4512,-2.4497,-2.4564,-2.4639,-2.4491,-2.4338,-2.4229,-2.4077,-2.4036,-2.4154,-2.4172,-2.419,-2.419,-2.4191,-2.4192,-2.4173,-2.4192,-2.4135,-2.3976,-2.4016,-2.1896,-1.6781,-1.6405,-1.1479,-0.0587,0.0042,0.3287,1.0048,0.4604,0.4502,1.0056,1.0767,1.1561,1.2393,1.3324,1.3763,0.0,0.0,0.0,0.0,0.0,0.0,0.0,0.0,0.0,0.0,0.0,0.0,0.0,0.0,0.0,0.0,0.0,0.0,0.0,0.0,0.0,0.0,0.0,0.0,0.0,0.0,0.0,0.0,0.0,0.0,-3.139,-3.1016,-3.082,-3.0846,-3.0378,0.0,-2.9564,-2.8589,-2.7476,-2.623,-2.6232,-2.6232,-2.6232,-2.6232,-2.622,-2.617,-2.5707,-2.5504,-2.5459,-2.5398,-2.5367,-2.5365,-2.5331,-2.5303,-2.5303,-2.5303,-2.5332,-2.5361,-2.5361,-2.5322,-2.5303,-2.5378,-2.5293,-2.5165,-2.5163,-2.5133,-2.513,-2.5068,-2.5111,-2.5179,-2.5234,-2.5205,-2.5163,-2.516,-2.5122,-2.5031,-2.4923,-2.4804,-2.4704,-2.4704,-2.4559,-2.4442,-2.4445,-2.4392,-2.4338,-2.4355,-2.4426,-2.441,-2.421,-2.421,-2.4173,-2.4114,-2.4057,-2.2722,-1.9462,-1.9236,-1.6698,-1.0553,-1.012,-0.6192,0.254,0.3011,0.6158,1.2725,0.9802,0.9919,1.3294,1.316,1.3409,1.3941,1.4093,1.4197,0.0,0.0,0.0,0.0,0.0,0.0,0.0,0.0,0.0,0.0,0.0,0.0,0.0,0.0,0.0,0.0,0.0,0.0,0.0,0.0,0.0,0.0,0.0,0.0,0.0,0.0,0.0,0.0,0.0,0.0,-3.0862,-3.0825,-3.0749,-3.0577,-2.9933,-2.9387,-2.8941,-2.7437,-2.6344,-2.57,-2.57,-2.5701,-2.5702,-2.5702,-2.5699,-2.5709,-2.5632,-2.5601,-2.5597,-2.5537,-2.5506,-2.5505,-2.5441,-2.5429,-2.5437,-2.544,-2.5432,-2.5432,-2.5432,-2.5367,-2.5311,-2.5418,-2.5379,-2.528,-2.5272,-2.5299,-2.5307,-2.5255,-2.5293,-2.534,-2.5357,-2.5337,-2.5339,-2.5331,-2.5274,-2.5224,-2.516,-2.5006,-2.4847,-2.4764,-2.4673,-2.461,-2.4676,-2.4639,-2.4588,-2.4545,-2.4594,-2.4528,-2.4192,-2.2928,-2.2028,-2.187,-2.0553,-1.7899,-1.3489,-1.3111,-1.0442,-0.4176,-0.3714,-0.0848,0.5458,0.582,0.821,1.312,1.3044,1.3369,1.4201,1.4082,1.4222,1.4628,1.4731,1.4926,0.0,0.0,0.0,0.0,0.0,0.0,0.0,0.0,0.0,0.0,0.0,0.0,0.0,0.0,0.0,0.0,0.0,0.0,0.0,0.0,0.0,0.0,0.0,0.0,0.0,0.0,0.0,0.0,0.0,0.0,-3.0907,-3.0892,-3.0523,-2.9683,-2.9624,-2.8804,-2.7144,-2.6226,-2.5739,-2.57,-2.5702,-2.5703,-2.5703,-2.5703,-2.5703,-2.5703,-2.5629,-2.5593,-2.5595,-2.5522,-2.5493,-2.5492,-2.5511,-2.5486,-2.5486,-2.5498,-2.5495,-2.5495,-2.5495,-2.5531,-2.5589,-2.5595,-2.5543,-2.5471,-2.5471,-2.5447,-2.5388,-2.5388,-2.5398,-2.5422,-2.5479,-2.5432,-2.5387,-2.5387,-2.5335,-2.5236,-2.5049,-2.5038,-2.5044,-2.4915,-2.4879,-2.4884,-2.4874,-2.4785,-2.4663,-2.4588,-2.4561,-2.4392,-2.4037,-1.9532,-1.6271,-1.6068,-1.125,-0.774,-0.6931,-0.6715,-0.3974,0.2124,0.259,0.5281,1.1233,1.1777,1.2541,1.3721,1.4283,1.4606,1.4663,1.4663,1.5017,1.57,1.5844,1.5901,0.0,0.0,0.0,0.0,0.0,0.0,0.0,0.0,0.0,0.0,0.0,0.0,0.0,0.0,0.0,0.0,0.0,0.0,0.0,0.0,0.0,0.0,0.0,0.0,0.0,0.0,0.0,0.0,0.0,0.0,-3.0892,-3.0366,-2.9918,-2.9607,-2.8513,-2.7362,-2.6172,-2.5859,-2.5703,-2.5703,-2.5703,-2.5702,-2.5702,-2.5702,-2.5702,-2.5702,-2.5664,-2.5641,-2.5609,-2.557,-2.557,-2.557,-2.5561,-2.5535,-2.5505,-2.555,-2.5564,-2.5557,-2.5549,-2.5576,-2.5595,-2.5604,-2.5585,-2.5561,-2.5566,-2.554,-2.5517,-2.5486,-2.5505,-2.5531,-2.5561,-2.5549,-2.5518,-2.5476,-2.5461,-2.5393,-2.5233,-2.5099,-2.5032,-2.5032,-2.4961,-2.4907,-2.4893,-2.4861,-2.479,-2.461,-2.4629,-2.3216,-1.9297,-1.7078,-1.4269,-1.0133,-0.7766,-0.483,-0.0719,-0.0282,0.2333,0.8461,0.8979,1.0144,1.2502,1.3198,1.3711,1.4226,1.4858,1.5186,1.522,1.5445,1.5668,1.5944,1.6343,1.6514,0.0,0.0,0.0,0.0,0.0,0.0,0.0,0.0,0.0,0.0,0.0,0.0,0.0,0.0,0.0,0.0,0.0,0.0,0.0,0.0,0.0,0.0,0.0,0.0,0.0,0.0,0.0,0.0,0.0,0.0,-3.0467,-2.9647,-2.9023,-2.873,-2.7324,-2.6289,-2.5702,-2.5699,-2.5699,-2.57,-2.5699,-2.5698,-2.5698,-2.5697,-2.5541,-2.5266,-2.5265,-2.5233,-2.5192,-2.5195,-2.5027,-2.479,-2.5086,-2.5165,-2.5162,-2.5503,-2.5634,-2.563,-2.5636,-2.5632,-2.5626,-2.5629,-2.5634,-2.5637,-2.5632,-2.5636,-2.5621,-2.5578,-2.5609,-2.5624,-2.5632,-2.5628,-2.5574,-2.5518,-2.5461,-2.5415,-2.5322,-2.5168,-2.5082,-2.5125,-2.5044,-2.4961,-2.4934,-2.4942,-2.4869,-2.4575,-2.4575,-2.2483,-1.6528,-1.3941,-1.0303,-0.4164,-0.1522,0.1525,0.571,0.6158,0.8045,1.2318,1.2909,1.3226,1.3579,1.4226,1.4687,1.4778,1.5552,1.6003,1.6051,1.6312,1.6484,1.6625,1.7133,1.734,0.0,0.0,0.0,0.0,0.0,0.0,0.0,0.0,0.0,0.0,0.0,0.0,0.0,0.0,0.0,0.0,0.0,0.0,0.0,0.0,0.0,0.0,0.0,0.0,0.0,0.0,0.0,0.0,0.0,-2.959,-2.9551,-2.8749,-2.7868,-2.6989,-2.6149,-2.57,-2.57,-2.5696,-2.5696,-2.5699,-2.5696,-2.5693,-2.5693,-2.567,-2.5197,-2.4393,-2.4364,-2.4356,-2.4334,-2.4355,-2.3867,-2.3183,-2.4032,-2.436,-2.4464,-2.5334,-2.5657,-2.5671,-2.569,-2.5703,-2.5694,-2.5694,-2.5702,-2.5702,-2.5701,-2.5703,-2.57,-2.5702,-2.5693,-2.5693,-2.5705,-2.5642,-2.5576,-2.551,-2.5398,-2.5302,-2.5303,-2.5253,-2.5201,-2.5203,-2.5137,-2.5069,-2.4994,-2.5037,-2.4873,-2.4232,-2.4217,-2.2018,-1.579,-0.9809,-0.3934,0.1872,0.7902,1.1719,1.2126,1.2491,1.2957,1.361,1.419,1.4595,1.4709,1.532,1.5588,1.5466,1.6562,1.7149,1.7149,1.7299,1.7476,1.7828,1.8305,1.8461,-2.5968,0.0,0.0,0.0,0.0,0.0,0.0,0.0,0.0,0.0,0.0,0.0,0.0,0.0,0.0,0.0,0.0,0.0,0.0,0.0,0.0,0.0,0.0,0.0,0.0,0.0,0.0,0.0,-3.0213,-2.9315,-2.869,-2.783,-2.6969,-2.6091,-2.5834,-2.5694,-2.5691,-2.5707,-2.5703,-2.5701,-2.5698,-2.5673,-2.56,-2.5038,-2.4602,-2.43,-2.3669,-2.3059,-2.2574,-2.3201,-2.333,-2.3124,-2.3378,-2.3437,-2.3493,-2.4427,-2.4756,-2.4853,-2.5484,-2.5703,-2.5703,-2.5702,-2.5664,-2.5641,-2.5684,-2.5677,-2.564,-2.5698,-2.5698,-2.5693,-2.564,-2.5616,-2.5571,-2.5525,-2.5476,-2.5432,-2.5378,-2.536,-2.5284,-2.5087,-2.5082,-2.5019,-2.476,-2.476,-2.3328,-1.891,-1.8312,-1.4591,-0.4234,-0.1428,0.2118,0.867,1.1217,1.2628,1.3132,1.3852,1.4307,1.4387,1.496,1.5276,1.5209,1.6176,1.6689,1.6646,1.7612,1.821,1.8478,1.8263,1.8226,1.8305,1.9006,1.9449,0.0,0.0,0.0,0.0,0.0,0.0,0.0,0.0,0.0,0.0,0.0,0.0,0.0,0.0,0.0,0.0,0.0,0.0,0.0,0.0,0.0,0.0,0.0,0.0,0.0,0.0,0.0,0.0,-2.9605,-2.8294,-2.7783,-2.7276,-2.6767,-2.6257,-2.6234,-2.6074,-2.5701,-2.5668,-2.5486,-2.5161,-2.5125,-2.492,-2.4546,-2.4035,-2.3599,-2.3182,-2.2687,-2.1994,-2.1253,-2.1757,-2.1961,-2.2001,-2.241,-2.2531,-2.2655,-2.3926,-2.4394,-2.4512,-2.5409,-2.5699,-2.5693,-2.5664,-2.5634,-2.5602,-2.5648,-2.5623,-2.5603,-2.5643,-2.5683,-2.5699,-2.5642,-2.5613,-2.5586,-2.5525,-2.5476,-2.5432,-2.5303,-2.5264,-2.5231,-2.5075,-2.5094,-2.4269,-2.1534,-2.113,-1.916,-1.3173,-1.2104,-0.86,0.0796,0.2592,0.5397,1.1713,1.3102,1.3721,1.4025,1.4846,1.5363,1.5419,1.6151,1.6549,1.6519,1.7313,1.776,1.7892,1.8598,1.9214,1.9743,1.9214,1.9118,1.9485,1.9844,2.0124,-2.6823,0.0,0.0,0.0,0.0,0.0,-2.9945,-2.9412,0.0,0.0,0.0,0.0,0.0,0.0,0.0,0.0,0.0,0.0,0.0,0.0,0.0,0.0,0.0,0.0,0.0,0.0,-3.205,-3.1952,-2.8958,-2.7132,-2.712,-2.7042,-2.7,-2.6991,-2.6893,-2.6464,-2.5701,-2.5636,-2.5243,-2.4521,-2.4462,-2.4064,-2.3365,-2.3203,-2.2707,-2.1964,-2.1872,-2.1386,-2.0681,-2.0659,-2.0565,-2.0489,-2.1318,-2.1655,-2.1854,-2.3508,-2.4115,-2.4248,-2.5105,-2.5412,-2.54,-2.5324,-2.5313,-2.5301,-2.5328,-2.5387,-2.5483,-2.5584,-2.5655,-2.5701,-2.5709,-2.5652,-2.5576,-2.5511,-2.5461,-2.5351,-2.5171,-2.5122,-2.5125,-2.5082,-2.4607,-2.2458,-1.7037,-1.5613,-1.3175,-0.7107,-0.5672,-0.3189,0.2631,0.4658,0.7472,1.2483,1.4043,1.4778,1.4869,1.5656,1.6253,1.6612,1.7545,1.809,1.8249,1.8574,1.8878,1.917,1.9621,2.0212,2.0909,2.0143,2.0124,2.0811,2.0747,2.0747,-2.7584,-2.7537,-2.7541,0.0,0.0,0.0,0.0,-2.7236,0.0,0.0,0.0,0.0,0.0,0.0,0.0,0.0,0.0,0.0,0.0,0.0,0.0,0.0,0.0,0.0,0.0,0.0,-3.1816,-3.1116,-2.9132,-2.7975,-2.7969,-2.7348,-2.6991,-2.6915,-2.6229,-2.5788,-2.5625,-2.5615,-2.5512,-2.5371,-2.536,-2.5246,-2.5014,-2.4297,-2.387,-2.3682,-2.2963,-2.2543,-2.233,-2.2395,-2.1629,-2.0426,-2.0601,-2.0706,-2.088,-2.1911,-2.2307,-2.2437,-2.3293,-2.3614,-2.3595,-2.3536,-2.3517,-2.3529,-2.3579,-2.4088,-2.4786,-2.5488,-2.5699,-2.5702,-2.5702,-2.5648,-2.5579,-2.5525,-2.5456,-2.5395,-2.5351,-2.5293,-2.5212,-2.5043,-2.1187,-1.7541,-1.6246,-1.1822,-0.6518,-0.0725,0.0966,0.3772,0.9949,1.1491,1.266,1.4171,1.4628,1.5186,1.6016,1.6419,1.7061,1.8124,1.8589,1.8979,1.9236,1.9611,1.9913,2.0206,2.1037,2.1516,2.1698,2.1101,2.0878,2.1055,2.1397,2.1579,-2.8135,-2.8009,-2.7876,-2.7534,0.0,0.0,0.0,0.0,0.0,0.0,0.0,0.0,0.0,0.0,0.0,0.0,0.0,0.0,0.0,0.0,0.0,0.0,0.0,0.0,0.0,0.0,-3.0918,-2.9642,-2.8301,-2.7745,-2.8182,-2.7413,-2.6928,-2.685,-2.6422,-2.6004,-2.5593,-2.5576,-2.5331,-2.4897,-2.4891,-2.4658,-2.4191,-2.3744,-2.3528,-2.3485,-2.3036,-2.2819,-2.2754,-2.2799,-2.2319,-2.1565,-2.1169,-2.1016,-2.1114,-2.157,-2.1756,-2.1862,-2.2742,-2.3046,-2.3043,-2.2974,-2.2949,-2.2954,-2.2993,-2.3636,-2.4443,-2.4912,-2.5351,-2.5683,-2.565,-2.5601,-2.5543,-2.5499,-2.5418,-2.5332,-2.5252,-2.2706,-2.036,-2.0192,-1.2713,-0.7453,-1.0803,-0.5955,0.0351,0.6062,0.7792,0.9645,1.2939,1.4064,1.4711,1.5022,1.5438,1.607,1.6956,1.7103,1.7763,1.9256,1.9381,1.9676,2.0255,2.0487,2.0847,2.1401,2.2018,2.2398,2.2496,2.2346,2.2173,2.1955,2.2255,2.2434,0.0,0.0,0.0,0.0,0.0,-2.7239,0.0,0.0,0.0,0.0,0.0,0.0,0.0,0.0,0.0,0.0,0.0,0.0,0.0,0.0,0.0,0.0,0.0,0.0,0.0,0.0,-2.9805,-2.863,-2.7514,-2.7273,-2.815,-2.7365,-2.6856,-2.6793,-2.6638,-2.6223,-2.557,-2.5505,-2.5122,-2.4418,-2.4432,-2.4061,-2.3377,-2.3372,-2.3328,-2.3291,-2.3283,-2.3227,-2.317,-2.3199,-2.3218,-2.3159,-2.2188,-2.183,-2.183,-2.1709,-2.1681,-2.1779,-2.2313,-2.2502,-2.248,-2.2417,-2.2411,-2.2475,-2.2801,-2.345,-2.4155,-2.4542,-2.5156,-2.5683,-2.5623,-2.5566,-2.5511,-2.5483,-2.5397,-2.496,-2.3712,-1.9201,-1.5024,-1.3779,-0.4174,0.1952,-0.3774,0.0885,0.6996,1.1652,1.3205,1.3996,1.4404,1.5103,1.5642,1.5875,1.6216,1.6789,1.7718,1.7611,1.8278,2.0108,2.0051,2.0423,2.1379,2.1516,2.1864,2.2531,2.2838,2.3076,2.3229,2.3486,2.3374,2.2923,2.3041,2.3153,0.0,0.0,0.0,0.0,-2.8044,0.0,0.0,0.0,0.0,0.0,0.0,0.0,0.0,0.0,0.0,0.0,0.0,0.0,0.0,0.0,0.0,0.0,0.0,0.0,0.0,0.0,0.0,-2.9322,-2.7823,-2.7282,-2.8149,-2.7329,-2.6812,-2.681,-2.6059,-2.5584,-2.5412,-2.5432,-2.5365,-2.5269,-2.526,-2.5222,-2.5097,-2.5052,-2.5024,-2.5014,-2.4955,-2.4924,-2.4911,-2.4983,-2.4964,-2.4762,-2.3179,-2.2647,-2.2662,-2.1894,-2.1649,-2.1593,-2.0933,-2.0701,-2.0676,-2.0623,-2.0649,-2.0967,-2.2456,-2.3067,-2.3569,-2.5113,-2.5618,-2.5684,-2.5611,-2.5582,-2.5556,-2.5434,-2.535,-2.3862,-1.8609,-1.6166,-1.3443,-0.8252,-0.0749,0.4222,0.2528,0.8068,1.2914,1.357,1.4755,1.576,1.6481,1.6436,1.674,1.7691,1.6766,1.6615,1.8007,1.771,1.8349,2.0565,2.0864,2.1428,2.2565,2.3003,2.3264,2.3351,2.3566,2.3692,2.3714,2.3941,2.3801,2.3346,2.3459,2.3504,0.0,0.0,0.0,0.0,0.0,0.0,0.0,0.0,-2.5462,0.0,0.0,0.0,0.0,0.0,0.0,0.0,0.0,0.0,0.0,0.0,0.0,0.0,0.0,0.0,0.0,0.0,0.0,0.0,0.0,-2.6262,-2.6605,-2.6262,-2.6033,-2.5994,-2.5619,-2.5429,-2.5387,-2.5406,-2.5406,-2.5388,-2.5388,-2.5379,-2.5341,-2.5312,-2.5292,-2.5241,-2.522,-2.5176,-2.513,-2.5172,-2.5111,-2.4898,-2.3747,-2.3083,-2.2689,-2.1887,-2.1304,-2.0836,-2.0475,-2.0352,-2.0415,-2.0904,-2.1068,-2.134,-2.2584,-2.3349,-2.3968,-2.4722,-2.5271,-2.5618,-2.5504,-2.5512,-2.5506,-2.5331,-2.2703,-1.939,-1.6265,-0.9647,-0.3321,0.0197,0.6565,1.147,1.1667,1.3665,1.5425,1.6021,1.6757,1.7383,1.766,1.7582,1.7537,1.7715,1.7343,1.7464,1.8526,1.812,1.8836,2.128,2.2111,2.2723,2.3189,2.3522,2.3762,2.3948,2.4044,2.421,2.4437,2.4524,2.4437,2.4208,2.4192,2.4192,-2.8903,0.0,0.0,0.0,0.0,0.0,0.0,0.0,0.0,0.0,0.0,0.0,0.0,0.0,0.0,0.0,0.0,0.0,0.0,0.0,0.0,0.0,0.0,0.0,0.0,0.0,0.0,0.0,0.0,0.0,-2.513,-2.5139,-2.5216,-2.5385,-2.5376,-2.5367,-2.5369,-2.536,-2.537,-2.537,-2.537,-2.5351,-2.5282,-2.5271,-2.525,-2.5195,-2.5184,-2.5118,-2.5044,-2.5063,-2.4828,-2.4463,-2.389,-2.308,-2.2162,-2.1656,-2.1215,-2.0842,-2.0601,-2.0687,-2.1003,-2.1669,-2.1914,-2.21,-2.3017,-2.3764,-2.4345,-2.4631,-2.5154,-2.557,-2.543,-2.5447,-2.4954,-2.2874,-1.9177,-1.4944,-1.0619,-0.2301,0.5233,0.8127,1.3221,1.7396,1.8346,1.7596,1.7126,1.7963,1.8521,1.8897,1.9109,1.8931,1.8716,1.8434,1.8311,1.8441,1.8832,1.8573,1.9411,2.179,2.3127,2.3828,2.3888,2.4024,2.4229,2.4449,2.4465,2.4625,2.493,2.4907,2.4888,2.4866,2.4708,2.4651,0.0,0.0,0.0,0.0,0.0,0.0,0.0,0.0,-2.5597,0.0,0.0,0.0,0.0,0.0,0.0,0.0,0.0,0.0,0.0,0.0,0.0,0.0,0.0,0.0,0.0,0.0,0.0,0.0,0.0,0.0,-2.4166,-2.4246,-2.4593,-2.5379,-2.5351,-2.5313,-2.5313,-2.5302,-2.5292,-2.5292,-2.5292,-2.5282,-2.5192,-2.5209,-2.5195,-2.521,-2.5125,-2.5032,-2.4902,-2.4912,-2.4365,-2.354,-2.3599,-2.2565,-2.1048,-2.1104,-2.1625,-2.2211,-2.1367,-2.1661,-2.2456,-2.2621,-2.271,-2.2928,-2.3796,-2.4133,-2.4385,-2.5303,-2.559,-2.5562,-2.5421,-2.5401,-2.3679,-1.6835,-1.5104,-1.1554,0.0815,0.5369,0.8753,1.4381,1.7693,1.9774,2.0385,1.9416,1.8664,1.9097,1.971,2.04,2.1117,2.0744,2.0501,2.067,1.9949,1.9283,1.8824,1.897,1.9919,2.1962,2.366,2.464,2.4842,2.4855,2.4855,2.4869,2.4869,2.493,2.5008,2.4923,2.4981,2.5075,2.4818,2.4697,0.0,0.0,-2.8469,-2.6816,0.0,0.0,0.0,0.0,0.0,0.0,0.0,0.0,0.0,0.0,0.0,0.0,0.0,0.0,0.0,0.0,0.0,0.0,0.0,0.0,0.0,0.0,0.0,0.0,0.0,0.0,0.0,-2.4423,-2.4844,-2.455,-2.5034,-2.5303,-2.5302,-2.5262,-2.5222,-2.5222,-2.5222,-2.522,-2.5195,-2.5214,-2.518,-2.5139,-2.5019,-2.4947,-2.4898,-2.4861,-2.4283,-2.3386,-2.282,-2.22,-2.1622,-2.1871,-2.1843,-2.173,-2.204,-2.2359,-2.2736,-2.3409,-2.3647,-2.3843,-2.4805,-2.5119,-2.5188,-2.5508,-2.5539,-2.5459,-2.5407,-2.1988,-1.7907,-1.5488,-0.7939,0.003,0.5061,1.0504,1.5339,1.852,2.0051,2.1122,2.2039,2.1797,2.1549,2.1691,2.1915,2.2073,2.2106,2.1941,2.1706,2.1425,2.1239,2.0894,2.0241,2.037,2.127,2.3111,2.3767,2.4331,2.4948,2.5011,2.5056,2.5094,2.5138,2.5216,2.5332,2.5318,2.5327,2.5356,2.5235,2.5146,-2.9123,-2.8526,0.0,0.0,-2.6437,0.0,-2.5057,0.0,0.0,0.0,0.0,0.0,0.0,0.0,0.0,0.0,0.0,0.0,0.0,0.0,0.0,0.0,0.0,0.0,0.0,0.0,-2.3207,-2.3783,-2.2742,0.0,0.0,0.0,-2.4808,-2.4543,-2.5005,-2.5253,-2.5252,-2.522,-2.5198,-2.5198,-2.5187,-2.5153,-2.5156,-2.5156,-2.512,-2.5057,-2.4953,-2.4865,-2.4808,-2.4437,-2.3746,-2.2853,-2.2278,-2.181,-2.1504,-2.1773,-2.1953,-2.2204,-2.3019,-2.3347,-2.3522,-2.4091,-2.4337,-2.4514,-2.5172,-2.544,-2.5496,-2.5547,-2.5499,-2.4863,-2.2343,-1.8365,-1.3598,-0.8091,-0.0,0.7444,1.1111,1.593,1.9895,2.1067,2.1944,2.2722,2.3381,2.3635,2.3637,2.3274,2.335,2.3353,2.3143,2.3299,2.3151,2.2544,2.2621,2.2296,2.1271,2.1531,2.2132,2.2994,2.3615,2.4174,2.4687,2.5059,2.5266,2.5305,2.5352,2.5428,2.554,2.5511,2.5517,2.5537,2.5465,2.5408]},{"header":{"parameterUnit":"m.s-1","parameterCategory":1,"la1":30.6,"la2":29.2853,"lo1":-89.7004,"lo2":-87.6739,"dy":0.0162,"dx":0.0183,"nx":112,"ny":82,"refTime":"2026-03-17T00:00:00:Z","depth":0,"parameterNumber":3,"parameterNumberName":"V-component_of_WINDS"},"data":[0.0,0.0,0.0,0.0,0.0,0.0,0.0,0.0,0.0,0.0,0.0,0.0,0.0,0.0,0.0,0.0,0.0,0.0,0.0,0.0,0.0,0.0,0.0,0.0,0.0,0.0,0.0,0.0,0.0,0.0,0.0,0.0,0.0,0.0,0.0,0.0,0.0,0.0,0.0,0.0,0.0,0.0,0.0,0.0,0.0,0.0,0.0,0.0,0.0,0.0,0.0,0.0,0.0,0.0,0.0,0.0,0.0,0.0,0.0,0.0,0.0,0.0,0.0,0.0,0.0,0.0,0.0,0.0,0.0,0.0,0.0,0.0,0.0,0.0,0.0,0.0,0.0,0.0,0.0,0.0,0.0,0.0,0.0,0.0,0.0,0.0,0.0,0.0,0.0,0.0,0.0,-1.8962,-2.0677,-2.183,-2.2097,-2.1929,-2.1151,-1.9822,0.0,0.0,0.0,0.0,0.0,0.0,0.0,0.0,0.0,0.0,0.0,0.0,0.0,0.0,0.0,0.0,0.0,0.0,0.0,0.0,0.0,0.0,0.0,0.0,0.0,0.0,0.0,0.0,0.0,0.0,0.0,0.0,0.0,0.0,0.0,0.0,0.0,0.0,0.0,0.0,0.0,0.0,0.0,0.0,0.0,0.0,0.0,0.0,0.0,0.0,0.0,0.0,0.0,0.0,0.0,0.0,0.0,0.0,0.0,0.0,0.0,0.0,0.0,0.0,0.0,0.0,0.0,0.0,0.0,0.0,0.0,0.0,0.0,0.0,0.0,0.0,0.0,0.0,0.0,0.0,0.0,0.0,0.0,0.0,0.0,0.0,0.0,0.0,0.0,0.0,0.0,0.0,0.0,0.0,0.0,0.0,0.0,0.0,0.0,0.0,0.0,0.0,0.0,0.0,-1.7963,-2.0475,-2.1512,-2.2097,-2.2097,-2.1741,-2.1135,-2.0138,0.0,0.0,0.0,0.0,0.0,0.0,0.0,0.0,0.0,0.0,0.0,0.0,0.0,0.0,0.0,0.0,0.0,0.0,0.0,0.0,0.0,0.0,0.0,0.0,0.0,0.0,0.0,0.0,0.0,0.0,0.0,0.0,0.0,0.0,0.0,0.0,0.0,0.0,0.0,0.0,0.0,0.0,0.0,0.0,0.0,0.0,0.0,0.0,0.0,0.0,0.0,0.0,0.0,0.0,0.0,0.0,0.0,0.0,0.0,0.0,0.0,0.0,0.0,0.0,0.0,0.0,0.0,0.0,0.0,0.0,0.0,0.0,0.0,0.0,0.0,0.0,0.0,0.0,0.0,0.0,0.0,0.0,0.0,0.0,0.0,0.0,0.0,0.0,0.0,0.0,0.0,0.0,0.0,0.0,0.0,0.0,0.0,0.0,0.0,0.0,0.0,0.0,0.0,-1.7751,-1.8806,-2.119,-2.1799,-2.2185,-2.2264,-2.1769,-2.1322,-2.0974,-1.8844,0.0,0.0,0.0,0.0,0.0,0.0,0.0,0.0,0.0,0.0,0.0,0.0,0.0,0.0,0.0,0.0,0.0,0.0,0.0,0.0,0.0,0.0,0.0,0.0,0.0,0.0,0.0,0.0,0.0,0.0,0.0,0.0,0.0,0.0,0.0,0.0,0.0,0.0,0.0,0.0,0.0,0.0,0.0,0.0,0.0,0.0,0.0,0.0,0.0,0.0,0.0,0.0,0.0,0.0,0.0,0.0,0.0,0.0,0.0,0.0,0.0,0.0,0.0,0.0,0.0,0.0,0.0,0.0,0.0,0.0,0.0,0.0,0.0,0.0,0.0,0.0,0.0,0.0,0.0,0.0,0.0,0.0,0.0,0.0,0.0,0.0,0.0,0.0,0.0,0.0,0.0,0.0,0.0,0.0,0.0,0.0,0.0,0.0,0.0,0.0,0.0,0.0,-1.9178,-1.9806,-2.1646,-2.2008,-2.2274,-2.2441,-2.1748,-2.1301,-2.1415,-1.8609,0.0,0.0,0.0,0.0,0.0,0.0,0.0,0.0,0.0,0.0,0.0,0.0,0.0,0.0,0.0,0.0,0.0,0.0,0.0,0.0,0.0,0.0,0.0,0.0,0.0,0.0,0.0,0.0,0.0,0.0,0.0,0.0,0.0,0.0,0.0,0.0,0.0,0.0,0.0,0.0,0.0,0.0,0.0,0.0,0.0,0.0,0.0,0.0,0.0,0.0,0.0,0.0,0.0,0.0,0.0,0.0,0.0,0.0,0.0,0.0,0.0,0.0,0.0,0.0,0.0,0.0,0.0,0.0,0.0,0.0,0.0,0.0,0.0,0.0,0.0,0.0,0.0,0.0,0.0,0.0,0.0,0.0,0.0,0.0,0.0,0.0,0.0,0.0,0.0,0.0,0.0,0.0,0.0,0.0,0.0,0.0,0.0,0.0,0.0,0.0,0.0,0.0,-1.9485,-2.0826,-2.1915,-2.2264,-2.253,-2.2715,-2.1457,-2.0757,-2.0859,-1.8154,0.0,0.0,0.0,0.0,0.0,0.0,0.0,0.0,0.0,0.0,0.0,0.0,0.0,0.0,0.0,0.0,0.0,0.0,0.0,0.0,0.0,0.0,0.0,0.0,0.0,0.0,0.0,0.0,0.0,0.0,0.0,0.0,0.0,0.0,0.0,0.0,0.0,0.0,0.0,0.0,0.0,0.0,0.0,0.0,0.0,0.0,0.0,0.0,0.0,0.0,0.0,0.0,0.0,0.0,0.0,0.0,0.0,0.0,0.0,0.0,0.0,0.0,0.0,0.0,0.0,0.0,0.0,0.0,0.0,0.0,0.0,0.0,0.0,0.0,0.0,0.0,0.0,0.0,0.0,0.0,0.0,0.0,0.0,0.0,0.0,0.0,0.0,0.0,0.0,0.0,0.0,0.0,0.0,0.0,0.0,0.0,0.0,0.0,0.0,0.0,0.0,0.0,-1.9481,-2.0853,0.0,-2.328,-2.3604,-2.3916,-2.3054,-2.2328,-2.1974,0.0,0.0,0.0,0.0,0.0,0.0,0.0,0.0,0.0,0.0,0.0,0.0,0.0,0.0,0.0,0.0,0.0,0.0,0.0,0.0,0.0,0.0,0.0,0.0,0.0,0.0,0.0,0.0,0.0,0.0,0.0,0.0,0.0,0.0,0.0,0.0,0.0,0.0,0.0,0.0,0.0,0.0,0.0,0.0,0.0,0.0,0.0,0.0,0.0,0.0,0.0,0.0,0.0,0.0,0.0,0.0,0.0,0.0,0.0,0.0,0.0,0.0,0.0,0.0,0.0,0.0,0.0,0.0,0.0,0.0,0.0,0.0,0.0,0.0,0.0,0.0,0.0,0.0,0.0,0.0,0.0,0.0,0.0,0.0,0.0,0.0,0.0,0.0,0.0,0.0,0.0,0.0,0.0,0.0,0.0,0.0,0.0,0.0,0.0,0.0,0.0,0.0,-1.8566,-2.0166,-2.1849,0.0,-2.4214,-2.4619,-2.4744,-2.3994,-2.3032,-2.2159,0.0,0.0,0.0,0.0,0.0,0.0,0.0,0.0,0.0,0.0,0.0,0.0,0.0,0.0,0.0,0.0,0.0,0.0,0.0,0.0,0.0,0.0,0.0,0.0,0.0,0.0,0.0,0.0,0.0,0.0,0.0,0.0,0.0,0.0,0.0,0.0,0.0,0.0,0.0,0.0,0.0,0.0,0.0,0.0,0.0,0.0,0.0,0.0,0.0,0.0,0.0,0.0,0.0,0.0,0.0,0.0,0.0,0.0,0.0,0.0,0.0,0.0,0.0,0.0,0.0,0.0,0.0,0.0,0.0,0.0,0.0,0.0,0.0,0.0,0.0,0.0,0.0,0.0,0.0,0.0,0.0,0.0,0.0,0.0,0.0,0.0,0.0,0.0,0.0,0.0,0.0,0.0,0.0,0.0,0.0,0.0,0.0,0.0,0.0,0.0,0.0,0.0,-1.9109,-2.1803,-2.3972,-2.4658,-2.5204,-2.5373,-2.506,-2.3853,-2.2544,0.0,0.0,0.0,0.0,0.0,0.0,0.0,0.0,0.0,0.0,0.0,0.0,0.0,0.0,0.0,0.0,0.0,0.0,0.0,0.0,0.0,0.0,0.0,0.0,0.0,0.0,0.0,0.0,0.0,0.0,0.0,0.0,0.0,0.0,0.0,0.0,0.0,0.0,0.0,0.0,0.0,0.0,0.0,0.0,0.0,0.0,0.0,0.0,0.0,0.0,0.0,0.0,0.0,0.0,0.0,0.0,0.0,0.0,0.0,0.0,0.0,0.0,0.0,0.0,0.0,0.0,0.0,0.0,0.0,0.0,0.0,0.0,0.0,0.0,0.0,0.0,0.0,0.0,0.0,0.0,0.0,0.0,0.0,0.0,0.0,0.0,0.0,0.0,0.0,0.0,0.0,0.0,0.0,0.0,0.0,0.0,0.0,0.0,0.0,0.0,0.0,0.0,0.0,-2.0408,-2.236,-2.4244,-2.5973,-2.6487,-2.6575,-2.6356,-2.5339,-2.3753,-2.1704,0.0,0.0,0.0,0.0,0.0,0.0,0.0,0.0,0.0,0.0,0.0,0.0,0.0,0.0,0.0,0.0,0.0,0.0,0.0,0.0,0.0,0.0,0.0,0.0,0.0,0.0,0.0,0.0,0.0,0.0,0.0,0.0,0.0,0.0,0.0,0.0,0.0,0.0,0.0,0.0,0.0,0.0,0.0,0.0,0.0,0.0,0.0,0.0,0.0,0.0,0.0,0.0,0.0,0.0,0.0,0.0,0.0,0.0,0.0,0.0,0.0,0.0,0.0,0.0,0.0,0.0,0.0,0.0,0.0,0.0,0.0,0.0,0.0,0.0,0.0,0.0,0.0,0.0,0.0,0.0,0.0,0.0,0.0,0.0,0.0,0.0,0.0,0.0,0.0,0.0,0.0,0.0,0.0,0.0,0.0,0.0,0.0,0.0,0.0,0.0,0.0,0.0,-2.0953,-2.3205,-2.5173,-2.6688,-2.716,-2.7278,-2.6932,-2.5937,-2.4328,-2.1932,0.0,0.0,0.0,0.0,0.0,0.0,0.0,0.0,0.0,0.0,0.0,0.0,0.0,0.0,0.0,0.0,0.0,0.0,0.0,0.0,0.0,0.0,0.0,0.0,0.0,0.0,0.0,0.0,0.0,0.0,0.0,0.0,0.0,0.0,0.0,0.0,0.0,0.0,0.0,0.0,0.0,0.0,0.0,0.0,0.0,0.0,0.0,0.0,0.0,0.0,0.0,0.0,0.0,0.0,0.0,0.0,0.0,0.0,0.0,0.0,0.0,0.0,0.0,0.0,0.0,0.0,0.0,0.0,0.0,0.0,0.0,0.0,0.0,0.0,0.0,0.0,0.0,0.0,0.0,0.0,0.0,0.0,0.0,0.0,0.0,0.0,0.0,0.0,0.0,0.0,0.0,0.0,0.0,0.0,0.0,0.0,0.0,0.0,0.0,0.0,0.0,0.0,-2.126,-2.4068,-2.6202,-2.6863,-2.7368,-2.7428,-2.6899,-2.5853,-2.4292,-2.2005,0.0,0.0,0.0,0.0,0.0,0.0,0.0,0.0,0.0,0.0,0.0,0.0,0.0,0.0,0.0,0.0,0.0,0.0,0.0,0.0,0.0,0.0,0.0,0.0,0.0,0.0,0.0,0.0,0.0,0.0,0.0,0.0,0.0,0.0,0.0,0.0,0.0,0.0,0.0,0.0,0.0,0.0,0.0,0.0,0.0,0.0,0.0,0.0,0.0,0.0,0.0,0.0,0.0,0.0,0.0,0.0,0.0,0.0,0.0,0.0,-1.2291,0.0,0.0,0.0,0.0,0.0,0.0,0.0,0.0,0.0,0.0,0.0,0.0,0.0,0.0,0.0,0.0,0.0,0.0,0.0,0.0,0.0,0.0,0.0,0.0,0.0,0.0,0.0,0.0,0.0,0.0,0.0,0.0,0.0,0.0,0.0,0.0,0.0,0.0,0.0,0.0,0.0,-2.2297,-2.3934,-2.5384,-2.6779,-2.7031,-2.6875,-2.6322,-2.53,-2.405,-2.2543,0.0,0.0,0.0,0.0,0.0,0.0,0.0,0.0,0.0,0.0,0.0,0.0,0.0,0.0,0.0,0.0,0.0,0.0,0.0,0.0,0.0,0.0,0.0,0.0,0.0,0.0,0.0,0.0,0.0,0.0,0.0,0.0,0.0,0.0,0.0,0.0,0.0,0.0,0.0,0.0,0.0,0.0,0.0,0.0,0.0,0.0,0.0,0.0,0.0,0.0,0.0,0.0,0.0,0.0,0.0,0.0,0.0,0.0,0.0,0.0,0.0,-1.2876,0.0,0.0,0.0,0.0,0.0,0.0,0.0,0.0,0.0,0.0,0.0,0.0,0.0,0.0,0.0,0.0,0.0,0.0,0.0,0.0,0.0,0.0,0.0,0.0,0.0,0.0,0.0,0.0,0.0,0.0,0.0,0.0,0.0,0.0,0.0,0.0,0.0,0.0,0.0,0.0,-2.2294,-2.3725,-2.5035,-2.6394,-2.6538,-2.6418,-2.6117,-2.4903,-2.3833,-2.2921,-2.1194,0.0,0.0,0.0,0.0,0.0,0.0,0.0,0.0,0.0,0.0,0.0,0.0,0.0,0.0,0.0,0.0,0.0,0.0,0.0,0.0,0.0,0.0,0.0,0.0,0.0,0.0,0.0,0.0,0.0,0.0,0.0,0.0,0.0,0.0,0.0,0.0,0.0,0.0,0.0,0.0,0.0,0.0,0.0,0.0,0.0,0.0,0.0,0.0,0.0,0.0,0.0,0.0,0.0,0.0,-1.5625,-1.5351,-1.5645,-1.5752,-1.5651,-1.4676,-1.4249,-1.4182,0.0,0.0,0.0,0.0,0.0,0.0,0.0,0.0,0.0,0.0,0.0,0.0,0.0,0.0,0.0,0.0,0.0,0.0,0.0,0.0,0.0,0.0,0.0,0.0,0.0,-1.8839,-1.9169,0.0,0.0,0.0,0.0,0.0,0.0,0.0,0.0,0.0,0.0,0.0,0.0,-2.2053,-2.3532,-2.4795,-2.5841,-2.5961,-2.5925,-2.5829,-2.4554,-2.3675,-2.3259,-2.1736,-2.0348,0.0,0.0,0.0,0.0,0.0,0.0,0.0,0.0,0.0,0.0,0.0,0.0,0.0,0.0,0.0,0.0,0.0,0.0,0.0,0.0,0.0,0.0,0.0,0.0,0.0,0.0,0.0,0.0,0.0,0.0,0.0,0.0,-0.6567,-0.6577,0.0,0.0,0.0,0.0,0.0,0.0,0.0,0.0,0.0,0.0,0.0,0.0,0.0,0.0,-1.4641,-1.5598,-1.5912,-1.5671,-1.6767,-1.7141,-1.6874,-1.7161,-1.7154,-1.6907,-1.6754,0.0,-1.4912,-1.4702,0.0,0.0,0.0,0.0,0.0,0.0,0.0,0.0,0.0,0.0,0.0,0.0,0.0,0.0,0.0,0.0,0.0,0.0,0.0,0.0,0.0,0.0,-2.0545,-2.0163,-2.0834,-2.149,0.0,-1.9503,-1.7947,-1.7381,0.0,0.0,0.0,0.0,0.0,0.0,0.0,0.0,-2.2594,-2.346,-2.4266,-2.53,-2.5408,-2.5228,-2.4771,-2.4145,-2.3675,-2.345,-2.151,-2.034,-2.0464,-1.8543,0.0,0.0,0.0,0.0,0.0,0.0,0.0,0.0,0.0,0.0,0.0,0.0,0.0,0.0,0.0,0.0,0.0,0.0,0.0,0.0,0.0,0.0,0.0,0.0,0.0,0.0,0.0,0.0,0.0,-0.5862,-0.6444,-0.6584,-0.6738,-0.6746,0.0,0.0,0.0,0.0,0.0,0.0,0.0,0.0,0.0,-1.4302,-1.4812,-1.5429,-1.6186,-1.6907,-1.7114,-1.682,-1.7515,-1.7682,-1.7402,-1.7522,-1.7515,-1.7388,-1.7388,-1.6934,-1.6229,-1.6148,-1.5886,-1.5546,0.0,0.0,0.0,0.0,0.0,-1.9238,-1.9668,0.0,0.0,0.0,0.0,0.0,0.0,0.0,0.0,0.0,0.0,0.0,0.0,0.0,0.0,-2.1281,-2.2429,-2.3408,-2.2857,-2.204,-2.095,0.0,-1.9447,-1.9275,-1.8061,0.0,0.0,0.0,0.0,0.0,-2.2702,-2.3448,-2.4049,-2.4783,-2.4867,-2.4662,-2.4145,-2.3616,-2.3284,-2.3247,-2.2116,-2.1268,-2.0878,-2.003,-1.9021,0.0,0.0,0.0,0.0,0.0,0.0,0.0,0.0,0.0,0.0,0.0,0.0,0.0,0.0,0.0,0.0,0.0,0.0,0.0,0.0,0.0,0.0,0.0,0.0,0.0,0.0,0.0,0.0,-0.6015,-0.6329,-0.655,-0.6827,-0.6914,0.0,0.0,0.0,0.0,0.0,0.0,-1.1112,-1.231,-1.3926,-1.6042,-1.6533,-1.6934,-1.7375,-1.7896,-1.8003,-1.7702,-1.8016,-1.8036,-1.7816,-1.7816,-1.7776,-1.7702,-1.7702,-1.7738,-1.7674,-1.7201,-1.71,-1.7255,-1.7901,-1.8789,0.0,-2.0127,-2.0614,-2.1113,-2.1445,-2.1494,-2.126,-2.0391,0.0,-1.9297,-1.7568,0.0,0.0,0.0,0.0,-1.9581,-2.0028,0.0,-2.2863,-2.2798,-2.4022,-2.4966,-2.4223,-2.4174,-2.358,0.0,-2.1428,-2.1055,-1.9324,0.0,0.0,0.0,0.0,-2.1079,-2.2943,-2.352,-2.3965,-2.447,-2.441,-2.4121,-2.3616,-2.3207,-2.2983,-2.285,-2.2322,-2.1761,-2.1281,-2.1081,-2.0507,-1.9425,0.0,0.0,0.0,0.0,0.0,0.0,0.0,0.0,0.0,0.0,0.0,0.0,0.0,0.0,0.0,0.0,0.0,0.0,0.0,0.0,0.0,0.0,0.0,0.0,0.0,0.0,0.0,0.0,0.0,-0.6585,-0.7211,0.0,0.0,0.0,0.0,-0.761,-0.7864,-0.9188,-1.1796,-1.2543,-1.4225,-1.7061,-1.7649,-1.7969,-1.8003,-1.831,-1.8317,-1.8023,-1.8323,-1.8464,-1.8444,-1.8444,-1.829,-1.8023,-1.8023,-1.8369,-1.8926,-1.7083,-1.6812,-1.7461,-1.7358,-1.8473,-2.0198,-2.1034,-2.1769,-2.2412,-2.2441,-2.2187,-2.1904,-2.2246,-2.1514,-2.04,-1.9883,-1.917,0.0,0.0,-2.0434,-2.1832,-2.233,-2.3962,-2.5512,-2.5501,-2.5773,-2.6008,-2.5949,-2.56,-2.4759,0.0,-2.2474,-2.1957,-2.1356,0.0,-2.126,-2.1284,-2.1728,-2.2474,-2.358,-2.3749,-2.3965,-2.447,-2.4097,-2.3592,-2.3063,-2.3003,-2.2826,-2.2431,-2.1484,-2.1205,-2.1898,-2.0978,-2.0463,-2.0495,-1.9653,0.0,0.0,0.0,0.0,0.0,0.0,0.0,0.0,0.0,0.0,0.0,0.0,0.0,0.0,0.0,0.0,0.0,0.0,0.0,0.0,0.0,0.0,0.0,0.0,0.0,0.0,0.0,0.0,-0.7046,-0.7464,0.0,0.0,-0.7437,-0.7612,-0.7896,-0.9291,-1.0886,-1.2521,-1.4151,-1.5853,-1.7709,-1.7936,-1.8136,-1.833,-1.8437,-1.8343,-1.805,-1.8156,-1.8096,-1.7903,-1.7903,-1.7849,-1.7749,-1.7749,-1.7894,-1.8157,-1.7943,-1.8918,-2.0416,-2.0526,-2.1337,-2.2544,-2.2851,-2.3229,-2.374,-2.374,-2.3467,-2.2998,-2.2324,-2.1221,-2.0166,-2.0293,-2.0117,-2.0121,-2.1166,-2.2025,-2.2987,-2.402,-2.5216,-2.623,-2.6152,-2.64,-2.6538,-2.6178,-2.5685,-2.5143,-2.459,-2.4049,-2.3424,-2.257,-2.2137,-2.1909,-2.1909,-2.2077,-2.257,-2.3628,-2.3773,-2.3833,-2.4013,-2.3568,-2.3051,-2.2522,-2.2161,-2.1885,-2.1753,-2.117,-2.0871,-2.1104,-2.1215,-2.1121,-2.0713,-2.048,-1.9488,0.0,0.0,0.0,0.0,0.0,0.0,0.0,0.0,0.0,0.0,0.0,0.0,0.0,0.0,0.0,0.0,0.0,0.0,0.0,0.0,0.0,0.0,0.0,0.0,0.0,0.0,-0.6735,-0.7485,-0.7824,-0.8001,-0.7906,-0.7943,-0.8079,-0.8326,-1.0018,-1.1597,-1.2901,-1.483,-1.6555,-1.7813,-1.8034,-1.829,-1.849,-1.849,-1.8343,-1.805,-1.805,-1.7883,-1.7582,-1.7582,-1.7582,-1.7582,-1.7582,-1.7786,-1.8178,-1.8979,-2.0327,-2.1984,-2.2227,-2.2924,-2.3809,-2.3945,-2.418,-2.4414,-2.4414,-2.4043,-2.3437,-2.2588,-2.1426,-2.042,-2.0703,-2.0684,-2.0888,-2.2189,-2.2924,-2.3679,-2.5198,-2.6257,-2.6901,-2.6834,-2.6694,-2.6502,-2.5949,-2.542,-2.5035,-2.5035,-2.4903,-2.4506,-2.3652,-2.3207,-2.2919,-2.2751,-2.2727,-2.2979,-2.3676,-2.3616,-2.3508,-2.3508,-2.3027,-2.257,-2.2221,-2.1716,-2.1464,-2.1558,-2.0836,-2.0481,-2.0771,-2.1147,-2.1154,-2.0718,-2.0623,-1.9936,-1.8625,0.0,0.0,0.0,0.0,0.0,0.0,0.0,0.0,0.0,0.0,0.0,0.0,0.0,0.0,0.0,0.0,0.0,0.0,0.0,0.0,0.0,0.0,0.0,-0.4841,-0.5954,-0.7034,-0.7707,-0.8231,-0.8503,-0.8503,-0.8635,-0.8784,-0.8933,-0.988,-1.1246,-1.2719,-1.4462,-1.6144,-1.7597,-1.8214,-1.8477,-1.849,-1.849,-1.8343,-1.805,-1.805,-1.7883,-1.7582,-1.7582,-1.7582,-1.7582,-1.7582,-1.8199,-1.9302,-1.9992,-2.1022,-2.2037,-2.2209,-2.2834,-2.3838,-2.4248,-2.4404,-2.4414,-2.4404,-2.3848,-2.3135,-2.3105,-2.2246,-2.1221,-2.123,-2.0937,-2.0908,-2.2121,-2.3105,-2.4161,-2.5927,-2.7058,-2.7705,-2.7717,-2.6875,-2.5925,-2.542,-2.4891,-2.4518,-2.4518,-2.4939,-2.5143,-2.4626,-2.453,-2.4362,-2.3869,-2.3773,0.0,-2.3773,-2.3304,-2.2979,-2.2979,-2.251,-2.2197,-2.2197,-2.1692,-2.1534,-2.1885,-2.0432,-1.9978,-2.1015,-2.0678,-2.0533,-2.0614,-2.0151,-1.9901,-1.9918,0.0,0.0,0.0,0.0,0.0,0.0,0.0,0.0,0.0,0.0,0.0,0.0,0.0,0.0,0.0,0.0,0.0,0.0,0.0,0.0,0.0,0.0,-0.4424,-0.4637,-0.638,-0.7806,-0.8414,-0.8764,-0.8971,-0.8971,-0.9005,-0.9049,-0.9089,-1.0814,-1.2309,-1.3277,-1.5275,-1.6832,-1.782,-1.8014,-1.827,-1.849,-1.849,-1.8343,-1.805,-1.805,-1.7883,-1.7582,-1.7582,-1.7582,-1.7582,-1.7582,-1.8199,-1.9324,-2.0562,-2.1362,-2.2011,-2.2575,-2.3243,-2.3799,-2.3916,-2.415,-2.4375,-2.4072,-2.3408,-2.2637,-2.2334,-2.1562,-2.081,-2.1133,-2.1152,-2.1451,-2.3298,-2.4057,-2.467,-2.6816,-2.7198,-2.7248,-2.7633,-2.6598,-2.548,-2.5336,-2.4891,-2.4518,-2.4518,-2.4939,-2.5264,-2.5119,-2.4771,-2.447,-2.4338,0.0,0.0,-2.3773,-2.3304,-2.2979,-2.2979,-2.251,-2.2197,-2.2197,-2.1628,-2.1136,0.0,-2.0066,-1.9837,-2.0353,-2.0143,-2.0415,-2.1326,-2.0215,-1.9943,0.0,0.0,0.0,0.0,0.0,0.0,0.0,0.0,0.0,0.0,0.0,0.0,0.0,0.0,0.0,0.0,0.0,0.0,0.0,0.0,0.0,0.0,-0.3089,-0.4538,-0.4629,-0.6611,-0.8231,-0.8743,-0.8957,-0.911,-0.9239,-0.9191,-0.9154,-0.9154,-1.0777,-1.2028,-1.3023,-1.4866,-1.6536,-1.7597,-1.7826,-1.825,-1.8664,-1.8551,-1.8404,-1.823,-1.8103,-1.7883,-1.7582,-1.7582,-1.7582,0.0,-1.7582,-1.7996,-1.8715,-2.0562,-2.1354,0.0,0.0,0.0,0.0,0.0,-2.3789,-2.4121,-2.3877,-2.3232,-2.2471,-2.2227,-2.1435,-2.0615,-2.0879,-2.1184,-2.1774,-2.3337,-2.4029,-2.4675,-2.651,-2.6815,-2.661,-2.6695,-2.5817,-2.4867,-2.4422,-2.4097,-2.3941,-2.4157,0.0,0.0,-2.4975,-2.4723,-2.4518,-2.4518,-2.3905,-2.3436,0.0,-2.2979,-2.2654,-2.2654,-2.2378,-2.2247,-2.2494,-2.1716,0.0,0.0,0.0,-1.9926,-2.0148,-1.9798,0.0,0.0,0.0,0.0,0.0,0.0,0.0,0.0,-1.9323,-1.9184,0.0,0.0,0.0,0.0,0.0,0.0,0.0,0.0,0.0,0.0,0.0,0.0,0.0,0.0,0.0,0.0,-0.3307,-0.4706,-0.4803,-0.6694,-0.8292,-0.8849,-0.8944,-0.9066,-0.933,-0.9232,-0.9147,-0.913,-1.0105,-1.1219,-1.2413,0.0,0.0,0.0,0.0,-1.82,-1.8871,-1.8617,-1.847,-1.8437,-1.817,-1.7883,-1.7582,-1.7582,-1.7582,-1.7582,-1.7582,-1.7687,-1.7989,-2.0318,-2.1089,-2.0982,-2.3047,-2.3528,-2.3135,-2.3135,-2.3379,0.0,0.0,0.0,0.0,-2.2441,-2.1592,-2.0566,-2.0566,-2.1088,-2.1842,-2.2734,-2.3463,-2.4307,-2.5731,-2.6057,-2.5889,-2.542,-2.4867,-2.4169,-2.3195,-2.2979,-2.3123,-2.3592,-2.4085,-2.4434,-2.4434,-2.4482,-2.4494,-2.4446,-2.3604,0.0,-2.2979,-2.2522,-2.2197,-2.2197,0.0,0.0,-2.2848,-2.1998,-2.1771,-2.2525,-2.1122,-2.0243,-2.0199,-1.9768,-2.0119,-2.1302,-2.0868,-2.1194,-2.2417,-2.2452,-2.2152,-2.1595,-1.9308,-1.9137,0.0,0.0,0.0,0.0,0.0,0.0,0.0,0.0,0.0,0.0,0.0,0.0,0.0,0.0,0.0,-0.1453,-0.3312,-0.482,-0.4989,-0.6953,-0.8486,-0.8726,-0.8964,-0.9133,-0.9191,-0.9171,-0.9103,-0.8988,-1.004,-1.1319,-1.2615,-1.3922,0.0,-1.7482,-1.7597,-1.7991,-1.8571,-1.8517,-1.837,-1.813,0.0,0.0,-1.7582,-1.7582,-1.7582,-1.7582,-1.7582,-1.8101,-1.8998,-2.0443,-2.1856,-2.3123,-2.3248,-2.3193,-2.3135,-2.3135,-2.3193,-2.3262,-2.3262,-2.2715,-2.2012,-2.2012,-2.1348,-2.0566,-2.0566,-2.0722,0.0,-2.2585,-2.3106,-2.366,-2.5585,-2.5781,-2.5432,-2.5336,-2.459,-2.3737,-2.3111,-2.2979,-2.3015,-2.3111,-2.3556,-2.3917,-2.3917,-2.4254,-2.4386,-2.3977,-2.3376,-2.2979,-2.2979,-2.2522,-2.2197,-2.2197,-2.2555,-2.2787,-2.2909,-2.3032,-2.2799,-2.2034,-2.1295,-2.0723,-2.0371,-2.0767,-2.1121,-2.1447,-2.1306,-2.1634,-2.2417,-2.1815,-2.1727,-2.208,-2.169,-2.1393,0.0,0.0,0.0,0.0,0.0,0.0,0.0,0.0,0.0,0.0,0.0,-0.1284,0.0,0.0,-0.1473,-0.1519,-0.341,-0.4906,-0.5045,-0.7027,-0.8537,-0.8693,-0.891,-0.9045,-0.9045,-0.9045,-0.9015,-0.8944,-0.9482,-1.0347,-1.1642,-1.294,-1.4461,-1.626,-1.7156,-1.7849,-1.8262,-1.8233,-1.8196,-1.8043,-1.7889,-1.7736,-1.7582,-1.7582,-1.7582,-1.7582,-1.7582,-1.7809,-1.8348,-1.9732,-2.1593,-2.3561,-2.3134,-2.2969,-2.3135,-2.3135,-2.3135,-2.3135,-2.3135,-2.2588,-2.1885,-2.1885,-2.1289,-2.0566,-2.0566,-2.0867,-2.1461,-2.266,-2.3243,-2.3886,-2.5337,-2.5312,-2.4843,-2.4602,-2.3941,-2.3232,-2.2702,-2.2582,-2.2666,-2.2931,-2.3195,-2.3376,-2.3376,-2.3364,-2.3364,-2.3376,-2.2702,-2.2294,-2.2558,-2.2354,-2.2197,-2.2197,-2.2432,-2.2726,-2.3185,-2.3751,-2.358,-2.2423,-2.2187,-2.1731,-2.0878,-2.1161,-2.136,-2.1389,-2.136,-2.1657,-2.2324,-2.1921,-2.1935,-2.2184,-2.2278,-2.2108,0.0,0.0,0.0,0.0,0.0,0.0,0.0,0.0,-0.1179,-0.1228,-0.1311,-0.1381,-0.1403,-0.1477,-0.1545,-0.1575,-0.34,-0.4883,-0.5079,-0.7044,-0.8537,-0.8693,-0.8845,-0.894,-0.894,-0.894,-0.894,-0.894,-0.894,-0.9482,-1.0672,-1.1969,-1.3345,-1.4861,-1.6525,-1.752,-1.7864,-1.7859,-1.7848,-1.7956,-1.7702,-1.7582,-1.7582,-1.7582,-1.7582,-1.7582,-1.7522,-1.7502,-1.7542,-1.8958,-2.094,-2.2986,-2.284,-2.2882,-2.3135,-2.3135,-2.3135,-2.3135,-2.3135,-2.2588,-2.1885,-2.1885,-2.1289,-2.0566,-2.0566,-2.1011,-2.1756,-2.251,-2.3316,-2.4047,-2.4862,-2.4764,-2.4398,-2.3893,-2.3364,-2.2835,-2.2306,-2.2197,-2.2318,-2.2751,-2.2823,-2.2823,-2.2823,-2.2306,-2.2065,-2.2594,-2.1945,-2.156,-2.1993,-2.2125,-2.2197,-2.2197,-2.2247,-2.2714,-2.3754,-2.4213,-2.4124,-2.3202,-2.3119,-2.2592,-2.1541,-2.1485,-2.1485,-2.1485,-2.1485,-2.1724,-2.2184,-2.2184,-2.2184,-2.2184,-2.2184,-2.2184,0.0517,0.0063,0.0,-0.0883,-0.1039,-0.1069,0.0,0.0,-0.1242,-0.1248,-0.1403,-0.1467,-0.147,-0.1523,-0.1577,-0.1607,-0.357,-0.5083,-0.5282,-0.7098,-0.8537,-0.8693,-0.8845,-0.894,-0.894,-0.894,-0.894,-0.894,-0.894,-0.9482,-1.0672,-1.176,-1.3073,-1.4611,-1.5821,-1.6706,-1.7271,-1.7238,-1.743,-1.7629,-1.7602,-1.7582,-1.7582,-1.7582,-1.7582,-1.7569,-1.7308,-1.7573,-1.8082,-1.9138,-2.0323,-2.158,-2.2451,-2.2882,-2.3135,-2.3135,-2.3135,-2.3135,-2.3135,-2.2588,-2.1885,-2.1885,-2.1289,-2.0566,-2.0566,-2.0644,-2.0867,-2.169,-2.2499,-2.3316,-2.4047,-2.4402,-2.4398,-2.3893,-2.3364,-2.2835,-2.2306,-2.2197,-2.2209,-2.227,-2.2282,-2.2282,-2.2282,-2.1452,-2.0971,-2.15,-2.1488,-2.1428,-2.1488,-2.1909,-2.2197,-2.2197,-2.2555,-2.3305,-2.4452,-2.4545,-2.4371,-2.3997,-2.3407,-2.2788,-2.2114,-2.2086,-2.2086,-2.2086,-2.2086,-2.2114,-2.2184,-2.2184,-2.2184,-2.2184,-2.2184,-2.2184,0.0204,0.0,0.0,0.0,-0.11,-0.107,-0.1228,-0.1339,-0.1277,-0.1238,-0.1193,-0.1228,-0.1147,-0.1078,-0.1301,0.0,-0.3478,-0.4874,-0.5744,-0.7273,-0.8295,-0.8362,-0.8605,-0.8804,-0.8804,-0.8804,-0.8842,-0.893,-0.894,-0.9154,-0.9588,-1.0785,-1.1978,-1.328,-1.4578,-1.5773,-1.6649,-1.7073,-1.7279,-1.7384,-1.7483,-1.7582,-1.7582,-1.7582,-1.7488,-1.7301,-1.684,-1.7183,-1.7978,-1.8157,-1.9277,-2.0962,-2.1329,-2.1971,-2.2696,-2.2969,-2.3135,-2.3105,-2.2861,-2.2383,-2.1846,-2.1592,-2.1084,-2.0566,-2.0566,-2.0566,-2.0789,-2.1538,-2.2059,-2.2574,-2.3818,-2.3757,-2.3461,-2.3754,-2.3135,-2.2462,-2.2246,-2.2197,-2.2197,-2.2197,-2.2197,-2.2101,-2.1789,-2.1091,-2.0562,-2.0466,-2.073,-2.1055,-2.1368,-2.1873,-2.2197,-2.2197,-2.2836,-2.3449,-2.3734,-2.4232,-2.4246,-2.3561,-2.3252,-2.2817,-2.2198,-2.2184,-2.2184,-2.2184,-2.2184,-2.2184,-2.2184,-2.2184,-2.2184,-2.2184,-2.2184,-2.2381,-0.014,0.0,0.0,-0.0963,-0.0923,-0.0884,-0.1094,-0.111,-0.1129,-0.1,-0.1025,-0.095,-0.0867,-0.0789,0.0,-0.2202,-0.3481,-0.4679,-0.6002,-0.7139,-0.7947,-0.7909,-0.8167,-0.8345,-0.8531,-0.8615,-0.8801,-0.8869,-0.8913,-0.894,-0.894,-1.0021,-1.1219,-1.2309,-1.3717,-1.5018,-1.6324,-1.6855,-1.7067,-1.7179,-1.7483,-1.7582,-1.7582,-1.7502,-1.7261,-1.6881,-1.646,-1.6711,-1.728,-1.7334,-1.8411,-2.0223,-2.0503,-2.1329,-2.2441,-2.2882,-2.2892,-2.2746,-2.2446,-2.2074,-2.1568,-2.1257,-2.0937,-2.0566,-2.0566,-2.0566,-2.0712,-2.1318,-2.1614,-2.2134,-2.3452,-2.3174,-2.2786,-2.3628,-2.2967,-2.2197,-2.2197,-2.2197,-2.2197,-2.2197,-2.2197,-2.2029,-2.15,-2.0947,-2.0394,-1.9853,-2.0117,-2.0526,-2.0911,-2.1548,-2.2091,-2.2359,-2.2987,-2.3354,-2.3323,-2.3879,-2.3941,-2.3168,-2.3097,-2.2817,-2.2198,-2.2184,-2.2184,-2.2184,-2.2184,-2.2184,-2.2184,-2.2184,-2.2184,-2.2184,-2.2353,-2.2757,0.0,0.0,-0.05,-0.0616,-0.0639,-0.0659,-0.0689,-0.0706,-0.0717,-0.0718,-0.073,-0.0834,-0.0834,-0.0766,-0.1179,-0.2257,-0.3487,-0.4744,-0.581,-0.6934,-0.7599,-0.757,-0.7336,-0.7462,0.0,-0.8544,-0.8872,-0.8726,-0.8855,-0.894,-0.894,-1.0021,-1.1219,-1.2309,-1.3619,-1.4922,-1.6324,-1.663,-1.6842,-1.7179,-1.7483,-1.7582,-1.7569,-1.7288,-1.6847,-1.6299,-1.6279,-1.6106,-1.594,-1.6864,-1.8056,-1.9222,-2.0232,-2.1329,-2.2432,-2.2706,-2.237,-2.1845,-2.2102,-2.162,-2.0989,-2.115,-2.0937,-2.0566,-2.0566,-2.0566,-2.0644,-2.0644,-2.1165,-2.1983,-2.2809,-2.282,-2.2786,-2.3628,-2.2967,-2.2197,-2.2197,-2.2197,-2.2197,-2.2197,-2.2197,-2.2029,-2.15,-2.0971,-2.043,-1.9865,-1.9793,-1.9805,-1.9829,-2.0767,-2.1801,-2.2786,-2.2824,-2.3041,-2.3699,-2.3699,-2.3469,-2.314,-2.3097,-2.2817,-2.2198,-2.2184,-2.2184,-2.2184,-2.2184,-2.2184,-2.2184,-2.2184,-2.2184,-2.2184,-2.2788,-2.3311,0.0,0.0,-0.0382,-0.0557,-0.0497,-0.0515,-0.0706,-0.0714,-0.063,-0.0548,-0.0546,-0.0457,-0.0282,-0.0755,-0.1616,-0.2732,-0.392,-0.5116,-0.6305,-0.6984,-0.7214,-0.7015,-0.7271,0.0,0.0,0.0,0.0,-0.8842,-0.8815,-0.8832,-0.8933,-1.0021,-1.1219,-1.2309,-1.3619,-1.4815,-1.5998,-1.6524,-1.6736,-1.6842,-1.718,-1.7295,-1.7281,-1.6794,-1.646,-1.6259,-1.6066,-1.5919,-1.5832,-1.6204,-1.6943,-1.8056,-1.8964,-2.0068,-2.1042,-2.1498,-2.1321,-2.1071,-2.1755,-2.1545,-2.0922,-2.08,-2.0684,-2.0566,-2.0566,-2.0566,-2.0566,-2.0566,-2.0789,-2.1165,-2.1983,-2.1658,-2.1376,-2.2718,-2.2208,-2.1588,-2.2061,-2.2197,-2.2197,-2.2197,-2.2197,-2.1921,-2.1031,-2.073,-2.031,-1.9396,-1.9552,-1.9913,-2.0286,-2.0658,-2.111,-2.1733,-2.2071,-2.2356,-2.2577,-2.2944,-2.2958,-2.2536,-2.2479,-2.2395,-2.2184,-2.2184,-2.2184,-2.2184,-2.2184,-2.2184,-2.2184,-2.1823,-2.1837,-2.2184,-2.2395,-2.3025,-0.0286,-0.0226,-0.0238,-0.033,-0.0341,-0.0263,-0.0447,-0.0446,-0.0445,-0.0271,-0.0267,-0.0177,0.0,-0.0726,-0.174,-0.2954,-0.4118,-0.5196,-0.6434,-0.6816,-0.6838,-0.6654,-0.6937,0.0,0.0,0.0,0.0,-0.8454,-0.8598,-0.8754,-0.8852,-0.9987,-1.1219,-1.2309,-1.3619,-1.4708,-1.5891,-1.6311,-1.658,-1.6689,-1.7028,-1.7041,-1.6827,-1.6446,-1.6213,-1.6106,-1.5912,-1.5832,-1.5832,-1.5832,-1.6393,-1.7412,-1.8294,-1.9241,-2.0188,-2.0784,-2.0734,-2.0393,-2.1066,-2.0943,-2.0461,-2.0498,-2.0489,-2.0489,-2.0566,-2.0566,-2.0566,-2.0566,-2.0566,-2.0837,-2.1709,-2.1323,-2.1054,-2.2421,-2.208,-2.16,-2.2123,-2.2197,-2.2197,-2.2197,-2.2123,-2.1788,-2.0779,-2.0286,-1.9793,-1.9095,-1.9275,-1.9696,-2.0249,-2.0322,-2.054,-2.1163,-2.15,-2.1824,-2.2041,-2.2136,-2.2192,-2.2198,-2.1791,-2.1735,-2.2156,-2.1974,-2.1959,-2.2184,-2.1974,-2.1907,-2.1907,-2.1243,-2.1316,-2.1907,-2.2086,-2.3036,0.0,0.0,0.0,0.0,0.0,0.0,0.0,0.0,0.0,0.0,0.0,0.0,0.0,0.0,-0.1758,-0.3025,-0.4102,-0.5125,-0.6229,-0.6545,-0.6575,0.0,0.0,0.0,0.0,0.0,0.0,-0.7849,0.0,-0.8706,-0.872,-0.9934,-1.1219,-1.2309,-1.3619,-1.4708,-1.5891,-1.6199,-1.6386,-1.6639,-1.7018,-1.6814,-1.6273,-1.6259,-1.6092,-1.5832,-1.5832,-1.5832,-1.5832,-1.5812,-1.6365,-1.7274,-1.7939,-1.8782,-1.972,-2.0546,-2.0421,-1.9925,-2.0061,-1.9882,-1.9645,-2.0108,-2.0264,-2.0342,-2.0489,-2.0566,-2.0566,-2.0566,-2.0566,-2.0844,-2.1786,-2.1674,-2.1545,-2.2556,-2.2444,-2.2061,-2.2123,-2.2135,-2.2185,-2.2197,-2.2013,-2.1594,-2.0742,-1.9684,-1.8999,-1.8999,-1.8999,-1.9167,-1.9672,-1.9744,-2.0147,-2.1095,-2.1066,-2.1225,-2.1961,-2.1336,-2.1236,-2.21,-2.1046,-2.0906,-2.2044,-2.1569,-2.1541,-2.2086,-2.1569,-2.126,-2.126,-2.0639,-2.0667,-2.1316,-2.1907,-2.3263,0.0,0.0,0.0,0.0,0.0,0.0,0.0,0.0,0.0,0.0,0.0,-0.0162,0.0,0.0,0.0,-0.4021,-0.5151,0.0,-0.6441,-0.66,0.0,0.0,0.0,-0.6687,-0.673,-0.6901,0.0,0.0,-0.8184,-0.8638,-0.8869,-0.9998,-1.1219,-1.2309,-1.3619,-1.4708,-1.5891,-1.602,-1.6093,-1.642,-1.6293,-1.6111,-1.596,-1.5943,-1.5899,-1.5832,-1.5832,-1.5832,-1.5812,-1.5591,-1.569,-1.6026,-1.7316,-1.7962,-1.8341,-1.971,-2.0017,-1.9888,-1.9648,-1.9561,-1.9636,-1.9942,-2.002,-2.002,-2.0098,-2.0098,-2.0098,-2.0342,-2.0342,-2.0391,-2.0472,-2.0032,-1.9736,-2.0223,-2.0159,-2.0279,-2.106,-2.1526,-2.1925,-2.2123,-2.1428,-2.0735,-2.0519,-1.9476,-1.8721,-1.8721,-1.8721,-1.8822,-1.9167,-1.9191,-1.94,-1.9867,-2.0229,-2.0591,-2.1083,-2.0996,-2.1056,-2.1346,-2.0764,-2.054,-2.085,-2.0709,-2.0695,-2.085,-2.0695,-2.0625,-2.0625,-1.9993,-2.0231,-2.1316,-2.1471,-2.2434,0.0,0.0,0.0,0.0,0.0,0.0,0.0,0.0,0.0,0.0,-0.0234,0.0,0.0,0.0,0.0,0.0,0.0,0.0,-0.6499,-0.654,-0.6559,0.0,-0.6679,0.0,-0.67,-0.6861,-0.709,0.0,-0.7957,-0.8481,-0.8825,-0.9979,-1.1219,-1.2309,-1.3619,-1.4657,-1.5716,-1.5891,-1.59,-1.5954,-1.5927,-1.5901,-1.5873,-1.581,-1.5832,-1.5818,0.0,-1.5638,-1.5618,-1.5331,-1.5204,-1.5352,-1.6448,-1.7079,-1.7539,-1.8624,-1.9318,-1.9622,-1.9384,-1.939,-1.9478,-1.9715,-1.9794,-1.9794,-1.9863,-1.9818,-1.9676,-1.9841,-1.9697,-1.9601,-1.959,-1.9305,-1.9222,-1.9906,-1.9942,-2.015,-2.1123,-2.1537,-2.1737,-2.1862,-2.1009,-2.0239,-2.0193,-1.9309,-1.8614,-1.8614,-1.8614,-1.8667,-1.8827,-1.8987,-1.9198,-1.946,-1.9978,-2.0422,-2.0746,-2.0482,-2.0439,-2.0836,-1.9932,-1.9628,-2.0185,-2.0034,-2.0063,-2.04,-2.0119,-1.9978,-1.9978,-1.9305,-1.9529,-2.0456,-2.0456,-2.1338,0.0,0.0,0.0,0.0,0.0,0.0,0.0,-0.0081,-0.0156,-0.0152,0.0,0.0,-0.139,0.0,-0.3926,-0.4394,0.0,-0.6051,-0.641,-0.6445,-0.6488,-0.6627,-0.663,-0.6668,-0.679,-0.6903,-0.6984,-0.7209,-0.7731,-0.8213,-0.8595,-0.9802,-1.1071,-1.2267,-1.3434,-1.4506,-1.5451,-1.5628,-1.5574,-1.5398,-1.5641,-1.5686,-1.5737,-1.573,-1.571,-1.5758,0.0,0.0,-1.5317,-1.5023,-1.4903,-1.4959,-1.5504,-1.6222,-1.6936,-1.7711,-1.8487,-1.9134,-1.9222,-1.9265,-1.9237,-1.946,-1.9557,-1.9548,-1.9719,-1.9542,-1.925,-1.9193,-1.8901,-1.8734,-1.8923,-1.8954,-1.918,-2.0172,-2.0386,-2.0537,-2.14,-2.1624,-2.1612,-2.1369,-2.0649,-2.0041,-1.9866,-1.9107,-1.8506,-1.8506,-1.8506,-1.856,-1.856,-1.8869,-1.9239,-1.9512,-1.9965,-2.0383,-2.0604,-1.99,-1.9701,-2.0316,-1.8877,-1.8522,-1.9679,-1.935,-1.9419,-2.0048,-1.9516,-1.9223,-1.9223,-1.8731,-1.8787,-1.939,-1.9431,-2.0328,0.0,0.0,0.0,0.0,0.0,0.0,0.0,-0.048,0.0,0.0,0.0,-0.2212,-0.2979,-0.3532,0.0,-0.5275,0.0,0.0,0.0,0.0,-0.6518,0.0,0.0,0.0,0.0,0.0,0.0,0.0,0.0,0.0,-0.8376,-0.8841,-0.9923,-1.2056,-1.3049,-1.4076,-1.5173,-1.4962,-1.4904,-1.4813,-1.4874,-1.5025,-1.5267,-1.5452,-1.551,-1.5471,0.0,0.0,-1.5017,-1.4716,-1.4596,-1.4657,-1.5268,-1.5558,-1.5876,-1.7448,-1.8078,-1.8327,-1.9054,-1.9091,-1.8871,-1.9201,-1.9381,-1.9325,-1.8994,-1.8847,-1.8794,-1.8611,-1.8536,-1.845,-1.8314,-1.8147,-1.7963,-1.7871,-1.8365,-1.9034,-1.9628,-2.0764,-2.1569,-2.1099,-2.0415,-1.982,-1.9389,-1.8707,-1.8193,-1.8193,-1.8193,-1.8247,-1.8422,-1.8572,-1.8827,-1.9093,-1.95,-1.9724,-1.9664,-1.9456,-1.9231,-1.8973,-1.8316,-1.8004,-1.8262,-1.8167,-1.8208,-1.8317,-1.8261,-1.8287,-1.8394,-1.8349,-1.8679,-1.939,-1.9689,-2.0385,0.0,0.0,-0.009,-0.0629,-0.0701,-0.076,-0.1208,0.0,0.0,0.0,0.0,-0.2826,-0.3325,0.0,0.0,0.0,0.0,0.0,0.0,0.0,0.0,0.0,0.0,0.0,0.0,0.0,0.0,0.0,0.0,0.0,-0.8156,-0.9012,-0.9957,-1.1006,-1.2678,-1.37,-1.4076,-1.4471,-1.474,-1.4698,-1.466,-1.4885,-1.5077,-1.5201,-1.5238,-1.5186,0.0,0.0,-1.471,-1.4416,-1.4295,-1.4282,-1.4635,-1.4985,-1.556,-1.6862,-1.7594,-1.8052,-1.874,-1.8871,-1.8715,-1.8687,-1.8687,-1.865,-1.8467,-1.8256,-1.8045,-1.799,-1.7786,-1.7583,-1.7521,-1.7404,-1.7497,-1.8027,-1.9034,-1.9966,-2.0096,-2.0828,-2.1272,-2.0749,-2.019,-1.9633,-1.9159,-1.8527,-1.8084,-1.8084,-1.8084,-1.8139,-1.8247,-1.8302,-1.8614,-1.9344,-1.9407,-1.9496,-1.9703,-1.9081,-1.8565,-1.8362,-1.7889,-1.7679,-1.7693,-1.7747,-1.7842,-1.7882,-1.7949,-1.7989,-1.8043,-1.8069,-1.8367,-1.8939,-1.9098,-1.9516,-0.0265,-0.0269,-0.0539,-0.1525,-0.1649,-0.1742,-0.2373,-0.2488,0.0,0.0,0.0,-0.3431,0.0,0.0,0.0,0.0,0.0,0.0,0.0,0.0,0.0,0.0,0.0,0.0,0.0,0.0,0.0,0.0,0.0,0.0,0.0,-0.9157,-0.9983,-1.0393,-1.2098,-1.3105,-1.3309,-1.4219,-1.4613,-1.4592,-1.4536,-1.4702,-1.4886,-1.4875,-1.4793,-1.4806,0.0,0.0,0.0,-1.4182,-1.4088,-1.4088,-1.4088,-1.4496,-1.5235,-1.6131,-1.6895,-1.7675,-1.8264,-1.8443,-1.8403,-1.8091,-1.8054,-1.8109,-1.8018,-1.7761,-1.7477,-1.7394,-1.7147,-1.6908,-1.6908,-1.6908,-1.7235,-1.8643,-1.9966,-2.0892,-2.0903,-2.0951,-2.0848,-2.0354,-1.9861,-1.9356,-1.8827,-1.8403,-1.8084,-1.8084,-1.8084,-1.8084,-1.8084,-1.8089,-1.8437,-1.9418,-1.9246,-1.9152,-1.9433,-1.861,-1.8048,-1.7917,-1.7558,-1.7378,-1.7434,-1.7543,-1.7638,-1.7747,-1.7801,-1.7801,-1.7828,-1.7842,-1.8069,-1.85,-1.8539,-1.8808,-0.1039,-0.1238,-0.1524,-0.251,-0.2689,-0.257,-0.2531,0.0,0.0,0.0,-0.3689,-0.4298,-0.4509,0.0,0.0,0.0,0.0,0.0,0.0,0.0,0.0,0.0,0.0,0.0,0.0,0.0,0.0,0.0,0.0,0.0,0.0,-0.8286,-0.9301,-1.1212,-1.1331,-1.2299,-1.4136,-1.4334,-1.4322,-1.4292,-1.4057,-1.4135,-1.4409,-1.4299,-1.4302,-1.4245,0.0,0.0,0.0,-1.4095,-1.4088,-1.4088,-1.4088,-1.4173,-1.4334,-1.5235,-1.5858,-1.6389,-1.7223,-1.7534,-1.7596,-1.7568,-1.7807,-1.8054,-1.7669,-1.7523,-1.7422,-1.7064,-1.6936,-1.6908,-1.6908,-1.6908,-1.7245,-1.8499,-1.9375,-2.0107,-2.0764,-2.0677,-2.0331,-1.9849,-1.9333,-1.8804,-1.8244,-1.8118,-1.8084,-1.8084,-1.8084,-1.8084,-1.8084,-1.799,-1.81,-1.8558,-1.8609,-1.8325,-1.7791,-1.7963,-1.7865,-1.7316,-1.7238,-1.7199,-1.724,-1.724,-1.724,-1.724,-1.7391,-1.7474,-1.7516,-1.7666,-1.7989,-1.85,-1.8755,-1.9095,-0.1291,-0.1853,-0.2509,-0.3494,-0.3554,-0.3564,-0.3878,0.0,0.0,-0.3936,-0.4097,-0.4327,-0.4423,-0.4401,0.0,0.0,0.0,0.0,0.0,0.0,0.0,0.0,0.0,0.0,0.0,0.0,0.0,0.0,0.0,0.0,0.0,-0.7629,-0.8331,-0.9322,-0.9941,-1.0974,-1.2441,-1.3022,-1.3538,-1.4057,-1.3954,-1.3821,-1.3848,-1.3746,-1.3736,-1.3798,0.0,0.0,0.0,-1.3828,-1.3913,-1.4088,-1.4088,-1.3975,-1.3897,-1.4782,-1.5458,-1.5926,-1.6615,-1.7093,-1.7458,-1.722,-1.7257,-1.7358,-1.7193,-1.7138,-1.711,-1.6954,-1.6908,-1.6908,-1.6908,-1.7176,-1.7569,-1.8432,-1.9023,-1.9543,-2.0147,-2.0148,-1.9826,-1.931,-1.9046,-1.8736,-1.8176,-1.8084,-1.8084,-1.8084,-1.7975,-1.7763,-1.7577,-1.7601,-1.7537,-1.7158,-1.7566,-1.7861,-1.7849,-1.7674,-1.746,-1.7212,-1.7199,-1.7199,-1.7199,-1.7199,-1.7199,-1.7199,-1.7253,-1.7282,-1.7323,-1.7365,-1.7639,-1.8068,-1.8486,-1.8884,-0.1787,-0.2533,-0.3466,-0.4469,-0.4486,-0.4437,0.0,0.0,-0.4657,-0.4349,-0.43,-0.4311,-0.4344,-0.4322,-0.4349,0.0,0.0,0.0,0.0,0.0,0.0,0.0,0.0,0.0,0.0,0.0,0.0,0.0,0.0,0.0,0.0,-0.7171,-0.7655,-0.8329,-0.9166,-1.0011,-1.1177,-1.2071,-1.2819,-1.3408,-1.3614,-1.3574,-1.3387,-1.3379,-1.3337,0.0,0.0,0.0,0.0,-1.3523,-1.3651,-1.3745,-1.3828,-1.3701,-1.3595,-1.4139,-1.4724,-1.5247,-1.5815,-1.646,-1.6982,-1.6921,-1.6908,-1.6908,-1.6908,-1.6908,-1.6908,-1.6908,-1.6908,-1.6908,-1.6908,-1.7304,-1.7842,-1.8442,-1.8877,-1.926,-1.9867,-1.9738,-1.9344,-1.8851,-1.8657,-1.8396,-1.7977,-1.7975,-1.7986,-1.803,-1.7741,-1.7472,-1.7333,-1.7271,-1.6994,-1.6515,-1.6917,-1.7364,-1.7653,-1.7405,-1.7199,-1.7199,-1.7157,-1.7157,-1.7157,-1.7115,-1.7115,-1.7157,-1.7157,-1.724,-1.7393,-1.7393,-1.7679,-1.8187,-1.85,-1.8898,-0.2587,-0.3498,-0.4359,-0.5435,-0.5458,-0.5156,0.0,-0.4828,-0.4657,-0.4349,-0.43,-0.4336,-0.4447,-0.4376,-0.4379,0.0,0.0,0.0,0.0,0.0,0.0,0.0,0.0,0.0,0.0,0.0,0.0,0.0,0.0,0.0,0.0,0.0,-0.7538,-0.9106,-0.9336,-0.9905,-1.0953,-1.1775,-1.2118,-1.2113,-1.2796,-1.3133,-1.3121,-1.3102,0.0,0.0,0.0,0.0,0.0,-1.3238,-1.315,-1.2902,-1.3141,-1.322,-1.3213,-1.3213,-1.355,-1.4013,-1.4836,-1.5421,-1.5912,-1.6691,-1.6908,-1.6908,-1.6908,-1.6908,-1.6908,-1.6908,-1.6908,-1.6908,-1.6908,-1.7304,-1.791,-1.8633,-1.8942,-1.9323,-2.0053,-1.9513,-1.8851,-1.8554,-1.8104,-1.7656,-1.7534,-1.7645,-1.7755,-1.7909,-1.7382,-1.7183,-1.7653,-1.694,-1.6572,-1.7032,-1.7004,-1.6833,-1.6723,-1.7031,-1.7199,-1.7199,-1.7073,-1.7002,-1.7002,-1.6918,-1.6918,-1.7002,-1.7002,-1.7282,-1.7787,-1.7787,-1.8226,-1.9101,-1.9101,-1.9325,-0.3355,-0.4103,-0.4879,-0.5173,-0.5094,-0.4915,-0.4795,-0.4643,-0.4485,-0.4333,-0.43,-0.4311,-0.4346,-0.4325,-0.4379,-0.4687,0.0,0.0,0.0,0.0,0.0,0.0,0.0,0.0,0.0,0.0,0.0,0.0,0.0,0.0,0.0,0.0,-0.7013,-0.7973,-0.8122,-0.8694,-0.9724,-1.0032,-1.0663,-1.1874,-1.2071,-1.2394,-1.2831,-1.2832,0.0,0.0,0.0,0.0,0.0,-1.2624,-1.2648,-1.273,-1.273,-1.2693,-1.2525,-1.2525,-1.2775,-1.3307,-1.3895,-1.4768,-1.5683,-1.6263,-1.67,-1.6908,-1.6908,-1.6908,-1.6908,-1.6908,-1.6908,-1.6908,-1.6908,-1.6843,-1.6958,-1.7803,-1.761,-1.7551,-1.8295,-1.8211,-1.7868,-1.7644,-1.7578,-1.7534,-1.7301,-1.7301,-1.7357,-1.7412,-1.6841,-1.651,-1.6786,-1.6353,-1.6173,-1.6438,-1.6721,-1.6876,-1.682,-1.6905,-1.7002,-1.7002,-1.7002,-1.7002,-1.7002,-1.7086,-1.7115,-1.7157,-1.7044,-1.7073,-1.724,-1.7475,-1.8028,-1.8898,-1.8898,-1.9101,0.0,-0.4323,-0.5048,-0.5023,-0.4923,-0.4803,-0.4681,-0.4665,-0.4493,-0.4333,-0.43,-0.43,-0.43,-0.43,-0.4349,-0.4496,0.0,0.0,0.0,0.0,0.0,0.0,0.0,0.0,0.0,0.0,0.0,0.0,0.0,0.0,0.0,0.0,-0.6563,-0.6982,-0.7282,-0.7698,-0.834,-0.9092,-0.9984,-1.1004,-1.1712,-1.2204,-1.256,0.0,0.0,0.0,0.0,0.0,0.0,-1.2097,-1.2114,-1.2163,-1.2247,-1.2139,-1.1986,-1.1986,-1.2241,-1.2652,-1.323,-1.3954,-1.4744,-1.5542,-1.6027,-1.6378,-1.6301,-1.6533,-1.6872,-1.6725,-1.6611,-1.6574,-1.6419,-1.6133,-1.6074,-1.684,-1.6678,-1.6577,-1.7301,-1.7402,-1.7301,-1.7078,-1.7145,-1.719,-1.7022,-1.7032,-1.7024,-1.6884,-1.6289,-1.5973,-1.6272,-1.5913,-1.5798,-1.6256,-1.6565,-1.6748,-1.6748,-1.6833,-1.6876,-1.6876,-1.6876,-1.6876,-1.6876,-1.6905,-1.6947,-1.7002,-1.6918,-1.7002,-1.7199,-1.772,-1.8344,-1.9026,-1.9026,-1.9139,0.0,-0.4201,-0.4833,-0.4939,-0.4879,-0.4768,-0.4654,-0.4698,0.0,-0.4346,-0.43,-0.4303,-0.4311,-0.4314,-0.4319,-0.4336,0.0,0.0,0.0,0.0,0.0,0.0,0.0,0.0,0.0,0.0,0.0,0.0,0.0,0.0,0.0,0.0,0.0,-0.6262,-0.6721,-0.6904,-0.6995,-0.8794,-0.9749,-0.9836,-1.1643,-1.2379,-1.223,0.0,0.0,0.0,0.0,0.0,0.0,-1.1658,-1.1575,-1.1409,-1.1558,-1.1632,-1.1632,-1.1632,-1.1781,-1.2003,-1.2625,-1.2983,-1.3339,-1.4546,-1.5177,-1.5466,-1.523,-1.5963,-1.6674,-1.6309,-1.6142,-1.5918,-1.5595,-1.5348,-1.5265,-1.5826,-1.6061,-1.6297,-1.6835,-1.7037,-1.7088,-1.6807,-1.6751,-1.6751,-1.6637,-1.6694,-1.6648,-1.631,-1.5732,-1.5567,-1.6079,-1.5545,-1.5457,-1.6392,-1.6522,-1.6479,-1.6522,-1.6748,-1.6876,-1.6876,-1.6761,-1.6675,-1.6675,-1.6577,-1.662,-1.6761,-1.6761,-1.7044,-1.7557,-1.8383,-1.8988,-1.9376,-1.9376,-1.9376,-0.4497,0.0,-0.4542,-0.4482,-0.4447,-0.442,0.0,-0.4384,-0.4368,0.0,0.0,0.0,0.0,0.0,0.0,0.0,0.0,0.0,0.0,0.0,0.0,0.0,0.0,0.0,0.0,0.0,0.0,0.0,0.0,0.0,0.0,0.0,0.0,-0.5863,-0.6132,-0.6394,-0.657,-0.7156,-0.7925,-0.8611,-0.9762,-1.06,-1.1222,0.0,0.0,0.0,0.0,0.0,-1.1208,-1.1283,-1.1247,-1.1186,-1.1186,-1.126,-1.126,-1.126,-1.126,-1.1378,-1.1755,-1.2379,-1.3179,-1.4521,-1.5063,-1.5107,-1.5151,-1.5379,-1.5569,-1.548,-1.5453,-1.537,-1.5272,-1.5014,-1.4908,-1.5666,-1.5638,-1.5625,-1.6403,-1.6665,-1.6694,-1.6545,-1.6591,-1.6581,-1.6477,-1.6488,-1.6331,-1.5917,-1.5393,-1.5273,-1.5841,-1.5406,-1.5457,-1.6392,-1.6436,-1.6436,-1.6522,-1.6565,-1.6607,-1.6607,-1.6663,-1.6675,-1.6675,-1.6761,-1.696,-1.7323,-1.7557,-1.7868,-1.8266,-1.8461,-1.8784,-1.9176,-1.9176,-1.9176,-0.4712,-0.4586,-0.4455,-0.4393,-0.442,-0.4447,-0.439,0.0,0.0,0.0,0.0,0.0,0.0,0.0,0.0,0.0,0.0,0.0,0.0,0.0,0.0,0.0,0.0,0.0,0.0,0.0,0.0,0.0,0.0,0.0,0.0,0.0,0.0,0.0,-0.5736,-0.5934,-0.6254,-0.6962,-0.7541,-0.8155,-0.8994,-0.9854,-1.0649,0.0,0.0,0.0,0.0,0.0,-1.1111,-1.1111,-1.1111,-1.1111,-1.1111,-1.1111,-1.1099,-1.0979,-1.1004,-1.104,-1.0985,-1.1517,-1.2289,-1.3185,-1.3729,-1.4028,-1.4259,-1.4397,-1.4486,-1.4852,-1.485,-1.4824,-1.4638,-1.4356,-1.425,-1.493,-1.5053,-1.5245,-1.5904,-1.6239,-1.6353,-1.6374,-1.6363,-1.6353,-1.6374,-1.6208,-1.5953,-1.5636,-1.5226,-1.5153,-1.5602,-1.5451,-1.5558,-1.6275,-1.6318,-1.6318,-1.6362,-1.6306,-1.6337,-1.6436,-1.6448,-1.6461,-1.6461,-1.6534,-1.6791,-1.724,-1.7557,-1.7922,-1.8372,-1.8372,-1.8567,-1.895,-1.895,-1.895,-0.4861,-0.4683,-0.4493,-0.4474,-0.4635,-0.4698,0.0,0.0,0.0,0.0,0.0,0.0,0.0,0.0,0.0,0.0,0.0,0.0,0.0,0.0,0.0,0.0,0.0,0.0,0.0,0.0,0.0,0.0,0.0,0.0,0.0,0.0,0.0,0.0,-0.5532,-0.5659,-0.6025,-0.6977,-0.7606,-0.7727,-0.8703,-0.95,-1.0105,-1.0151,0.0,0.0,0.0,0.0,-1.1105,-1.1069,-1.1051,-1.1045,-1.1009,-1.0991,-1.0966,-1.0743,-1.073,-1.0836,-1.0565,-1.0784,-1.1256,-1.1717,-1.227,-1.2917,-1.3202,-1.3407,-1.3631,-1.4215,-1.432,-1.4196,-1.3857,-1.364,-1.3631,-1.4001,-1.4538,-1.501,-1.5488,-1.5894,-1.6161,-1.628,-1.6146,-1.6058,-1.612,-1.579,-1.5529,-1.5401,-1.5096,-1.5004,-1.5437,-1.5468,-1.5647,-1.61,-1.6156,-1.6113,-1.6156,-1.6001,-1.6044,-1.6262,-1.6188,-1.6144,-1.6231,-1.6275,-1.6534,-1.696,-1.7323,-1.7733,-1.8202,-1.8202,-1.8386,-1.8721,-1.8784,-1.8784,-0.5002,-0.4818,-0.4671,-0.4496,-0.4635,-0.472,0.0,0.0,0.0,0.0,0.0,0.0,0.0,0.0,0.0,0.0,0.0,0.0,0.0,0.0,0.0,0.0,0.0,0.0,0.0,0.0,0.0,0.0,0.0,0.0,0.0,0.0,0.0,0.0,0.0,-0.5407,-0.5507,-0.6011,-0.6251,-0.6312,-0.7404,-0.8343,-0.9149,-0.9673,-1.0402,0.0,0.0,-1.1111,-1.1093,-1.0876,-1.0779,-1.0761,-1.0532,-1.0447,-1.0441,-1.0405,-1.0387,-1.049,-1.1015,-1.1142,-1.1185,-1.2274,-1.2755,-1.2993,-1.3258,-1.3407,-1.3459,-1.3291,-1.3422,-1.3649,-1.3588,-1.3511,-1.3571,-1.3752,-1.435,-1.4951,-1.5235,-1.5836,-1.626,-1.5866,-1.5673,-1.5495,-1.5106,-1.4877,-1.4768,-1.4811,-1.4782,-1.4897,-1.529,-1.5311,-1.5457,-1.5836,-1.5792,-1.5804,-1.5836,-1.5691,-1.5647,-1.5792,-1.5836,-1.6001,-1.6281,-1.6655,-1.7047,-1.7393,-1.7868,-1.8109,-1.8202,-1.8202,-1.8228,-1.8307,-1.8644,-1.8745,-0.4944,-0.4795,-0.4729,-0.4664,-0.4711,-0.4749,0.0,0.0,0.0,0.0,0.0,0.0,0.0,0.0,0.0,0.0,0.0,0.0,0.0,0.0,0.0,0.0,0.0,0.0,0.0,0.0,0.0,0.0,0.0,0.0,0.0,0.0,0.0,0.0,0.0,-0.5241,-0.5178,-0.5497,-0.5693,-0.5764,-0.626,-0.7055,-0.7974,-0.8732,-0.9604,0.0,0.0,-1.09,-1.0882,-1.0616,-1.0508,-1.0496,-1.0375,-1.0327,-1.0315,-1.017,-0.9964,-0.9886,-1.0282,-1.0277,-1.0364,-1.1365,-1.1802,-1.2042,-1.2613,-1.2858,-1.2972,-1.292,-1.3042,-1.3216,-1.3025,-1.3033,-1.3216,-1.3511,-1.4172,-1.4709,-1.4821,-1.5239,-1.5523,-1.5175,-1.4996,-1.4871,-1.4702,-1.4355,-1.4175,-1.4424,-1.437,-1.4508,-1.4926,-1.5187,-1.5379,-1.5603,-1.5614,-1.557,-1.5424,-1.5277,-1.5367,-1.5824,-1.5869,-1.6044,-1.6367,-1.6765,-1.7018,-1.7131,-1.7488,-1.7666,-1.7666,-1.7666,-1.7666,-1.7666,-1.8042,-1.8108,-0.5209,-0.4932,-0.4681,-0.4803,0.0,0.0,0.0,0.0,0.0,0.0,0.0,0.0,0.0,0.0,0.0,0.0,0.0,0.0,0.0,0.0,0.0,0.0,0.0,0.0,0.0,0.0,0.0,0.0,0.0,0.0,0.0,0.0,0.0,0.0,0.0,0.0,-0.5018,-0.5168,-0.5294,-0.5471,-0.5471,-0.6123,-0.7165,-0.7728,-0.8543,-0.944,-0.9941,-1.0194,-1.0248,-1.0136,-1.003,-1.0087,-1.0027,-1.0003,-0.9985,-0.9783,-0.9587,-0.9414,-0.9542,-0.967,-0.9862,-1.0681,-1.1115,-1.1421,-1.212,-1.2359,-1.2552,-1.2621,-1.2736,-1.2744,-1.2613,-1.2674,-1.2842,-1.2978,-1.3672,-1.4212,-1.4073,-1.4443,-1.4785,-1.439,-1.4205,-1.4133,-1.417,-1.3759,-1.3581,-1.4039,-1.3972,-1.4071,-1.4628,-1.4971,-1.5165,-1.5244,-1.5244,-1.5187,-1.5062,-1.4915,-1.5142,-1.5913,-1.5856,-1.6001,-1.6392,-1.662,-1.6693,-1.671,-1.6934,-1.7031,-1.7031,-1.7115,-1.7115,-1.7157,-1.7475,-1.7557,-0.6287,-0.549,-0.4681,-0.4803,0.0,0.0,0.0,0.0,0.0,0.0,0.0,0.0,0.0,0.0,0.0,0.0,0.0,0.0,0.0,0.0,0.0,0.0,0.0,0.0,0.0,0.0,0.0,0.0,0.0,0.0,0.0,0.0,0.0,0.0,0.0,0.0,-0.5018,-0.5018,-0.5096,-0.5332,-0.5494,-0.6028,-0.6934,-0.6851,-0.7294,-0.8093,-0.8475,-0.874,-0.8931,-0.9184,-0.9355,-0.9455,-0.9165,-0.9074,-0.9068,-0.9051,-0.9034,-0.9081,-0.9588,-1.0034,-1.0548,-1.1052,-1.1677,-1.2243,-1.2305,-1.2359,-1.2421,-1.2243,-1.2182,-1.2243,-1.2683,-1.2805,-1.2594,-1.19,-1.2747,-1.345,-1.2697,-1.3549,-1.4255,-1.3684,-1.3452,-1.3266,-1.2889,-1.2694,-1.2812,-1.3519,-1.3641,-1.3858,-1.4523,-1.4627,-1.4616,-1.4466,-1.4466,-1.4605,-1.4903,-1.4743,-1.4983,-1.5748,-1.5424,-1.5468,-1.6188,-1.6132,-1.6207,-1.6522,-1.6552,-1.6565,-1.6565,-1.6791,-1.6918,-1.6918,-1.7323,-1.7393,-0.6425,-0.5789,-0.5214,-0.4897,0.0,0.0,0.0,0.0,0.0,0.0,0.0,0.0,0.0,0.0,0.0,0.0,0.0,0.0,0.0,0.0,0.0,0.0,0.0,0.0,0.0,0.0,0.0,0.0,0.0,0.0,0.0,0.0,0.0,0.0,0.0,0.0,0.0,-0.4942,-0.4901,-0.4977,-0.5134,-0.5437,-0.5799,-0.6264,-0.6919,-0.7533,-0.8036,-0.8569,-0.9037,-0.9003,-0.9034,-0.9148,-0.9057,-0.9017,-0.9017,-0.9017,-0.9017,-0.9017,-0.9204,-0.9396,-0.9722,-1.0428,-1.087,-1.1178,-1.1685,-1.1872,-1.1934,-1.1934,-1.1872,-1.1809,-1.1996,-1.2058,-1.2035,-1.1802,-1.2422,-1.2897,-1.2492,-1.3041,-1.3449,-1.2993,-1.2757,-1.271,-1.2812,-1.2627,-1.2676,-1.3142,-1.3372,-1.361,-1.3952,-1.4104,-1.4197,-1.4176,-1.3836,-1.3789,-1.4176,-1.4093,-1.4233,-1.488,-1.5198,-1.5603,-1.62,-1.5812,-1.5668,-1.5756,-1.5421,-1.5197,-1.5073,-1.5433,-1.5611,-1.5522,-1.5996,-1.6126,-0.7146,-0.6395,-0.5657,0.0,0.0,0.0,0.0,0.0,0.0,0.0,0.0,0.0,0.0,0.0,0.0,0.0,0.0,0.0,0.0,0.0,0.0,0.0,0.0,0.0,0.0,0.0,0.0,0.0,0.0,0.0,0.0,0.0,0.0,0.0,0.0,0.0,0.0,-0.4725,-0.4664,-0.4702,-0.486,-0.493,-0.4993,-0.553,-0.6032,-0.6424,-0.6929,-0.7588,-0.8256,-0.8244,-0.8506,-0.8829,-0.8829,-0.8829,-0.8829,-0.8829,-0.8829,-0.8829,-0.8829,-0.9017,-0.932,-0.9806,-1.0223,-1.0647,-1.1012,-1.1204,-1.1261,-1.1282,-1.1253,-1.1138,-1.1138,-1.1394,-1.1594,-1.1499,-1.202,-1.2432,-1.2114,-1.2437,-1.266,-1.233,-1.2175,-1.2224,-1.2578,-1.248,-1.2529,-1.292,-1.3094,-1.3238,-1.3382,-1.3536,-1.3631,-1.3658,-1.3208,-1.3112,-1.3668,-1.3467,-1.3552,-1.4176,-1.4582,-1.5085,-1.5623,-1.5209,-1.4937,-1.4892,-1.456,-1.4283,-1.4129,-1.4628,-1.4812,-1.4652,-1.4971,-1.5062,-0.8553,-0.7279,0.0,0.0,0.0,0.0,0.0,0.0,0.0,0.0,0.0,0.0,0.0,0.0,0.0,0.0,0.0,0.0,0.0,0.0,0.0,0.0,0.0,0.0,0.0,0.0,0.0,0.0,0.0,0.0,0.0,0.0,0.0,0.0,0.0,0.0,0.0,-0.4453,-0.4469,-0.4429,-0.4576,-0.4723,-0.472,-0.4596,-0.4469,-0.453,-0.4947,-0.5484,-0.6145,-0.6937,-0.7727,-0.8517,-0.8517,-0.8517,-0.8517,-0.8511,-0.8511,-0.8511,-0.8506,-0.9075,-0.9717,-0.9383,-1.0109,-1.1002,-1.039,-1.0352,-1.0527,-1.0284,-1.02,-1.02,-1.0193,-1.0938,-1.1472,-1.0684,-1.1329,-1.1931,-1.1404,-1.1719,-1.2026,-1.1728,-1.1669,-1.1778,-1.2026,-1.2076,-1.2274,-1.2832,-1.2783,-1.2774,-1.2958,-1.292,-1.2881,-1.2881,-1.2491,-1.257,-1.3515,-1.2967,-1.2948,-1.3721,-1.3552,-1.3732,-1.4457,-1.4154,-1.3967,-1.3967,-1.4061,-1.4061,-1.3967,-1.4582,-1.4755,-1.4503,-1.4481,-1.4367,-0.8795,0.0,0.0,0.0,0.0,0.0,0.0,0.0,0.0,0.0,0.0,0.0,0.0,0.0,0.0,0.0,0.0,0.0,0.0,0.0,0.0,0.0,0.0,0.0,0.0,0.0,0.0,0.0,0.0,0.0,0.0,0.0,0.0,0.0,0.0,0.0,0.0,0.0,-0.4063,-0.4031,-0.4094,-0.4235,-0.4523,-0.4488,-0.4628,-0.4947,-0.504,-0.5679,-0.6732,-0.7582,-0.8112,-0.8517,-0.8517,-0.8382,-0.8102,-0.7995,-0.7812,-0.7545,-0.7444,-0.7573,-0.7796,-0.8094,-0.8717,-0.9351,-0.9531,-0.9894,-1.0319,-1.0228,-1.0027,-0.9806,-0.9602,-0.9876,-1.0219,-1.0195,-1.0632,-1.0913,-1.0707,-1.1049,-1.1326,-1.1175,-1.1074,-1.1116,-1.141,-1.1669,-1.1968,-1.2335,-1.2657,-1.2774,-1.2666,-1.2323,-1.2175,-1.2431,-1.1918,-1.195,-1.2842,-1.2628,-1.2463,-1.255,-1.256,-1.2851,-1.3579,-1.3044,-1.2745,-1.2745,-1.2628,-1.2491,-1.2393,-1.316,-1.3426,-1.3195,-1.4575,-1.5107,-0.9387,0.0,0.0,0.0,0.0,0.0,0.0,0.0,0.0,0.0,0.0,0.0,0.0,0.0,0.0,0.0,0.0,0.0,0.0,0.0,0.0,0.0,0.0,0.0,0.0,0.0,0.0,0.0,0.0,0.0,0.0,0.0,0.0,0.0,0.0,0.0,0.0,0.0,0.0,-0.3719,-0.3789,-0.3924,-0.4193,-0.4193,-0.4357,-0.4622,-0.5087,-0.5877,-0.6985,-0.7688,-0.8042,-0.8164,-0.8075,-0.785,-0.7573,-0.7439,-0.7267,-0.7073,-0.694,-0.7131,-0.7478,-0.7735,-0.8358,-0.904,-0.9097,-0.9399,-0.9706,-0.9583,-0.9325,-0.9069,-0.8899,-0.9004,-0.9322,-0.9646,-1.0113,-1.0422,-1.036,-1.0643,-1.0871,-1.0667,-1.0565,-1.0557,-1.0838,-1.115,-1.146,-1.1832,-1.2157,-1.2175,-1.1819,-1.141,-1.1309,-1.1719,-1.1108,-1.1108,-1.2017,-1.1792,-1.1683,-1.1783,-1.1891,-1.2089,-1.2491,-1.2138,-1.2039,-1.2236,-1.2058,-1.1927,-1.1769,-1.3118,-1.3615,-1.3447,-1.5324,-1.6172,0.0,0.0,0.0,0.0,0.0,0.0,0.0,0.0,0.0,0.0,0.0,0.0,0.0,0.0,0.0,0.0,0.0,0.0,0.0,0.0,0.0,0.0,0.0,0.0,0.0,0.0,0.0,0.0,0.0,0.0,0.0,0.0,0.0,0.0,0.0,0.0,0.0,0.0,0.0,0.0,-0.3623,-0.3754,-0.3744,-0.3754,-0.3818,-0.3941,-0.5051,-0.6029,-0.6858,-0.7327,-0.7561,-0.7593,-0.7456,-0.7136,-0.6832,-0.6813,-0.6809,-0.6804,-0.679,-0.7308,-0.798,-0.7699,-0.8468,-0.9328,-0.8749,-0.8775,-0.887,-0.8652,-0.8368,-0.8168,-0.8115,-0.8315,-0.8573,-0.8949,-0.971,-1.0269,-1.0115,-1.0344,-1.0462,-1.0146,-1.0095,-1.019,-1.0269,-1.0533,-1.0854,-1.125,-1.136,-1.1167,-1.06,-1.0431,-1.0474,-1.0812,-1.0233,-1.0174,-1.1167,-1.071,-1.0659,-1.1318,-1.1368,-1.1499,-1.1731,-1.1539,-1.1796,-1.2464,-1.2359,-1.2311,-1.2388,-1.4258,-1.5043,-1.4857,-1.6657,-1.7458,0.0,0.0,0.0,0.0,0.0,0.0,0.0,0.0,0.0,0.0,0.0,0.0,0.0,0.0,0.0,0.0,0.0,0.0,0.0,0.0,0.0,0.0,0.0,0.0,0.0,0.0,0.0,0.0,0.0,0.0,0.0,0.0,0.0,0.0,0.0,0.0,-0.3256,-0.3254,-0.3276,0.0,-0.3257,-0.3321,-0.3251,-0.3654,-0.3974,-0.4207,-0.48,-0.5428,-0.6166,-0.6684,-0.6968,-0.7079,-0.7036,-0.6773,-0.6515,-0.6303,-0.6133,-0.588,-0.568,-0.5686,-0.5785,-0.5746,-0.6413,-0.7263,-0.7106,-0.7657,-0.835,-0.8287,-0.8055,-0.7777,-0.7563,-0.7456,-0.7509,-0.7783,-0.8778,-0.9562,-0.9316,-0.9465,-0.9569,-0.9323,-0.9517,-0.9718,-0.9614,-1.0035,-1.0395,-1.0576,-1.0474,-1.0277,-1.0174,-0.9917,-0.9969,-1.0474,-1.0072,-1.0079,-1.071,-1.0233,-1.0035,-1.03,-1.0336,-1.1286,-1.3521,-1.2041,-1.1955,-1.3607,-1.3691,-1.4453,-1.59,-1.6659,-1.683,-1.6522,-1.8292,-1.9047,0.0,0.0,0.0,0.0,0.0,0.0,0.0,0.0,0.0,0.0,0.0,0.0,0.0,0.0,0.0,0.0,0.0,0.0,0.0,0.0,0.0,0.0,0.0,0.0,0.0,0.0,0.0,0.0,0.0,0.0,0.0,0.0,0.0,0.0,-0.2837,-0.2799,-0.2691,-0.272,-0.2682,-0.2641,-0.2645,-0.2626,-0.265,-0.3182,-0.3623,-0.3828,-0.4139,-0.4594,-0.5125,-0.5652,-0.5914,-0.5906,-0.6049,-0.5961,-0.5661,-0.5571,-0.5426,-0.5245,-0.5156,-0.5399,-0.5778,-0.5504,-0.6258,-0.7176,-0.7015,-0.7295,-0.7681,-0.7729,-0.7456,-0.7025,-0.6918,-0.6918,-0.7074,-0.7348,-0.8037,-0.8725,-0.8791,-0.9001,-0.9106,-0.8798,-0.9001,-0.9159,-0.8942,-0.9361,-0.9725,-0.9814,-0.9658,-0.9496,-0.951,-0.9256,-0.9249,-0.9865,-0.9503,-0.951,-1.0146,-0.9829,-0.9829,-1.0308,-1.0395,-1.1524,-1.4004,-1.3146,-1.3596,-1.5787,-1.5762,-1.6162,-1.6996,-1.7973,-1.8338,-1.8139,-1.9889,-2.066,0.0,0.0,0.0,0.0,0.0,0.0,0.0,0.0,0.0,0.0,0.0,0.0,0.0,0.0,0.0,0.0,0.0,0.0,0.0,0.0,0.0,0.0,0.0,0.0,0.0,0.0,0.0,0.0,0.0,0.0,0.0,0.0,-0.2298,-0.2298,-0.2248,-0.2216,-0.2206,-0.2154,-0.2117,-0.2095,-0.2043,-0.2017,-0.2019,-0.2632,-0.2999,-0.3166,-0.3452,-0.38,-0.4204,-0.4735,-0.4919,-0.4855,-0.5116,-0.5117,-0.4897,-0.4897,-0.4901,-0.4846,-0.4846,-0.5445,-0.61,-0.5664,-0.6416,-0.7385,-0.7069,-0.6966,-0.6972,-0.7074,-0.6756,-0.6327,-0.6218,-0.6426,-0.6745,-0.6961,-0.7343,-0.7765,-0.8309,-0.858,-0.8633,-0.8209,-0.8427,-0.8586,-0.8474,-0.8844,-0.9159,-0.9106,-0.904,-0.8988,-0.8956,-0.8633,-0.8633,-0.9204,-0.889,-0.889,-0.9636,-0.9472,-0.987,-1.1081,-1.1304,-1.2459,-1.498,-1.5182,-1.6303,-1.8534,-1.8106,-1.7872,-1.7935,-1.9271,-1.9869,-1.9769,-2.1198,-2.184,0.0,0.0,0.0,0.0,0.0,0.0,0.0,0.0,0.0,0.0,0.0,0.0,0.0,0.0,0.0,0.0,0.0,0.0,0.0,0.0,0.0,0.0,0.0,0.0,0.0,0.0,0.0,0.0,0.0,0.0,0.0,-0.213,-0.2234,-0.2234,-0.2225,-0.2195,-0.214,-0.2131,-0.2072,-0.1906,-0.1837,-0.1774,-0.1774,-0.1841,-0.2195,-0.271,-0.3204,-0.3669,-0.4058,-0.4657,-0.493,-0.4871,-0.4963,-0.4952,-0.4897,-0.4897,-0.4849,-0.4743,-0.4743,-0.4632,-0.4522,-0.4411,-0.4956,-0.566,-0.5605,-0.5991,-0.649,-0.6372,-0.6213,-0.5946,-0.5399,-0.5614,-0.5937,-0.5991,-0.6322,-0.681,-0.767,-0.7783,-0.7568,-0.7182,-0.7605,-0.8143,-0.8521,-0.8942,-0.9106,-0.8732,-0.8738,-0.8804,-0.8804,-0.8685,-0.8626,-0.8679,-0.8626,-0.8784,-0.9263,-0.9159,-1.021,-1.2877,-1.3166,-1.5096,-1.921,-1.9453,-2.0183,-2.1671,-2.0345,-2.0308,-2.1688,-2.1955,-2.1857,-2.1465,-2.1637,-2.1708,0.0,0.0,0.0,0.0,0.0,0.0,0.0,0.0,0.0,0.0,0.0,0.0,0.0,0.0,0.0,0.0,0.0,0.0,0.0,0.0,0.0,0.0,0.0,0.0,0.0,0.0,0.0,0.0,0.0,0.0,-0.1508,-0.1558,-0.1548,-0.1414,-0.1393,0.0,-0.1226,-0.1186,-0.114,-0.1031,-0.0973,-0.0973,-0.0973,-0.0973,-0.1259,-0.1773,-0.2419,-0.2681,-0.2732,-0.3683,-0.4018,-0.3904,-0.4239,-0.4405,-0.4405,-0.4405,-0.4353,-0.4301,-0.4301,-0.4408,-0.4405,-0.4076,-0.4346,-0.4835,-0.4948,-0.4999,-0.5113,-0.55,-0.5395,-0.5066,-0.4677,-0.4728,-0.4948,-0.5062,-0.534,-0.5664,-0.6041,-0.6588,-0.7025,-0.7025,-0.745,-0.7824,-0.7943,-0.8043,-0.8143,-0.809,-0.7937,-0.8049,-0.8633,-0.8633,-0.8679,-0.8896,-0.8995,-0.9703,-1.1407,-1.1444,-1.2469,-1.5142,-1.5435,-1.6785,-1.9621,-1.9851,-2.0624,-2.2152,-2.1633,-2.1515,-2.1907,-2.201,-2.1882,-2.157,-2.1495,-2.145,0.0,0.0,0.0,0.0,0.0,0.0,0.0,0.0,0.0,0.0,0.0,0.0,0.0,0.0,0.0,0.0,0.0,0.0,0.0,0.0,0.0,0.0,0.0,0.0,0.0,0.0,0.0,0.0,0.0,0.0,-0.101,-0.0942,-0.0872,-0.0734,-0.0718,-0.0641,-0.0505,-0.0479,-0.046,-0.0393,-0.0393,-0.0336,-0.028,-0.028,-0.0449,-0.0842,-0.1624,-0.179,-0.1566,-0.274,-0.3019,-0.285,-0.3519,-0.3744,-0.3688,-0.3802,-0.3858,-0.3858,-0.3858,-0.4018,-0.4122,-0.3685,-0.368,-0.3947,-0.4116,-0.395,-0.3895,-0.4453,-0.446,-0.4184,-0.3959,-0.3956,-0.407,-0.4239,-0.4457,-0.4732,-0.5062,-0.5773,-0.6426,-0.681,-0.7133,-0.7348,-0.7192,-0.7182,-0.7283,-0.7563,-0.7402,-0.7616,-0.8626,-0.9205,-0.9635,-1.0082,-1.0642,-1.1847,-1.3908,-1.3999,-1.4982,-1.7396,-1.7661,-1.8496,-2.0193,-2.0295,-2.0843,-2.1943,-2.2034,-2.1816,-2.1354,-2.1479,-2.1386,-2.1087,-2.1039,-2.0925,0.0,0.0,0.0,0.0,0.0,0.0,0.0,0.0,0.0,0.0,0.0,0.0,0.0,0.0,0.0,0.0,0.0,0.0,0.0,0.0,0.0,0.0,0.0,0.0,0.0,0.0,0.0,0.0,0.0,0.0,-0.0809,-0.0607,-0.0533,-0.0518,-0.0517,-0.0503,-0.0474,-0.0458,-0.0393,-0.0393,-0.028,-0.0168,0.0,0.0,0.0056,0.0056,-0.0895,-0.1285,-0.1229,-0.2289,-0.2399,-0.195,-0.2794,-0.3016,-0.2847,-0.3244,-0.3413,-0.3413,-0.3413,-0.3135,-0.2802,-0.2747,-0.2685,-0.2621,-0.2621,-0.2843,-0.3174,-0.3174,-0.34,-0.3516,-0.3072,-0.3292,-0.3624,-0.3624,-0.3843,-0.4336,-0.5496,-0.5723,-0.5782,-0.6154,-0.6376,-0.6436,-0.6317,-0.6583,-0.6956,-0.7283,-0.7509,-0.8043,-0.9047,-1.0771,-1.2095,-1.2554,-1.4335,-1.5608,-1.5941,-1.6012,-1.7043,-1.9396,-1.9674,-2.0604,-2.2531,-2.2384,-2.2055,-2.1642,-2.1275,-2.1055,-2.1039,-2.1039,-2.0764,-2.0277,-2.0189,-2.017,0.0,0.0,0.0,0.0,0.0,0.0,0.0,0.0,0.0,0.0,0.0,0.0,0.0,0.0,0.0,0.0,0.0,0.0,0.0,0.0,0.0,0.0,0.0,0.0,0.0,0.0,0.0,0.0,0.0,0.0,-0.0607,-0.053,-0.0457,-0.0388,-0.0373,-0.0239,-0.0057,0.0056,0.0112,0.0112,0.0168,0.0224,0.028,0.028,0.028,0.028,-0.0056,-0.0448,-0.0894,-0.1676,-0.1956,-0.1956,-0.2293,-0.2571,-0.285,-0.2798,-0.2856,-0.2912,-0.2629,-0.235,-0.2127,-0.2015,-0.2014,-0.2068,-0.2237,-0.2516,-0.2738,-0.2847,-0.285,-0.2796,-0.2293,-0.2629,-0.3077,-0.3411,-0.3522,-0.3852,-0.4791,-0.5449,-0.5837,-0.5837,-0.605,-0.6268,-0.6322,-0.6372,-0.6642,-0.7348,-0.7354,-0.8221,-1.0751,-1.1737,-1.2904,-1.4744,-1.5835,-1.6983,-1.8306,-1.8435,-1.9352,-2.148,-2.1544,-2.1755,-2.2324,-2.1965,-2.1625,-2.129,-2.083,-2.0616,-2.0663,-2.0496,-2.0326,-2.0135,-1.9737,-1.9594,0.0,0.0,0.0,0.0,0.0,0.0,0.0,0.0,0.0,0.0,0.0,0.0,0.0,0.0,0.0,0.0,0.0,0.0,0.0,0.0,0.0,0.0,0.0,0.0,0.0,0.0,0.0,0.0,0.0,0.0,-0.0332,-0.0259,-0.0127,-0.0063,-0.006,0.0057,0.028,0.0449,0.0449,0.0393,0.0449,0.0505,0.0505,0.0561,0.0557,0.0606,0.0662,0.0275,-0.0385,-0.099,-0.1257,-0.1299,-0.1589,-0.187,-0.2146,-0.2063,-0.213,-0.2186,-0.1849,-0.1624,-0.1399,-0.1343,-0.1231,-0.1175,-0.1287,-0.1568,-0.1792,-0.1845,-0.1959,-0.2017,-0.1624,-0.1961,-0.2575,-0.3077,-0.3522,-0.3968,-0.4408,-0.512,-0.5618,-0.5513,-0.5782,-0.605,-0.6159,-0.6046,-0.6258,-0.7396,-0.7396,-0.8518,-1.2008,-1.3115,-1.4578,-1.7178,-1.8316,-1.9374,-2.059,-2.0624,-2.1096,-2.2337,-2.2136,-2.1903,-2.1731,-2.129,-2.0975,-2.091,-2.0268,-1.9939,-2.0,-1.9788,-1.9645,-1.9551,-1.9029,-1.8841,0.0,0.0,0.0,0.0,0.0,0.0,0.0,0.0,0.0,0.0,0.0,0.0,0.0,0.0,0.0,0.0,0.0,0.0,0.0,0.0,0.0,0.0,0.0,0.0,0.0,0.0,0.0,0.0,0.0,0.0,0.0,0.0251,0.0426,0.0412,0.0399,0.0393,0.0393,0.0617,0.0617,0.0449,0.0617,0.0729,0.0729,0.084,0.0935,0.1012,0.1224,0.0957,0.0319,-0.0159,-0.0156,0.0051,-0.0734,-0.0851,-0.0641,-0.094,-0.1176,-0.1289,-0.129,-0.101,-0.0673,-0.0673,-0.028,0.0224,0.0336,0.0,-0.0393,-0.0224,-0.0729,-0.1234,-0.0954,-0.1456,-0.2125,-0.2625,-0.3683,-0.4632,-0.4519,-0.468,-0.4956,-0.5242,-0.5458,-0.5673,-0.5828,-0.555,-0.5914,-0.7582,-0.7694,-0.9008,-1.2901,-1.5032,-1.7212,-1.9893,-2.1858,-2.2876,-2.2685,-2.2419,-2.2108,-2.1781,-2.1337,-2.1039,-2.1007,-2.0516,-2.0314,-2.0431,-1.9477,-1.8962,-1.8962,-1.8878,-1.8741,-1.8461,-1.7988,-1.7828,-0.8563,0.0,0.0,0.0,0.0,0.0,0.0,0.0,0.0,0.0,0.0,0.0,0.0,0.0,0.0,0.0,0.0,0.0,0.0,0.0,0.0,0.0,0.0,0.0,0.0,0.0,0.0,0.0,0.033,0.032,0.0313,0.0364,0.0412,0.0398,0.0564,0.0673,0.0785,0.0898,0.101,0.1066,0.1122,0.1233,0.151,0.1422,0.1505,0.1646,0.1707,0.1461,0.1035,0.1013,0.0662,0.0252,0.0204,0.0,-0.0359,-0.0586,-0.0702,-0.0705,-0.0445,-0.0168,0.0112,0.028,-0.0056,-0.0392,0.0,-0.056,-0.1119,-0.0505,-0.0505,-0.0729,-0.1119,-0.1567,-0.2181,-0.2852,-0.3411,-0.3858,-0.4076,-0.4187,-0.4515,-0.5504,-0.5618,-0.5891,-0.675,-0.675,-0.7524,-1.0321,-1.0626,-1.2298,-1.7141,-1.8147,-1.9337,-2.1733,-2.2255,-2.232,-2.2073,-2.1535,-2.1212,-2.1229,-2.0781,-2.055,-2.0648,-1.9798,-1.9368,-1.9405,-1.8559,-1.7973,-1.7612,-1.7947,-1.8068,-1.7988,-1.7188,-1.6685,0.0,0.0,0.0,0.0,0.0,0.0,0.0,0.0,0.0,0.0,0.0,0.0,0.0,0.0,0.0,0.0,0.0,0.0,0.0,0.0,0.0,0.0,0.0,0.0,0.0,0.0,0.0,0.0,0.0517,0.0617,0.0728,0.0714,0.0759,0.0802,0.0916,0.1024,0.1066,0.1345,0.1447,0.1319,0.1592,0.1743,0.177,0.1786,0.1857,0.1926,0.1985,0.1828,0.1533,0.1856,0.1488,0.0672,0.0734,0.059,0.0247,-0.0052,-0.0106,0.0,0.0222,0.0449,0.0729,0.1008,0.0727,0.0447,0.0896,0.0335,-0.0335,0.028,0.0056,-0.0449,-0.1064,-0.1623,-0.2238,-0.2852,-0.3411,-0.3858,-0.4405,-0.4625,-0.4904,-0.5559,-0.5563,-0.6163,-0.8537,-0.8752,-0.9763,-1.3288,-1.3622,-1.4971,-1.9202,-1.9359,-1.9967,-2.2263,-2.2022,-2.1642,-2.1493,-2.0814,-2.0387,-2.0369,-1.9768,-1.9462,-1.9513,-1.8812,-1.8391,-1.8207,-1.7572,-1.6925,-1.6275,-1.6925,-1.7063,-1.6642,-1.6213,-1.5864,-0.9962,0.0,0.0,0.0,0.0,0.0,-0.8445,-0.7881,0.0,0.0,0.0,0.0,0.0,0.0,0.0,0.0,0.0,0.0,0.0,0.0,0.0,0.0,0.0,0.0,0.0,0.0,0.021,0.0279,0.0632,0.0947,0.1243,0.124,0.1297,0.1474,0.1468,0.1445,0.1459,0.1849,0.1876,0.1553,0.2086,0.2158,0.1839,0.2132,0.2186,0.2163,0.2299,0.2248,0.2037,0.2582,0.2207,0.1253,0.1117,0.104,0.0954,0.0616,0.0526,0.0688,0.0767,0.0943,0.122,0.1549,0.1715,0.188,0.2272,0.1775,0.1113,0.1453,0.0672,-0.0336,-0.0842,-0.1625,-0.235,-0.2794,-0.3522,-0.4356,-0.5007,-0.534,-0.5513,-0.5618,-0.5681,-0.6973,-1.0698,-1.124,-1.2448,-1.6248,-1.6473,-1.7207,-1.9984,-1.9591,-1.9851,-2.1841,-2.1318,-2.0814,-2.0846,-2.0039,-1.9456,-1.9279,-1.8489,-1.8011,-1.7933,-1.7626,-1.7299,-1.6886,-1.6391,-1.572,-1.4915,-1.5808,-1.5864,-1.5051,-1.5073,-1.5073,-1.0382,-1.0227,-1.016,0.0,0.0,0.0,0.0,-0.7617,0.0,0.0,0.0,0.0,0.0,0.0,0.0,0.0,0.0,0.0,0.0,0.0,0.0,0.0,0.0,0.0,0.0,0.0,0.0069,0.1019,0.1272,0.1344,0.1466,0.1373,0.1474,0.1764,0.1777,0.1916,0.2242,0.2354,0.24,0.2443,0.2554,0.2709,0.285,0.2929,0.3037,0.3118,0.3329,0.3369,0.3337,0.3297,0.2704,0.1832,0.1848,0.1766,0.1552,0.1005,0.0876,0.1029,0.1119,0.1341,0.165,0.1904,0.1902,0.1748,0.1597,0.1262,0.0974,0.1001,0.0449,-0.0224,-0.0224,-0.1344,-0.2519,-0.2852,-0.3408,-0.3965,-0.4356,-0.4574,-0.4901,-0.5609,-0.8027,-1.0281,-1.1429,-1.3245,-1.5544,-1.8462,-1.8432,-1.8964,-2.1458,-2.1275,-2.0966,-2.1209,-2.0226,-1.9613,-1.9778,-1.8723,-1.7978,-1.781,-1.741,-1.7014,-1.6722,-1.6311,-1.591,-1.5504,-1.4391,-1.3773,-1.3558,-1.4435,-1.4824,-1.4606,-1.4029,-1.3747,-1.1439,-1.1175,-1.0981,-0.9481,0.0,0.0,0.0,0.0,0.0,0.0,0.0,0.0,0.0,0.0,0.0,0.0,0.0,0.0,0.0,0.0,0.0,0.0,0.0,0.0,0.0,0.0,-0.0067,0.1229,0.1483,0.1636,0.1847,0.1917,0.2119,0.2349,0.2312,0.2389,0.2577,0.2745,0.283,0.2837,0.3056,0.3192,0.3292,0.339,0.3516,0.3667,0.3752,0.387,0.4012,0.3866,0.3535,0.3031,0.2599,0.2395,0.2219,0.1745,0.1617,0.1769,0.179,0.1915,0.2168,0.2465,0.2513,0.2463,0.2467,0.212,0.1549,0.0707,0.0221,-0.0224,-0.084,-0.179,-0.2685,-0.3074,-0.3685,-0.4353,-0.4794,-0.619,-0.7562,-0.8209,-1.1855,-1.455,-1.3643,-1.5413,-1.7887,-2.0632,-2.0566,-2.0566,-2.1642,-2.135,-2.0719,-1.9935,-1.9064,-1.8405,-1.8104,-1.6954,-1.6348,-1.6519,-1.5976,-1.5581,-1.5472,-1.5229,-1.4665,-1.37,-1.284,-1.2288,-1.2024,-1.226,-1.2609,-1.3062,-1.2464,-1.2181,0.0,0.0,0.0,0.0,0.0,-0.9379,0.0,0.0,0.0,0.0,0.0,0.0,0.0,0.0,0.0,0.0,0.0,0.0,0.0,0.0,0.0,0.0,0.0,0.0,0.0,0.0,0.0065,0.1125,0.1562,0.1967,0.2277,0.2515,0.2704,0.2934,0.2917,0.293,0.297,0.3188,0.3252,0.3215,0.3542,0.365,0.3598,0.3754,0.3904,0.4002,0.4053,0.4253,0.4451,0.4404,0.4303,0.4188,0.3365,0.2971,0.2825,0.2521,0.2422,0.2433,0.2394,0.2464,0.2661,0.3001,0.305,0.3009,0.3357,0.2931,0.2007,0.0643,0.0165,-0.0224,-0.1455,-0.2237,-0.2794,-0.3355,-0.4079,-0.4965,-0.6132,-0.825,-1.0278,-1.1258,-1.5179,-1.7823,-1.6187,-1.7614,-1.9755,-2.203,-2.1869,-2.1348,-2.0957,-2.041,-1.9577,-1.8342,-1.7619,-1.6936,-1.6165,-1.5108,-1.467,-1.5084,-1.4369,-1.3905,-1.395,-1.3773,-1.3137,-1.1917,-1.1449,-1.1007,-1.0586,-1.0151,-1.0407,-1.1366,-1.099,-1.0797,0.0,0.0,0.0,0.0,-1.0765,0.0,0.0,0.0,0.0,0.0,0.0,0.0,0.0,0.0,0.0,0.0,0.0,0.0,0.0,0.0,0.0,0.0,0.0,0.0,0.0,0.0,0.0,0.0896,0.1946,0.2567,0.2525,0.2692,0.2936,0.3292,0.3315,0.3482,0.3855,0.3858,0.3904,0.3889,0.3944,0.3938,0.3975,0.4249,0.4412,0.4467,0.4682,0.4845,0.5012,0.4743,0.474,0.4757,0.4191,0.3587,0.3084,0.3077,0.285,0.2508,0.2756,0.2863,0.2906,0.3128,0.281,0.2482,0.2857,0.2323,0.1442,0.1096,0.0615,0.0,-0.0838,-0.1789,-0.2742,-0.3574,-0.4128,-0.5345,-0.8383,-0.9146,-1.0038,-1.2829,-1.5587,-1.7586,-1.7987,-1.9722,-2.1178,-2.1507,-2.0879,-2.0081,-1.9212,-1.8578,-1.7718,-1.6425,-1.5498,-1.4764,-1.4259,-1.3528,-1.3088,-1.2976,-1.2413,-1.2062,-1.1935,-1.1157,-1.0602,-1.0458,-1.0064,-0.9814,-0.9762,-0.919,-0.9496,-1.0517,-1.0261,-1.0159,0.0,0.0,0.0,0.0,0.0,0.0,0.0,0.0,-0.7967,0.0,0.0,0.0,0.0,0.0,0.0,0.0,0.0,0.0,0.0,0.0,0.0,0.0,0.0,0.0,0.0,0.0,0.0,0.0,0.0,0.276,0.2855,0.3108,0.337,0.3653,0.3658,0.3744,0.4021,0.4024,0.4024,0.4135,0.4135,0.419,0.4411,0.4577,0.4688,0.4849,0.4959,0.5179,0.5399,0.5293,0.5395,0.5634,0.5319,0.4591,0.3695,0.3516,0.3327,0.316,0.3197,0.3223,0.3325,0.3358,0.3196,0.2952,0.2773,0.2248,0.1623,0.1079,0.0331,-0.0615,-0.1783,-0.24,-0.3019,-0.4239,-0.5977,-0.7638,-0.8969,-1.1967,-1.4528,-1.5057,-1.7103,-1.8626,-1.8226,-1.9425,-2.0193,-1.9521,-1.9024,-1.8238,-1.7054,-1.6684,-1.5929,-1.4218,-1.3428,-1.2747,-1.2031,-1.1213,-1.093,-1.1315,-1.1024,-1.0838,-1.0813,-1.0167,-0.954,-0.8894,-0.8692,-0.8277,-0.7646,-0.7498,-0.7646,-0.81,-0.833,-0.8389,-1.3941,0.0,0.0,0.0,0.0,0.0,0.0,0.0,0.0,0.0,0.0,0.0,0.0,0.0,0.0,0.0,0.0,0.0,0.0,0.0,0.0,0.0,0.0,0.0,0.0,0.0,0.0,0.0,0.0,0.0,0.303,0.3421,0.3712,0.3907,0.3962,0.4018,0.4132,0.4187,0.4245,0.4359,0.4359,0.447,0.4743,0.4798,0.4908,0.5183,0.5238,0.5454,0.5782,0.5786,0.6018,0.627,0.6067,0.5435,0.461,0.4258,0.4172,0.4146,0.4051,0.4021,0.4035,0.387,0.3716,0.355,0.3081,0.2603,0.2076,0.1345,0.0329,-0.0893,-0.2225,-0.2843,-0.3618,-0.5703,-0.7748,-0.9658,-1.1141,-1.4526,-1.7251,-1.7135,-1.7867,-1.8172,-1.7183,-1.8142,-1.8772,-1.7807,-1.7196,-1.6427,-1.5132,-1.479,-1.3912,-1.2029,-1.1386,-1.0754,-1.0013,-0.9059,-0.8744,-0.9249,-0.9285,-0.9266,-0.911,-0.8803,-0.8283,-0.7475,-0.7422,-0.6945,-0.5928,-0.6268,-0.6263,-0.6027,-0.6794,-0.7069,0.0,0.0,0.0,0.0,0.0,0.0,0.0,0.0,-0.8441,0.0,0.0,0.0,0.0,0.0,0.0,0.0,0.0,0.0,0.0,0.0,0.0,0.0,0.0,0.0,0.0,0.0,0.0,0.0,0.0,0.0,0.3182,0.3462,0.3785,0.419,0.4356,0.4463,0.4463,0.4632,0.4688,0.4688,0.4688,0.4743,0.4897,0.5014,0.5183,0.5301,0.5513,0.5837,0.6209,0.6327,0.6415,0.6473,0.6103,0.5888,0.5738,0.5606,0.5542,0.5538,0.5526,0.5401,0.5184,0.4705,0.4363,0.4043,0.3822,0.3284,0.2671,0.2103,0.0894,-0.0446,-0.1555,-0.2726,-0.4496,-0.812,-0.9031,-1.0634,-1.623,-1.6163,-1.5872,-1.8827,-1.7161,-1.5105,-1.4607,-1.6148,-1.7329,-1.6822,-1.5819,-1.4753,-1.3779,-1.2837,-1.1599,-0.997,-0.9303,-0.8788,-0.8332,-0.7425,-0.6762,-0.6453,-0.684,-0.6891,-0.6367,-0.6312,-0.6312,-0.6258,-0.6258,-0.5928,-0.5316,-0.6041,-0.5882,-0.4988,-0.6303,-0.6907,0.0,0.0,-1.3808,-1.2647,0.0,0.0,0.0,0.0,0.0,0.0,0.0,0.0,0.0,0.0,0.0,0.0,0.0,0.0,0.0,0.0,0.0,0.0,0.0,0.0,0.0,0.0,0.0,0.0,0.0,0.0,0.0,0.3324,0.3824,0.4053,0.4358,0.4519,0.4632,0.4739,0.4846,0.4846,0.4846,0.4959,0.5183,0.5187,0.5352,0.5631,0.5891,0.6105,0.6381,0.6603,0.6791,0.6872,0.6651,0.6681,0.6766,0.5912,0.5396,0.5117,0.4987,0.4906,0.4729,0.4233,0.401,0.3776,0.3266,0.2198,0.1155,0.1002,-0.0613,-0.2339,-0.267,-0.4774,-0.719,-0.8718,-1.113,-1.3574,-1.5462,-1.572,-1.5678,-1.5818,-1.4369,-1.2817,-1.1842,-1.2082,-1.2441,-1.2586,-1.2273,-1.1613,-1.0544,-1.0115,-0.9494,-0.844,-0.7888,-0.7348,-0.6723,-0.5841,-0.5353,-0.5389,-0.5323,-0.5394,-0.5588,-0.5202,-0.4984,-0.4992,-0.4659,-0.422,-0.3729,-0.3953,-0.3898,-0.3564,-0.4223,-0.4831,-1.4204,-1.3913,0.0,0.0,-1.2258,0.0,-1.0701,0.0,0.0,0.0,0.0,0.0,0.0,0.0,0.0,0.0,0.0,0.0,0.0,0.0,0.0,0.0,0.0,0.0,0.0,0.0,-0.0861,-0.0519,0.1192,0.0,0.0,0.0,0.3929,0.4217,0.4522,0.468,0.4794,0.4959,0.5069,0.5069,0.5124,0.5289,0.5462,0.5462,0.5626,0.59,0.6164,0.6431,0.6647,0.6892,0.7034,0.7151,0.7024,0.7139,0.7195,0.6192,0.5678,0.5485,0.5686,0.5659,0.543,0.5121,0.4896,0.4599,0.3874,0.273,0.1615,0.1004,-0.0668,-0.2613,-0.4091,-0.6413,-0.8789,-1.031,-1.248,-1.4224,-1.4221,-1.4094,-1.3673,-1.2721,-1.1181,-0.9703,-0.8684,-0.7966,-0.8081,-0.97,-0.9672,-0.914,-0.8195,-0.7739,-0.7244,-0.6411,-0.5903,-0.5353,-0.4667,-0.4283,-0.4052,-0.4003,-0.3846,-0.3937,-0.4298,-0.3969,-0.3776,-0.3782,-0.345,-0.301,-0.2516,-0.2794,-0.2738,-0.2347,-0.2676,-0.3176]}]]